[[{"header":{"parameterUnit":"m.s-1","parameterCategory":1,"la1":31.0,"la2":29.5877,"lo1":-88.7671,"lo2":-86.6584,"dy":0.0162,"dx":0.0185,"nx":115,"ny":88,"refTime":"2023-06-06T00:00:00:Z","depth":0,"parameterNumber":2,"parameterNumberName":"U-component_of_WINDS"},"data":[0.0,0.0,0.0,0.0,0.0,0.0,0.0,0.0,0.0,0.0,0.0,0.0,0.0,0.0,0.0,0.0,0.0,0.0,0.0,0.0,0.0,0.0,0.0,0.0,0.0,0.0,0.0,0.0,0.0,0.0,0.0,0.0,0.0,0.0,0.0,0.0,0.0,0.0,0.0,0.0,0.0,0.0,0.0,0.0,0.0,0.0,0.0,0.0,0.0,0.0,0.0,0.0,0.0,0.0,0.0,0.0,0.0,0.0,0.0,0.0,0.0,0.0,0.0,0.0,0.0,0.0,0.0,0.0,0.0,0.0,0.0,0.0,0.0,0.0,0.0,0.0,0.0,0.0,0.0,0.0,0.0,0.0,0.0,0.0,0.0,0.0,0.0,0.0,0.0,0.0,0.0,0.0,0.0,0.0,0.0,0.0,0.0,0.0,0.0,0.0,0.0,0.0,0.0,0.0,0.0,0.0,0.0,0.0,0.0,0.0,0.0,0.0,0.0,0.0,0.0,0.0,0.0,0.0,0.0,0.0,0.0,0.0,0.0,0.0,0.0,0.0,0.0,0.0,0.0,0.0,0.0,0.0,0.0,0.0,0.0,0.0,0.0,0.0,0.0,0.0,0.0,0.0,0.0,0.0,0.0,0.0,0.0,0.0,0.0,0.0,0.0,0.0,0.0,0.0,0.0,0.0,0.0,0.0,0.0,0.0,0.0,0.0,0.0,0.0,0.0,0.0,0.0,0.0,0.0,0.0,0.0,0.0,0.0,0.0,0.0,0.0,0.0,0.0,0.0,0.0,0.0,0.0,0.0,0.0,0.0,0.0,0.0,0.0,0.0,0.0,0.0,0.0,0.0,0.0,0.0,0.0,0.0,0.0,0.0,0.0,0.0,0.0,0.0,0.0,0.0,0.0,0.0,0.0,0.0,0.0,0.0,0.0,0.0,0.0,0.0,0.0,0.0,0.0,0.0,0.0,0.0,0.0,0.0,0.0,0.0,0.0,0.0,0.0,0.0,0.0,0.0,0.0,0.0,0.0,0.0,0.0,0.0,0.0,0.0,0.0,0.0,0.0,0.0,0.0,0.0,0.0,0.0,0.0,0.0,0.0,0.0,0.0,0.0,0.0,0.0,0.0,0.0,0.0,0.0,0.0,0.0,0.0,0.0,0.0,0.0,0.0,0.0,0.0,0.0,0.0,0.0,0.0,0.0,0.0,0.0,0.0,0.0,0.0,0.0,0.0,0.0,0.0,0.0,0.0,0.0,0.0,0.0,0.0,0.0,0.0,0.0,0.0,0.0,0.0,0.0,0.0,0.0,0.0,0.0,0.0,0.0,0.0,0.0,0.0,0.0,0.0,0.0,0.0,0.0,0.0,0.0,0.0,0.0,0.0,0.0,0.0,0.0,0.0,0.0,0.0,0.0,0.0,0.0,0.0,0.0,0.0,0.0,0.0,0.0,0.0,0.0,0.0,0.0,0.0,0.0,0.0,0.0,0.0,0.0,0.0,0.0,0.0,0.0,0.0,0.0,0.0,0.0,0.0,0.0,0.0,0.0,0.0,0.0,0.0,0.0,0.0,0.0,0.0,0.0,0.0,0.0,0.0,0.0,0.0,0.0,0.0,0.0,0.0,0.0,0.0,0.0,0.0,0.0,0.0,0.0,0.0,0.0,0.0,0.0,0.0,0.0,0.0,0.0,0.0,0.0,0.0,0.0,0.0,0.0,0.0,0.0,0.0,0.0,0.0,0.0,0.0,0.0,0.0,0.0,0.0,0.0,0.0,0.0,0.0,0.0,0.0,0.0,0.0,0.0,0.0,0.0,0.0,0.0,0.0,0.0,0.0,0.0,0.0,0.0,0.0,0.0,0.0,0.0,0.0,0.0,0.0,0.0,0.0,0.0,0.0,0.0,0.0,0.0,0.0,0.0,0.0,0.0,0.0,0.0,0.0,0.0,0.0,0.0,0.0,0.0,0.0,0.0,0.0,0.0,0.0,0.0,0.0,0.0,0.0,0.0,0.0,0.0,0.0,0.0,0.0,0.0,0.0,0.0,0.0,0.0,0.0,0.0,0.0,0.0,0.0,0.0,0.0,0.0,0.0,0.0,0.0,0.0,0.0,0.0,0.0,0.0,0.0,0.0,0.0,0.0,0.0,0.0,0.0,0.0,0.0,0.0,0.0,0.0,0.0,0.0,0.0,0.0,0.0,0.0,0.0,0.0,0.0,0.0,0.0,0.0,0.0,0.0,0.0,0.0,0.0,0.0,0.0,0.0,0.0,0.0,0.0,0.0,0.0,0.0,0.0,0.0,0.0,0.0,0.0,0.0,0.0,0.0,0.0,0.0,0.0,0.0,0.0,0.0,0.0,0.0,0.0,0.0,0.0,0.0,0.0,0.0,0.0,0.0,0.0,0.0,0.0,0.0,0.0,0.0,0.0,0.0,0.0,0.0,0.0,0.0,0.0,0.0,0.0,0.0,0.0,0.0,0.0,0.0,0.0,0.0,0.0,0.0,0.0,0.0,0.0,0.0,0.0,0.0,0.0,0.0,0.0,0.0,0.0,0.0,0.0,0.0,0.0,0.0,0.0,0.0,0.0,0.0,0.0,0.0,0.0,0.0,0.0,0.0,0.0,0.0,0.0,0.0,0.0,0.0,0.0,0.0,0.0,0.0,0.0,0.0,0.0,0.0,0.0,0.0,0.0,0.0,0.0,0.0,0.0,0.0,0.0,0.0,0.0,0.0,0.0,0.0,0.0,0.0,0.0,0.0,0.0,0.0,0.0,0.0,0.0,0.0,0.0,0.0,0.0,0.0,0.0,0.0,0.0,0.0,0.0,0.0,0.0,0.0,0.0,0.0,0.0,0.0,0.0,0.0,0.0,0.0,0.0,0.0,0.0,0.0,0.0,0.0,0.0,0.0,0.0,0.0,0.0,0.0,0.0,0.0,0.0,0.0,0.0,0.0,0.0,0.0,0.0,0.0,0.0,0.0,0.0,0.0,0.0,0.0,0.0,0.0,0.0,0.0,0.0,0.0,0.0,0.0,0.0,0.0,0.0,0.0,0.0,0.0,0.0,0.0,0.0,0.0,0.0,0.0,0.0,0.0,0.0,0.0,0.0,0.0,0.0,0.0,0.0,0.0,0.0,0.0,0.0,0.0,0.0,0.0,0.0,0.0,0.0,0.0,0.0,0.0,0.0,0.0,0.0,0.0,0.0,0.0,0.0,0.0,0.0,0.0,0.0,0.0,0.0,0.0,0.0,0.0,0.0,0.0,0.0,0.0,0.0,0.0,0.0,0.0,0.0,0.0,0.0,0.0,0.0,0.0,0.0,0.0,0.0,0.0,0.0,0.0,0.0,0.0,0.0,0.0,0.0,0.0,0.0,0.0,0.0,0.0,0.0,0.0,0.0,0.0,0.0,0.0,0.0,0.0,0.0,0.0,0.0,0.0,0.0,0.0,0.0,0.0,0.0,0.0,0.0,0.0,0.0,0.0,0.0,0.0,0.0,0.0,0.0,0.0,0.0,0.0,0.0,0.0,0.0,0.0,0.0,0.0,0.0,0.0,0.0,0.0,0.0,0.0,0.0,0.0,0.0,0.0,0.0,0.0,0.0,0.0,0.0,0.0,0.0,0.0,0.0,0.0,0.0,0.0,0.0,0.0,0.0,0.0,0.0,0.0,0.0,0.0,0.0,0.0,0.0,0.0,0.0,0.0,0.0,0.0,0.0,0.0,0.0,0.0,0.0,0.0,0.0,0.0,0.0,0.0,0.0,0.0,0.0,0.0,0.0,0.0,0.0,0.0,0.0,0.0,0.0,0.0,0.0,0.0,0.0,0.0,0.0,0.0,0.0,0.0,0.0,0.0,0.0,0.0,0.0,0.0,0.0,0.0,0.0,0.0,0.0,0.0,0.0,0.0,0.0,0.0,0.0,0.0,0.0,0.0,0.0,0.0,0.0,0.0,0.0,0.0,0.0,0.0,0.0,0.0,0.0,0.0,0.0,0.0,0.0,0.0,0.0,0.0,0.0,0.0,0.0,0.0,0.0,0.0,0.0,0.0,0.0,0.0,0.0,0.0,0.0,0.0,0.0,0.0,0.0,0.0,0.0,0.0,0.0,0.0,0.0,0.0,0.0,0.0,0.0,0.0,0.0,0.0,0.0,0.0,0.0,0.0,0.0,0.0,0.0,0.0,0.0,0.0,0.0,0.0,0.0,0.0,0.0,0.0,0.0,0.0,0.0,0.0,0.0,0.0,0.0,0.0,0.0,0.0,0.0,-0.6295,0.0,0.0,0.0,0.0,0.0,0.0,0.0,0.0,0.0,0.0,0.0,0.0,0.0,0.0,0.0,0.0,0.0,0.0,0.0,0.0,0.0,0.0,0.0,0.0,0.0,0.0,0.0,0.0,0.0,0.0,0.0,0.0,0.0,0.0,0.0,0.0,0.0,0.0,0.0,0.0,0.0,0.0,0.0,0.0,0.0,0.0,0.0,0.0,0.0,0.0,0.0,0.0,0.0,0.0,0.0,0.0,0.0,0.0,0.0,0.0,0.0,0.0,0.0,0.0,0.0,0.0,0.0,0.0,0.0,0.0,0.0,0.0,0.0,0.0,0.0,0.0,0.0,0.0,0.0,0.0,0.0,0.0,0.0,0.0,0.0,0.0,0.0,0.0,0.0,0.0,0.0,0.0,0.0,0.0,0.0,0.0,0.0,0.0,0.0,0.0,0.0,0.0,0.0,0.0,0.0,0.0,0.0,0.0,0.0,0.0,-0.6207,-0.6726,-0.6712,-0.6651,-0.6516,0.0,0.0,0.0,0.0,0.0,0.0,0.0,0.0,0.0,0.0,0.0,0.0,0.0,0.0,0.0,0.0,0.0,0.0,0.0,0.0,0.0,0.0,0.0,0.0,0.0,0.0,0.0,0.0,0.0,0.0,0.0,0.0,0.0,0.0,0.0,0.0,0.0,0.0,0.0,0.0,0.0,0.0,0.0,0.0,0.0,0.0,0.0,0.0,0.0,0.0,0.0,0.0,0.0,0.0,0.0,0.0,0.0,0.0,0.0,0.0,0.0,0.0,0.0,0.0,0.0,0.0,0.0,0.0,0.0,0.0,0.0,0.0,0.0,0.0,0.0,0.0,0.0,0.0,0.0,0.0,0.0,0.0,0.0,0.0,0.0,0.0,0.0,0.0,0.0,0.0,0.0,0.0,0.0,0.0,0.0,0.0,0.0,0.0,0.0,0.0,0.0,0.0,0.0,0.0,0.0,0.0,0.0,0.0,0.0,0.0,0.0,0.0,-0.7099,-0.6928,-0.6709,0.0,0.0,0.0,0.0,0.0,0.0,0.0,0.0,0.0,0.0,0.0,0.0,0.0,0.0,0.0,0.0,0.0,0.0,0.0,0.0,0.0,0.0,0.0,0.0,0.0,0.0,0.0,0.0,0.0,0.0,0.0,0.0,0.0,0.0,0.0,0.0,0.0,0.0,0.0,0.0,0.0,0.0,0.0,0.0,0.0,0.0,0.0,0.0,0.0,0.0,0.0,0.0,0.0,0.0,0.0,0.0,0.0,0.0,0.0,0.0,0.0,0.0,0.0,0.0,0.0,0.0,0.0,0.0,0.0,0.0,0.0,0.0,0.0,0.0,0.0,0.0,0.0,0.0,0.0,0.0,0.0,0.0,0.0,0.0,0.0,0.0,0.0,0.0,0.0,0.0,0.0,0.0,0.0,0.0,0.0,0.0,0.0,0.0,0.0,0.0,0.0,0.0,0.0,0.0,0.0,0.0,0.0,0.0,0.0,0.0,-0.6951,-0.7188,-0.7349,0.0,-0.6706,0.0,0.0,0.0,0.0,0.0,0.0,0.0,0.0,0.0,0.0,0.0,0.0,0.0,0.0,0.0,0.0,0.0,0.0,0.0,0.0,0.0,0.0,0.0,0.0,0.0,0.0,0.0,0.0,0.0,0.0,0.0,0.0,0.0,0.0,0.0,0.0,0.0,0.0,0.0,0.0,0.0,0.0,0.0,0.0,0.0,0.0,0.0,0.0,0.0,0.0,0.0,0.0,0.0,0.0,0.0,0.0,0.0,0.0,0.0,0.0,0.0,0.0,0.0,0.0,0.0,0.0,0.0,0.0,0.0,0.0,0.0,0.0,0.0,0.0,0.0,0.0,0.0,0.0,0.0,0.0,0.0,0.0,0.0,0.0,0.0,0.0,0.0,0.0,0.0,0.0,0.0,0.0,0.0,0.0,0.0,0.0,0.0,0.0,0.0,0.0,0.0,0.0,0.0,0.0,0.0,0.0,0.0,0.0,0.0,0.0,-0.7076,-0.7314,-0.7133,-0.6907,0.0,0.0,0.0,0.0,0.0,0.0,0.0,0.0,0.0,0.0,0.0,0.0,0.0,0.0,0.0,0.0,0.0,0.0,0.0,0.0,0.0,0.0,0.0,0.0,0.0,0.0,0.0,0.0,0.0,0.0,0.0,0.0,0.0,0.0,0.0,0.0,0.0,0.0,0.0,0.0,0.0,0.0,0.0,0.0,0.0,0.0,0.0,0.0,0.0,0.0,0.0,0.0,0.0,0.0,0.0,0.0,0.0,0.0,0.0,0.0,0.0,0.0,0.0,0.0,0.0,0.0,0.0,0.0,0.0,0.0,0.0,0.0,0.0,0.0,0.0,0.0,0.0,0.0,0.0,0.0,0.0,0.0,0.0,0.0,0.0,0.0,0.0,0.0,0.0,0.0,0.0,0.0,0.0,0.0,0.0,0.0,0.0,0.0,0.0,0.0,0.0,0.0,0.0,0.0,0.0,0.0,0.0,0.0,0.0,0.0,-0.6901,-0.7196,-0.7433,-0.6968,-0.6658,-0.6597,0.0,0.0,0.0,0.0,0.0,0.0,0.0,0.0,0.0,0.0,0.0,0.0,0.0,0.0,0.0,0.0,0.0,0.0,0.0,0.0,0.0,0.0,0.0,0.0,0.0,0.0,0.0,0.0,0.0,0.0,0.0,0.0,0.0,0.0,0.0,0.0,0.0,0.0,0.0,0.0,0.0,0.0,0.0,0.0,0.0,0.0,0.0,0.0,0.0,0.0,0.0,0.0,0.0,0.0,0.0,0.0,0.0,0.0,0.0,0.0,0.0,0.0,0.0,0.0,0.0,0.0,0.0,0.0,0.0,0.0,0.0,0.0,0.0,0.0,0.0,0.0,0.0,0.0,0.0,0.0,0.0,0.0,0.0,0.0,0.0,0.0,0.0,0.0,0.0,0.0,0.0,0.0,0.0,0.0,0.0,0.0,0.0,0.0,0.0,0.0,0.0,0.0,0.0,0.0,0.0,0.0,0.0,0.0,-0.6859,-0.7083,-0.7335,-0.7663,-0.6979,-0.6597,0.0,0.0,0.0,0.0,0.0,0.0,0.0,0.0,0.0,0.0,0.0,0.0,0.0,0.0,0.0,0.0,0.0,0.0,0.0,0.0,0.0,0.0,0.0,0.0,0.0,0.0,0.0,0.0,0.0,0.0,0.0,0.0,0.0,0.0,0.0,0.0,0.0,0.0,0.0,0.0,0.0,0.0,0.0,0.0,0.0,0.0,0.0,0.0,0.0,0.0,0.0,0.0,0.0,0.0,0.0,0.0,0.0,0.0,0.0,0.0,0.0,0.0,0.0,0.0,0.0,0.0,0.0,0.0,0.0,0.0,0.0,0.0,0.0,0.0,0.0,0.0,0.0,0.0,0.0,0.0,0.0,0.0,0.0,0.0,0.0,0.0,0.0,0.0,0.0,0.0,0.0,0.0,0.0,0.0,0.0,0.0,0.0,0.0,0.0,0.0,0.0,0.0,0.0,0.0,0.0,0.0,0.0,0.0,0.0,-0.6713,-0.7155,-0.7496,-0.7669,-0.6999,-0.6586,0.0,0.0,0.0,0.0,0.0,0.0,0.0,0.0,0.0,0.0,0.0,0.0,0.0,0.0,0.0,0.0,0.0,0.0,0.0,0.0,0.0,0.0,0.0,0.0,0.0,0.0,0.0,0.0,0.0,0.0,0.0,0.0,0.0,0.0,0.0,0.0,0.0,0.0,0.0,0.0,0.0,0.0,0.0,0.0,0.0,0.0,0.0,0.0,0.0,0.0,0.0,0.0,0.0,0.0,0.0,0.0,0.0,0.0,0.0,0.0,0.0,0.0,0.0,0.0,0.0,0.0,0.0,0.0,0.0,0.0,0.0,0.0,0.0,0.0,0.0,0.0,0.0,0.0,0.0,0.0,0.0,0.0,0.0,0.0,0.0,0.0,0.0,0.0,0.0,0.0,0.0,0.0,0.0,0.0,0.0,0.0,0.0,0.0,0.0,0.0,0.0,0.0,0.0,0.0,0.0,0.0,0.0,0.0,0.0,-0.6948,0.0,-0.7621,-0.7739,-0.7081,-0.6637,0.0,0.0,0.0,0.0,0.0,0.0,0.0,0.0,0.0,0.0,0.0,0.0,0.0,0.0,0.0,0.0,0.0,0.0,0.0,0.0,0.0,0.0,0.0,0.0,0.0,0.0,0.0,0.0,0.0,0.0,0.0,0.0,0.0,0.0,0.0,0.0,0.0,0.0,0.0,0.0,0.0,0.0,0.0,0.0,0.0,0.0,0.0,0.0,0.0,0.0,0.0,0.0,0.0,0.0,0.0,0.0,0.0,0.0,0.0,0.0,0.0,0.0,0.0,0.0,0.0,0.0,0.0,0.0,0.0,0.0,0.0,0.0,0.0,0.0,0.0,0.0,0.0,0.0,0.0,0.0,0.0,0.0,0.0,0.0,0.0,0.0,0.0,0.0,0.0,0.0,0.0,0.0,0.0,0.0,0.0,0.0,0.0,0.0,0.0,0.0,0.0,0.0,0.0,0.0,0.0,0.0,0.0,0.0,-0.6704,-0.7654,-0.7712,-0.7753,-0.787,-0.7243,-0.6781,0.0,0.0,0.0,0.0,0.0,0.0,0.0,0.0,0.0,0.0,0.0,0.0,0.0,0.0,0.0,0.0,0.0,0.0,0.0,0.0,0.0,0.0,0.0,0.0,0.0,0.0,0.0,0.0,0.0,0.0,0.0,0.0,0.0,0.0,0.0,0.0,0.0,0.0,0.0,0.0,0.0,0.0,0.0,0.0,0.0,0.0,0.0,0.0,0.0,0.0,0.0,0.0,0.0,0.0,0.0,0.0,0.0,0.0,0.0,0.0,0.0,0.0,0.0,0.0,0.0,0.0,0.0,0.0,0.0,0.0,0.0,0.0,0.0,0.0,0.0,0.0,0.0,0.0,0.0,0.0,0.0,0.0,0.0,0.0,0.0,0.0,0.0,0.0,0.0,0.0,0.0,0.0,0.0,0.0,0.0,0.0,0.0,0.0,0.0,0.0,0.0,0.0,0.0,0.0,0.0,0.0,0.0,0.0,0.0,-0.7889,-0.7897,-0.7912,-0.7876,-0.735,-0.6857,0.0,0.0,0.0,0.0,0.0,0.0,0.0,0.0,0.0,0.0,0.0,0.0,0.0,0.0,0.0,0.0,0.0,0.0,0.0,0.0,0.0,0.0,0.0,0.0,0.0,0.0,0.0,0.0,0.0,0.0,0.0,0.0,0.0,0.0,0.0,0.0,0.0,0.0,0.0,0.0,0.0,0.0,0.0,0.0,0.0,0.0,0.0,0.0,0.0,0.0,0.0,0.0,0.0,0.0,0.0,0.0,0.0,0.0,0.0,0.0,0.0,0.0,0.0,0.0,0.0,0.0,0.0,0.0,0.0,0.0,0.0,0.0,0.0,0.0,0.0,0.0,0.0,0.0,0.0,0.0,0.0,0.0,0.0,0.0,0.0,0.0,0.0,0.0,0.0,0.0,0.0,0.0,0.0,0.0,0.0,0.0,0.0,0.0,0.0,0.0,0.0,0.0,0.0,0.0,0.0,0.0,0.0,0.0,0.0,-0.8532,-0.8422,-0.8317,-0.8261,-0.7835,-0.7315,-0.673,0.0,0.0,0.0,0.0,0.0,0.0,0.0,0.0,0.0,0.0,0.0,0.0,0.0,0.0,0.0,0.0,0.0,0.0,0.0,0.0,0.0,0.0,0.0,0.0,0.0,0.0,0.0,0.0,0.0,0.0,0.0,0.0,0.0,0.0,0.0,0.0,0.0,0.0,0.0,0.0,0.0,0.0,0.0,0.0,0.0,0.0,0.0,0.0,0.0,0.0,0.0,0.0,0.0,0.0,0.0,0.0,0.0,0.0,0.0,0.0,0.0,0.0,0.0,0.0,0.0,0.0,0.0,0.0,0.0,0.0,0.0,0.0,0.0,0.0,0.0,0.0,0.0,0.0,0.0,0.0,0.0,0.0,0.0,0.0,0.0,0.0,0.0,0.0,0.0,0.0,0.0,0.0,0.0,0.0,0.0,0.0,0.0,0.0,0.0,0.0,0.0,0.0,0.0,0.0,0.0,0.0,0.0,0.0,-0.9542,-0.9213,-0.9009,-0.8941,-0.8583,-0.7994,0.0,0.0,0.0,0.0,0.0,0.0,0.0,0.0,0.0,0.0,0.0,0.0,0.0,0.0,0.0,0.0,0.0,0.0,0.0,0.0,0.0,0.0,0.0,0.0,0.0,0.0,0.0,0.0,0.0,0.0,0.0,0.0,0.0,0.0,0.0,0.0,0.0,0.0,0.0,0.0,0.0,0.0,0.0,0.0,0.0,0.0,0.0,0.0,0.0,0.0,0.0,0.0,0.0,0.0,0.0,0.0,0.0,0.0,0.0,0.0,0.0,0.0,0.0,0.0,0.0,0.0,0.0,0.0,0.0,0.0,0.0,0.0,0.0,0.0,0.0,0.0,0.0,0.0,0.0,0.0,0.0,0.0,0.0,0.0,0.0,0.0,0.0,0.0,0.0,0.0,0.0,0.0,0.0,0.0,0.0,0.0,0.0,0.0,0.0,0.0,0.0,0.0,0.0,0.0,0.0,0.0,0.0,0.0,0.0,-1.0197,-1.0403,-1.0182,-0.952,-0.8869,-0.8212,0.0,0.0,0.0,0.0,0.0,0.0,0.0,0.0,0.0,0.0,0.0,0.0,0.0,0.0,0.0,0.0,0.0,0.0,0.0,0.0,0.0,0.0,0.0,0.0,0.0,0.0,0.0,0.0,0.0,0.0,0.0,0.0,0.0,0.0,0.0,0.0,0.0,0.0,0.0,0.0,0.0,0.0,0.0,0.0,0.0,0.0,0.0,0.0,0.0,0.0,0.0,0.0,0.0,0.0,0.0,0.0,0.0,0.0,0.0,0.0,0.0,0.0,0.0,0.0,0.0,0.0,0.0,0.0,0.0,0.0,0.0,0.0,0.0,0.0,0.0,0.0,0.0,0.0,0.0,0.0,0.0,0.0,0.0,0.0,0.0,0.0,0.0,0.0,0.0,0.0,0.0,0.0,0.0,0.0,0.0,0.0,0.0,0.0,0.0,0.0,0.0,0.0,0.0,0.0,0.0,0.0,0.0,0.0,-1.0312,-1.0912,-1.1351,-1.1307,-1.0641,-0.9663,-0.8762,0.0,0.0,0.0,0.0,0.0,0.0,0.0,0.0,0.0,0.0,0.0,0.0,0.0,0.0,0.0,0.0,0.0,0.0,0.0,0.0,0.0,0.0,0.0,0.0,0.0,0.0,0.0,0.0,0.0,0.0,0.0,0.0,0.0,0.0,0.0,0.0,0.0,0.0,0.0,0.0,0.0,0.0,0.0,0.0,0.0,0.0,0.0,0.0,0.0,0.0,0.0,0.0,0.0,0.0,0.0,0.0,0.0,0.0,0.0,0.0,0.0,0.0,0.0,0.0,0.0,0.0,0.0,0.0,0.0,0.0,0.0,0.0,0.0,0.0,0.0,0.0,0.0,0.0,0.0,0.0,0.0,0.0,0.0,0.0,0.0,0.0,0.0,0.0,0.0,0.0,0.0,0.0,0.0,0.0,0.0,0.0,0.0,0.0,0.0,0.0,0.0,0.0,0.0,0.0,0.0,0.0,0.0,0.0,-1.1004,-1.1584,-1.2084,-1.22,-1.1925,-1.0649,-0.9473,0.0,0.0,0.0,0.0,0.0,0.0,0.0,0.0,0.0,0.0,0.0,0.0,0.0,0.0,0.0,0.0,0.0,0.0,0.0,0.0,0.0,0.0,0.0,0.0,0.0,0.0,0.0,0.0,0.0,0.0,0.0,0.0,0.0,0.0,0.0,0.0,0.0,0.0,0.0,0.0,0.0,0.0,0.0,0.0,0.0,0.0,0.0,0.0,0.0,0.0,0.0,0.0,0.0,0.0,0.0,0.0,0.0,0.0,0.0,0.0,0.0,0.0,0.0,0.0,0.0,0.0,0.0,0.0,0.0,0.0,0.0,0.0,0.0,0.0,0.0,0.0,0.0,0.0,0.0,0.0,0.0,0.0,0.0,0.0,0.0,0.0,0.0,0.0,0.0,0.0,0.0,0.0,0.0,0.0,0.0,0.0,0.0,0.0,0.0,0.0,0.0,0.0,0.0,0.0,0.0,0.0,0.0,0.0,-1.1365,-1.2128,-1.2445,-1.252,-1.2372,-1.086,-0.9763,0.0,0.0,0.0,0.0,0.0,0.0,0.0,0.0,0.0,0.0,0.0,0.0,0.0,0.0,0.0,0.0,0.0,0.0,0.0,0.0,0.0,0.0,0.0,0.0,0.0,0.0,0.0,0.0,0.0,0.0,0.0,0.0,0.0,0.0,0.0,0.0,0.0,0.0,0.0,0.0,0.0,0.0,0.0,0.0,0.0,0.0,0.0,0.0,-0.0757,0.0,0.0,0.0,0.0,0.0,0.0,0.0,0.0,0.0,0.0,0.0,0.0,0.0,0.0,0.0,0.0,0.0,0.0,0.0,0.0,0.0,0.0,0.0,0.0,0.0,0.0,0.0,0.0,0.0,0.0,0.0,0.0,0.0,0.0,0.0,0.0,0.0,0.0,0.0,0.0,0.0,0.0,0.0,0.0,0.0,0.0,0.0,0.0,0.0,0.0,0.0,0.0,0.0,0.0,0.0,0.0,0.0,0.0,0.0,-1.1763,-1.2608,-1.284,-1.2861,-1.2647,-1.1438,-1.0332,0.0,0.0,0.0,0.0,0.0,0.0,0.0,0.0,0.0,0.0,0.0,0.0,0.0,0.0,0.0,0.0,0.0,0.0,0.0,0.0,0.0,0.0,0.0,0.0,0.0,0.0,0.0,0.0,0.0,0.0,0.0,0.0,0.0,0.0,0.0,0.0,0.0,0.0,0.0,0.0,0.0,0.0,0.0,0.0,0.0,0.0,0.0,0.0,0.0,0.0,0.0,0.0,0.0,0.0,0.0,0.0,0.0,0.0,0.0,0.0,0.0,0.0,0.0,0.0,0.0,0.0,0.0,0.0,0.0,0.0,0.0,0.0,0.0,0.0,0.0,0.0,0.0,0.0,0.0,0.0,0.0,0.0,0.0,0.0,0.0,0.0,0.0,0.0,0.0,0.0,0.0,0.0,0.0,0.0,0.0,0.0,0.0,0.0,0.0,0.0,0.0,0.0,0.0,0.0,0.0,0.0,0.0,-1.1587,-1.2239,-1.3163,-1.3304,-1.3266,-1.3018,-1.2181,-1.1083,-0.9675,0.0,0.0,0.0,0.0,0.0,0.0,0.0,0.0,0.0,0.0,0.0,0.0,0.0,0.0,0.0,0.0,0.0,0.0,0.0,0.0,0.0,0.0,0.0,0.0,0.0,0.0,0.0,0.0,0.0,0.0,0.0,0.0,0.0,0.0,0.0,0.0,0.0,0.0,-0.0511,-0.0549,0.0,0.0,0.0,0.0,0.0,0.0,0.0,0.0,-0.1003,0.0,0.0,0.0,0.0,0.0,0.0,0.0,0.0,0.0,0.0,0.0,0.0,0.0,0.0,0.0,0.0,0.0,0.0,0.0,0.0,0.0,0.0,0.0,0.0,0.0,0.0,0.0,0.0,0.0,0.0,0.0,0.0,0.0,0.0,0.0,0.0,0.0,0.0,0.0,0.0,0.0,0.0,0.0,0.0,0.0,0.0,0.0,0.0,0.0,0.0,0.0,0.0,0.0,0.0,0.0,0.0,-1.1693,-1.2272,-1.3083,-1.407,-1.4091,-1.3956,-1.3581,-1.3084,-1.1981,-1.0243,0.0,0.0,0.0,0.0,0.0,0.0,0.0,0.0,0.0,0.0,0.0,0.0,0.0,0.0,0.0,0.0,0.0,0.0,0.0,0.0,0.0,0.0,0.0,0.0,0.0,0.0,0.0,0.0,0.0,0.0,0.0,0.0,0.0,0.0,0.0,0.0,0.0,0.0,0.0,-0.0598,-0.0613,0.0,0.0,0.0,0.0,0.0,0.0,0.0,0.0,-0.1054,0.0,0.0,0.0,0.0,0.0,0.0,0.0,0.0,0.0,0.0,0.0,0.0,0.0,0.0,0.0,0.0,0.0,0.0,0.0,0.0,0.0,0.0,0.0,0.0,0.0,0.0,0.0,0.0,0.0,0.0,0.0,0.0,0.0,0.0,0.0,0.0,0.0,0.0,0.0,0.0,0.0,0.0,0.0,0.0,0.0,0.0,0.0,0.0,0.0,0.0,0.0,0.0,0.0,0.0,0.0,-1.1964,-1.2892,-1.3739,-1.4471,-1.4683,-1.4516,-1.3978,-1.3471,-1.2429,0.0,0.0,0.0,0.0,0.0,0.0,0.0,0.0,0.0,0.0,0.0,0.0,0.0,0.0,0.0,0.0,0.0,0.0,0.0,0.0,0.0,0.0,0.0,0.0,0.0,0.0,0.0,0.0,0.0,0.0,0.0,0.0,0.0,0.0,0.0,0.0,0.0,0.0,0.0,0.0,-0.064,-0.0681,-0.0734,0.0,0.0,0.0,0.0,0.0,0.0,-0.1232,-0.121,0.0,0.0,0.0,0.0,0.0,0.0,0.0,0.0,0.0,0.0,0.0,0.0,0.0,0.0,0.0,0.0,0.0,0.0,0.0,0.0,0.0,0.0,0.0,0.0,0.0,0.0,0.0,0.0,0.0,0.0,0.0,0.0,0.0,0.0,0.0,0.0,0.0,0.0,0.0,0.0,0.0,0.0,0.0,0.0,0.0,0.0,0.0,0.0,0.0,0.0,0.0,0.0,0.0,0.0,0.0,-1.2275,-1.3501,-1.4385,-1.4903,-1.5209,-1.5102,-1.4512,-1.3862,-1.2821,0.0,0.0,0.0,0.0,0.0,0.0,0.0,0.0,0.0,0.0,0.0,0.0,0.0,0.0,0.0,0.0,0.0,0.0,0.0,0.0,0.0,0.0,0.0,0.0,0.0,0.0,0.0,0.0,0.0,0.0,0.0,0.0,0.0,0.0,0.0,0.0,0.0,0.0,0.0,0.0,0.0,-0.0793,-0.0894,-0.0922,0.0,0.0,0.0,0.0,-0.1323,-0.1375,0.0,0.0,0.0,0.0,0.0,0.0,0.0,0.0,0.0,0.0,0.0,0.0,0.0,0.0,0.0,0.0,0.0,0.0,0.0,0.0,0.0,0.0,0.0,0.0,0.0,0.0,0.0,0.0,0.0,0.0,0.0,0.0,0.0,0.0,0.0,0.0,0.0,0.0,0.0,0.0,0.0,0.0,0.0,0.0,0.0,0.0,0.0,0.0,0.0,0.0,0.0,0.0,0.0,0.0,0.0,0.0,-1.2765,-1.4192,-1.5194,-1.5662,-1.5892,-1.5837,-1.5525,-1.4723,-1.3565,0.0,0.0,0.0,0.0,0.0,0.0,0.0,0.0,0.0,0.0,0.0,0.0,0.0,0.0,0.0,0.0,0.0,0.0,0.0,0.0,0.0,0.0,0.0,0.0,0.0,0.0,0.0,0.0,0.0,0.0,0.0,0.0,0.0,0.0,0.0,0.0,0.0,0.0,0.0,0.0,0.0,-0.0878,-0.0895,-0.1009,-0.112,0.0,0.0,-0.1473,-0.1396,-0.1432,0.0,0.0,0.0,0.0,0.0,0.0,0.0,0.0,0.0,0.0,0.0,0.0,0.0,0.0,0.0,0.0,0.0,0.0,0.0,0.0,0.0,0.0,0.0,0.0,0.0,0.0,0.0,0.0,0.0,0.0,0.0,0.0,0.0,0.0,0.0,0.0,0.0,0.0,0.0,0.0,0.0,0.0,0.0,0.0,0.0,0.0,0.0,0.0,0.0,0.0,0.0,0.0,0.0,0.0,0.0,-1.2848,-1.304,-1.4811,-1.5783,-1.5928,-1.6488,-1.6492,-1.5817,-1.4975,-1.3916,0.0,0.0,0.0,0.0,0.0,0.0,0.0,0.0,0.0,0.0,0.0,0.0,0.0,0.0,0.0,0.0,0.0,0.0,0.0,0.0,0.0,0.0,0.0,0.0,0.0,0.0,0.0,0.0,0.0,0.0,0.0,0.0,0.0,0.0,0.0,0.0,0.0,0.0,0.0,0.0,0.0,0.0,-0.1112,-0.1325,0.0,0.0,0.0,-0.1837,-0.1807,0.0,0.0,0.0,0.0,0.0,0.0,0.0,0.0,0.0,0.0,0.0,0.0,0.0,0.0,0.0,0.0,0.0,0.0,0.0,0.0,0.0,0.0,0.0,0.0,0.0,0.0,0.0,0.0,0.0,0.0,0.0,0.0,0.0,0.0,0.0,0.0,0.0,0.0,0.0,0.0,0.0,0.0,0.0,0.0,0.0,0.0,0.0,0.0,0.0,0.0,0.0,0.0,0.0,0.0,0.0,0.0,0.0,-1.3267,-1.5284,-1.6272,-1.6193,-1.6954,-1.7026,-1.6275,-1.5277,0.0,0.0,0.0,0.0,0.0,0.0,0.0,0.0,0.0,0.0,0.0,0.0,0.0,0.0,0.0,0.0,0.0,0.0,0.0,0.0,0.0,0.0,0.0,0.0,0.0,0.0,0.0,-0.1686,0.0,0.0,0.0,0.0,0.0,0.0,0.0,0.0,0.0,0.0,0.0,0.0,0.0,0.0,-0.1333,-0.1381,-0.1601,-0.1767,0.0,0.0,-0.2117,-0.21,-0.1939,-0.1777,0.0,0.0,0.0,0.0,0.0,0.0,0.0,0.0,0.0,0.0,0.0,0.0,0.0,0.0,0.0,0.0,0.0,0.0,0.0,0.0,0.0,0.0,0.0,0.0,0.0,0.0,0.0,0.0,0.0,0.0,0.0,0.0,0.0,0.0,0.0,0.0,0.0,0.0,0.0,0.0,0.0,0.0,0.0,0.0,0.0,0.0,0.0,0.0,0.0,0.0,0.0,0.0,0.0,0.0,0.0,-1.3641,-1.5672,-1.6675,-1.6583,-1.7303,-1.7523,-1.7185,-1.5871,-1.4893,0.0,0.0,0.0,0.0,0.0,0.0,0.0,0.0,0.0,0.0,0.0,0.0,0.0,0.0,0.0,0.0,0.0,0.0,0.0,0.0,0.0,0.0,0.0,0.0,0.0,0.0,0.0,0.0,0.0,0.0,0.0,0.0,0.0,0.0,0.0,0.0,0.0,0.0,0.0,0.0,0.0,-0.1667,-0.1691,-0.1799,-0.1947,0.0,0.0,-0.2176,-0.2109,-0.2151,-0.2065,-0.176,0.0,0.0,0.0,0.0,0.0,0.0,0.0,0.0,0.0,0.0,0.0,0.0,0.0,0.0,0.0,0.0,0.0,0.0,0.0,0.0,0.0,0.0,0.0,0.0,0.0,0.0,0.0,0.0,0.0,0.0,0.0,0.0,0.0,0.0,0.0,0.0,0.0,0.0,0.0,0.0,0.0,0.0,0.0,0.0,0.0,0.0,0.0,0.0,0.0,0.0,0.0,0.0,0.0,-1.393,-1.4413,-1.6127,-1.6972,-1.6882,-1.7769,-1.803,-1.7573,-1.6291,-1.5367,0.0,0.0,0.0,0.0,0.0,0.0,0.0,0.0,0.0,0.0,0.0,0.0,0.0,0.0,0.0,0.0,0.0,0.0,0.0,0.0,0.0,0.0,0.0,0.0,0.0,0.0,0.0,0.0,-0.222,-0.2207,-0.2091,0.0,0.0,0.0,0.0,0.0,0.0,0.0,0.0,0.0,0.0,-0.217,-0.2248,-0.2346,0.0,0.0,-0.2692,-0.276,-0.2723,-0.2566,-0.24,-0.2283,-0.2005,0.0,0.0,0.0,0.0,0.0,0.0,0.0,0.0,0.0,0.0,0.0,0.0,0.0,0.0,0.0,0.0,0.0,0.0,0.0,0.0,0.0,0.0,0.0,0.0,0.0,0.0,0.0,0.0,0.0,0.0,0.0,0.0,0.0,0.0,0.0,0.0,0.0,0.0,0.0,0.0,0.0,0.0,0.0,0.0,0.0,0.0,0.0,0.0,0.0,0.0,0.0,0.0,-1.4414,-1.5305,-1.6713,-1.7484,-1.7529,-1.8362,-1.8614,-1.8088,-1.7014,-1.6137,0.0,0.0,0.0,0.0,0.0,0.0,0.0,0.0,0.0,0.0,0.0,0.0,0.0,0.0,0.0,0.0,0.0,0.0,0.0,0.0,0.0,0.0,0.0,0.0,0.0,0.0,0.0,0.0,-0.2677,-0.2615,-0.2502,0.0,0.0,0.0,0.0,0.0,0.0,0.0,0.0,0.0,0.0,-0.2658,-0.2766,-0.2793,-0.2826,-0.2935,-0.3047,-0.3105,-0.3105,-0.2907,-0.2719,-0.2666,0.0,0.0,0.0,0.0,0.0,0.0,0.0,0.0,0.0,0.0,0.0,0.0,0.0,0.0,0.0,0.0,0.0,0.0,0.0,0.0,0.0,0.0,0.0,0.0,0.0,0.0,0.0,0.0,0.0,0.0,-1.6609,0.0,0.0,0.0,0.0,0.0,0.0,0.0,0.0,0.0,0.0,0.0,0.0,0.0,0.0,0.0,0.0,0.0,0.0,0.0,0.0,0.0,0.0,-1.5012,-1.6272,-1.7407,-1.8238,-1.8734,-1.9151,-1.9263,-1.8948,-1.8133,-1.7205,-1.6261,0.0,0.0,0.0,0.0,0.0,0.0,0.0,0.0,0.0,0.0,0.0,0.0,0.0,0.0,0.0,0.0,0.0,0.0,0.0,0.0,0.0,0.0,0.0,0.0,0.0,0.0,-0.3602,-0.323,-0.3009,0.0,0.0,0.0,0.0,0.0,0.0,0.0,0.0,0.0,0.0,-0.3242,-0.3187,-0.3189,-0.3145,-0.313,-0.3105,-0.3105,-0.3132,-0.313,-0.3098,-0.3014,0.0,0.0,0.0,0.0,0.0,0.0,0.0,0.0,0.0,0.0,0.0,0.0,0.0,0.0,0.0,0.0,0.0,0.0,0.0,0.0,0.0,0.0,0.0,0.0,0.0,0.0,0.0,-1.9876,-1.996,0.0,0.0,0.0,0.0,0.0,0.0,0.0,0.0,0.0,0.0,0.0,-2.1107,-2.0425,0.0,0.0,0.0,0.0,0.0,0.0,0.0,0.0,0.0,0.0,0.0,0.0,-1.5721,-1.731,-1.8088,-1.8752,-1.9326,-1.9737,-1.9785,-1.9514,-1.8688,-1.7485,-1.5898,0.0,0.0,0.0,0.0,0.0,0.0,0.0,0.0,0.0,0.0,0.0,0.0,0.0,0.0,0.0,0.0,0.0,0.0,0.0,0.0,0.0,0.0,0.0,0.0,0.0,-0.4679,0.0,0.0,0.0,0.0,0.0,0.0,0.0,0.0,0.0,0.0,0.0,-0.3929,-0.3852,-0.3764,-0.3736,-0.3736,-0.363,-0.3602,0.0,0.0,0.0,0.0,0.0,0.0,0.0,0.0,0.0,0.0,0.0,0.0,0.0,0.0,-0.2327,-0.1945,-0.1804,-0.1679,-0.1461,0.0,0.0,0.0,0.0,0.0,0.0,0.0,0.0,0.0,0.0,0.0,0.0,0.0,0.0,-2.1806,0.0,-2.1518,0.0,0.0,0.0,0.0,0.0,0.0,0.0,0.0,-2.2225,-2.2781,-2.3829,-2.3159,-2.2874,0.0,-2.1528,-2.0036,0.0,0.0,0.0,0.0,0.0,0.0,0.0,0.0,-1.6751,-1.8491,-1.8882,-1.9486,-2.0252,-2.0451,-2.0447,-2.0207,-1.9246,-1.8018,-1.659,-1.5408,-1.423,0.0,0.0,0.0,0.0,0.0,0.0,0.0,0.0,0.0,0.0,0.0,0.0,0.0,0.0,0.0,0.0,0.0,0.0,0.0,0.0,0.0,0.0,0.0,-0.5504,0.0,0.0,0.0,0.0,0.0,0.0,0.0,0.0,0.0,-0.4325,-0.4423,-0.4546,-0.4444,-0.4375,-0.4298,-0.4245,0.0,0.0,0.0,0.0,0.0,0.0,0.0,-0.3605,-0.3608,-0.3442,-0.3282,-0.3146,-0.3121,-0.3136,-0.3225,0.0,0.0,-0.2448,-0.2317,-0.2172,-0.1915,-0.1829,-0.1741,-0.1421,-0.1239,-0.1078,0.0,0.0,0.0,0.0,0.0,0.0,0.0,0.0,-2.2713,-2.2754,0.0,-2.258,0.0,0.0,0.0,0.0,0.0,-2.2522,0.0,0.0,-2.4871,-2.5253,-2.5901,-2.5627,-2.5284,-2.4827,-2.3758,-2.2989,-2.2344,-1.926,0.0,0.0,0.0,0.0,0.0,0.0,-1.7982,-1.9765,-1.9861,-2.0429,-2.1571,-2.1361,-2.1155,-2.0959,-1.9794,-1.8884,-1.8297,-1.6808,-1.5588,-1.4731,-1.3215,0.0,0.0,0.0,0.0,0.0,0.0,0.0,0.0,0.0,0.0,0.0,0.0,0.0,0.0,0.0,0.0,0.0,0.0,0.0,0.0,-0.66,0.0,0.0,0.0,0.0,0.0,0.0,0.0,0.0,0.0,0.0,-0.5279,-0.5149,-0.5127,-0.5136,0.0,0.0,0.0,0.0,-0.4563,-0.4563,-0.4373,-0.4265,-0.4237,-0.415,-0.4011,-0.4011,0.0,0.0,-0.3552,-0.3513,-0.3548,-0.3515,-0.3525,-0.3399,-0.3085,-0.2917,-0.2699,-0.2398,-0.2334,-0.2217,-0.1909,-0.169,-0.1481,-2.6207,0.0,0.0,0.0,0.0,-2.4297,-2.4922,-2.5549,-2.6148,-2.643,-2.6373,-2.5673,0.0,0.0,0.0,0.0,0.0,0.0,-2.5498,-2.6526,-2.6478,-2.6794,-2.7452,-2.6596,-2.6303,-2.6462,-2.5331,-2.4505,-2.4017,-2.2301,-2.0432,-1.8478,0.0,0.0,0.0,0.0,-1.9256,-2.0569,-2.1041,-2.1565,-2.2221,-2.1935,-2.152,-2.1008,-2.0367,-1.966,-1.8909,-1.8141,-1.6967,-1.529,-1.453,0.0,0.0,0.0,0.0,0.0,0.0,0.0,0.0,0.0,0.0,0.0,0.0,0.0,0.0,0.0,0.0,0.0,0.0,0.0,-0.8001,-0.7739,-0.7456,0.0,0.0,0.0,0.0,0.0,0.0,0.0,0.0,0.0,-0.6844,-0.6268,-0.5873,0.0,0.0,-0.5723,-0.5647,-0.56,-0.5575,-0.5575,-0.531,0.0,-0.5133,-0.49,-0.466,-0.4519,-0.4401,-0.4227,-0.4025,-0.4074,-0.4101,-0.3943,-0.4011,-0.4001,-0.3758,-0.3481,-0.321,-0.2893,-0.2801,-0.2647,-0.2253,-0.2037,-0.1877,-2.8048,-2.6495,-2.5845,-2.557,-2.566,-2.6181,-2.673,-2.7252,-2.7811,-2.8055,-2.8004,-2.746,-2.7171,-2.7102,-2.6482,0.0,0.0,0.0,-2.7135,-2.7942,-2.788,-2.8207,-2.8744,-2.8051,-2.7761,-2.7816,-2.6713,-2.5932,-2.5501,-2.4401,-2.2974,-2.1278,0.0,0.0,-1.9647,-1.9933,-2.0677,-2.1837,-2.2129,-2.2475,-2.2823,-2.2402,-2.1878,-2.1253,-2.0896,-2.0367,-1.9646,-1.9096,-1.808,-1.6416,-1.5634,-1.4558,0.0,0.0,0.0,0.0,0.0,0.0,0.0,0.0,0.0,0.0,0.0,-0.7566,-0.7787,0.0,0.0,0.0,-0.8693,-0.8962,-0.937,-0.9037,0.0,0.0,0.0,0.0,0.0,0.0,0.0,-0.7597,-0.7983,-0.8218,-0.812,-0.7615,-0.7074,-0.6663,-0.6624,-0.6549,-0.637,0.0,-0.6323,-0.6297,-0.6027,-0.5842,-0.5785,-0.5483,-0.5172,-0.49,-0.481,-0.4681,-0.4485,-0.4464,-0.4416,-0.4324,-0.4317,-0.4267,-0.4167,-0.3951,-0.367,-0.3287,-0.3189,-0.3064,-0.2649,-0.2462,-0.2262,-2.9183,-2.8564,-2.8128,-2.7945,-2.7985,-2.8054,-2.8119,-2.8175,-2.8267,-2.8278,-2.8285,-2.8225,-2.8173,-2.8104,-2.8051,0.0,-2.8116,-2.8063,-2.8457,-2.9215,-2.9142,-2.9403,-2.9907,-2.9633,-2.9329,-2.8915,-2.7912,-2.7256,-2.6885,-2.5781,-2.506,-2.4688,-2.2389,-2.1437,-2.1851,-2.1723,-2.218,-2.3271,-2.3177,-2.3232,-2.3391,-2.2768,-2.2208,-2.1674,-2.1399,-2.0983,-2.0459,-1.9782,-1.8927,-1.7893,-1.6657,-1.5526,-1.4502,0.0,0.0,0.0,0.0,0.0,0.0,0.0,0.0,0.0,0.0,0.0,0.0,0.0,0.0,0.0,-1.0153,0.0,-1.0718,-1.0393,0.0,0.0,0.0,-0.8865,-0.8501,-0.8724,-0.8884,-0.8948,0.0,0.0,-0.9216,-0.903,-0.8599,-0.773,-0.7535,-0.738,-0.707,-0.7019,-0.6949,-0.6857,-0.6622,-0.6466,-0.6358,-0.6014,-0.5666,-0.5315,-0.5184,-0.5103,-0.4916,-0.4749,-0.4688,-0.4616,-0.4464,-0.4334,-0.4331,-0.4289,-0.4167,-0.3623,-0.352,-0.3424,-0.3047,-0.2845,-0.2613,-2.9353,-2.9326,-2.9271,-2.9027,-2.866,-2.8733,-2.9145,-2.9743,-2.9882,-2.9931,-2.9905,-2.9264,-2.8695,-2.8163,-2.8144,-2.8524,-2.914,-2.913,-2.9524,-3.0215,-3.0168,-3.0125,-3.0117,-2.9915,-2.9644,-2.9334,-2.8791,-2.8391,-2.8034,-2.7014,-2.6355,-2.6054,-2.4772,-2.3846,-2.334,-2.3565,-2.3781,-2.397,-2.4237,-2.4102,-2.3558,-2.3046,-2.2609,-2.2194,-2.1759,-2.1337,-2.1033,-2.0542,-1.9713,-1.8476,-1.7798,-1.6722,-1.503,-1.4385,0.0,0.0,0.0,0.0,0.0,0.0,0.0,0.0,0.0,-0.966,-0.9904,0.0,-1.0552,0.0,-1.1321,-1.1662,-1.2007,-1.1678,0.0,0.0,-1.1195,-1.0868,-1.0661,-1.0504,-1.0333,-1.025,-1.0224,-1.0193,-1.0103,-0.9993,-0.9812,-0.94,-0.8804,-0.832,-0.8149,-0.7979,-0.7879,-0.781,-0.7582,-0.7346,-0.7136,-0.664,-0.6197,-0.6115,-0.5861,-0.5617,-0.5322,-0.5229,-0.5126,-0.4827,-0.4628,-0.4528,-0.4528,-0.4398,-0.4164,-0.3828,-0.3727,-0.3627,-0.3226,-0.3025,-0.2889,-2.9373,-2.9472,-2.9636,-2.9542,-2.9258,-2.9419,-2.9768,-3.0248,-3.0336,-3.0414,-3.043,-3.0059,-2.9664,-2.9321,-2.9308,-2.9605,-3.0077,-3.0086,-3.029,-3.0678,-3.0609,-3.0486,-3.0277,-3.0115,-2.9883,-2.9617,-2.9316,-2.9027,-2.873,-2.808,-2.7622,-2.7392,-2.6697,-2.6068,-2.5486,-2.5096,-2.4929,-2.4989,-2.4888,-2.4538,-2.3946,-2.3443,-2.3024,-2.2632,-2.2194,-2.1807,-2.1471,-2.1142,-2.0437,-1.9379,-1.8693,-1.7708,-1.6293,-1.5512,-1.4756,0.0,0.0,0.0,0.0,0.0,0.0,0.0,0.0,0.0,0.0,0.0,-1.1838,-1.244,-1.2814,-1.3079,-1.3244,-1.2955,-1.2753,-1.2759,-1.2417,-1.2036,-1.1704,-1.163,-1.1503,-1.1227,-1.1234,-1.1175,-1.096,-1.0829,-1.0649,-1.0396,-0.9882,-0.9373,-0.895,-0.8753,-0.8624,-0.8468,-0.8252,-0.7922,-0.7559,-0.7167,-0.6811,-0.6581,-0.6317,-0.6053,-0.5789,-0.5561,-0.5329,-0.5093,-0.4861,-0.4658,-0.4592,-0.4528,-0.4295,-0.3925,-0.3825,-0.3658,-0.3293,-0.3092,-0.2989,-2.9301,-2.9314,-2.956,-2.9664,-2.9729,-2.9953,-3.0102,-3.0183,-3.0187,-3.0267,-3.0396,-3.0535,-3.0614,-3.0685,-3.0711,-3.0737,-3.0786,-3.08,-3.0795,-3.0785,-3.0738,-3.0621,-3.0423,-3.0278,-3.0087,-2.9834,-2.9645,-2.9395,-2.9148,-2.8943,-2.8731,-2.8448,-2.8151,-2.7886,-2.7627,-2.6419,-2.5849,-2.6012,-2.5346,-2.4815,-2.4385,-2.3931,-2.3465,-2.3001,-2.2655,-2.2287,-2.1912,-2.164,-2.1104,-2.0335,-1.943,-1.863,-1.784,-1.6853,-1.5988,0.0,-1.4801,0.0,0.0,0.0,0.0,0.0,0.0,0.0,0.0,-1.2791,-1.3209,-1.3877,-1.4236,-1.446,-1.4387,-1.4111,-1.3833,-1.3588,-1.3286,-1.2907,-1.2383,-1.2518,-1.2467,-1.2061,-1.2126,-1.2058,-1.1771,-1.1529,-1.1247,-1.0933,-1.0769,-1.0345,-0.9658,-0.9434,-0.921,-0.8931,-0.8673,-0.8252,-0.7787,-0.7554,-0.733,-0.6872,-0.6613,-0.6416,-0.6218,-0.5855,-0.5524,-0.5425,-0.5163,-0.4864,-0.4725,-0.4658,-0.4459,-0.3992,-0.3861,-0.3692,-0.3326,-0.3125,-0.3025,-2.9257,-2.9285,-2.9423,-2.955,-2.9711,-2.9747,-2.9842,-2.998,-3.0135,-3.0273,-3.0404,-3.0493,-3.0554,-3.0625,-3.0665,-3.0739,-3.0802,-3.0784,-3.08,-3.0792,-3.0796,-3.0697,-3.0561,-3.0418,-3.0253,-3.0045,-2.9845,-2.9644,-2.9433,-2.922,-2.9019,-2.8803,-2.8576,-2.8344,-2.8077,0.0,0.0,0.0,-2.5666,-2.523,-2.4799,-2.439,-2.3967,-2.3486,-2.315,0.0,-2.2477,-2.2077,-2.154,-2.0799,-2.0247,0.0,0.0,0.0,0.0,0.0,0.0,0.0,0.0,0.0,0.0,0.0,-1.5479,-1.4925,-1.3781,-1.4381,-1.4946,-1.5064,-1.4961,-1.501,-1.5379,-1.4907,-1.4721,-1.4955,-1.4502,-1.4161,-1.4015,-1.3604,-1.3249,-1.3198,-1.2787,-1.2498,-1.2375,-1.1996,-1.1654,-1.1466,-1.131,-1.0989,-1.0586,-1.0047,-0.9632,-0.937,-0.8894,-0.8479,-0.8349,-0.7852,-0.7521,-0.733,-0.704,-0.6712,-0.6449,-0.6317,-0.6086,-0.5855,-0.5524,-0.5259,-0.5226,-0.4894,-0.4561,-0.4264,-0.3997,-0.3694,-0.3293,-0.3192,-0.3159,-2.9167,0.0,-2.9322,-2.9443,0.0,-2.9655,-2.9737,-2.9813,-2.9988,-3.0164,-3.0311,-3.0421,-3.0485,-3.0544,-3.0622,-3.0707,-3.0767,-3.0799,-3.0793,-3.08,-3.0785,-3.0756,-3.0642,-3.055,-3.0416,-3.0248,-3.0082,-2.9905,-2.9699,-2.9494,-2.9314,-2.9149,-2.8945,-2.8743,-2.8505,-2.8024,-2.7348,-2.6454,-2.6119,-2.5738,-2.5307,-2.4839,-2.4374,-2.3952,-2.3616,0.0,0.0,0.0,0.0,0.0,0.0,0.0,0.0,-1.9284,0.0,-1.8729,-1.8237,-1.7869,-1.769,-1.7387,-1.7118,-1.691,-1.6942,-1.6407,-1.5175,-1.5709,-1.6059,-1.5944,-1.5972,-1.6027,-1.612,-1.5797,-1.5605,-1.5536,-1.5186,-1.4824,-1.4529,-1.4201,-1.3863,-1.3541,-1.3255,-1.295,-1.2652,-1.2375,-1.2089,-1.1872,-1.1685,-1.1459,-1.1185,-1.0624,-1.0079,-0.9588,-0.9236,-0.8894,-0.8544,-0.8247,-0.7889,-0.7661,-0.7368,-0.7106,-0.6843,-0.6646,-0.6445,-0.6185,-0.5954,-0.5723,-0.5425,-0.5163,-0.4864,-0.44,-0.4167,-0.3928,-0.356,-0.3357,-0.3192,-2.9276,-2.937,-2.9323,-2.9332,-2.9412,-2.9598,-2.9692,-2.9726,0.0,0.0,0.0,-3.0317,-3.0425,-3.0481,-3.0558,-3.0638,-3.0688,-3.0769,-3.0794,-3.0797,-3.0799,-3.0757,-3.0721,-3.0642,-3.0557,-3.043,-3.0299,-3.0157,-2.9961,-2.976,-2.9589,-2.9472,-2.9267,-2.9067,-2.8773,-2.8268,-2.7681,-2.7002,-2.6607,-2.6226,-2.583,-2.5329,-2.4843,-2.4451,-2.4156,-2.3803,-2.3473,-2.3068,-2.2799,-2.2655,-2.1738,-2.1176,-2.1116,-2.0248,-1.9718,-1.9607,-1.9141,-1.8823,-1.8767,-1.836,-1.8069,-1.7836,-1.787,-1.7484,-1.6568,-1.6789,-1.6908,-1.6736,-1.6923,-1.6955,-1.6751,-1.6506,-1.623,-1.5856,-1.5565,-1.5177,-1.4736,-1.4519,-1.4252,-1.3782,-1.3571,-1.3329,-1.2858,-1.2683,-1.2537,-1.222,-1.1988,-1.1809,-1.156,-1.0972,-1.0364,-0.9875,-0.9588,-0.9268,-0.8829,-0.8544,-0.8349,-0.7927,-0.7722,-0.7493,-0.7265,-0.7036,-0.6773,-0.6552,-0.6379,-0.605,-0.569,-0.5458,-0.5196,-0.4631,-0.4367,-0.4233,-0.3928,-0.356,-0.3326,-3.0026,-3.0018,-2.9507,-2.9289,-2.9324,-2.9472,-2.9617,-2.9789,-2.9983,-3.0132,-3.0218,-3.0286,-3.0354,-3.0427,-3.0545,-3.0619,-3.0611,-3.0681,-3.0743,-3.0799,-3.0799,-3.0795,-3.0785,-3.0718,-3.0646,-3.0561,-3.0436,-3.0297,-3.0157,-3.0004,-2.9874,-2.9727,-2.9541,-2.9228,-2.8827,-2.8538,-2.8219,-2.784,-2.7159,-2.664,-2.6297,-2.5888,-2.5481,-2.5095,-2.4799,-2.4451,-2.4,-2.3674,-2.3348,-2.3024,-2.2606,-2.2252,-2.2021,-2.1657,-2.1403,-2.1274,-2.0866,-2.0571,-2.0435,-2.0052,-1.9636,-1.9187,-1.904,-1.8482,-1.7361,-1.7539,-1.7698,-1.7544,-1.7363,-1.725,-1.7183,-1.6744,-1.6402,-1.6259,-1.5739,-1.5352,-1.5235,-1.4824,-1.4469,-1.4321,-1.3842,-1.3502,-1.3329,-1.3011,-1.2744,-1.256,-1.2344,-1.2089,-1.1654,-1.1028,-1.0624,-1.0396,-0.9913,-0.9524,-0.9268,-0.8861,-0.8544,-0.842,-0.8117,-0.7819,-0.7526,-0.7391,-0.7232,-0.6913,-0.6618,-0.6383,-0.6218,-0.5789,-0.5425,-0.5163,-0.4764,-0.4367,-0.4233,-0.3961,-0.3694,-3.0796,-3.076,-3.016,-2.9909,-2.993,-2.9668,-2.9645,-2.9816,-2.9932,-3.0061,-3.0157,-3.0214,-3.0305,-3.039,-3.0504,-3.0574,-3.0617,-3.0665,-3.0728,-3.079,-3.0785,-3.08,-3.0795,-3.0768,-3.0699,-3.0649,-3.0546,-3.0437,-3.0319,-3.0189,-3.0049,-2.9956,-2.969,-2.9385,-2.9079,-2.8868,-2.8608,-2.8326,-2.7634,-2.7132,-2.6791,-2.6349,-2.5941,-2.5554,-2.5269,-2.4914,-2.4513,-2.4514,-2.4353,-2.4023,-2.4053,-2.3771,-2.3168,-2.2866,-2.2474,-2.1963,-2.1616,-2.135,-2.1142,-2.0698,-2.0245,-1.9849,-1.963,-1.9245,-1.8546,-1.8365,-1.8182,-1.7947,-1.7755,-1.7518,-1.7334,-1.7054,-1.6744,-1.6431,-1.6105,-1.5797,-1.5439,-1.5177,-1.4854,-1.4558,-1.4231,-1.3893,-1.3532,-1.3307,-1.3064,-1.2858,-1.2621,-1.2336,-1.2019,-1.1498,-1.1003,-1.0656,-1.0301,-0.9939,-0.9582,-0.9268,-0.8926,-0.8576,-0.8382,-0.8149,-0.7852,-0.7722,-0.7526,-0.7269,-0.7003,-0.6745,-0.6519,-0.6185,-0.5822,-0.5392,-0.5196,-0.4867,-0.4631,-0.4298,-0.3997,-3.1516,-3.156,-3.0918,-3.0704,-3.0743,-3.0321,-3.0208,-3.03,-3.0227,-3.0222,-3.0331,-3.0252,-3.0272,-3.0355,-3.0431,-3.0505,-3.0582,-3.0657,-3.0701,-3.0769,-3.0794,-3.0786,-3.08,-3.0795,-3.077,-3.0706,-3.0649,-3.0563,-3.0453,-3.0331,-3.0215,-3.0109,-2.9811,-2.958,-2.9357,-2.9174,-2.8938,-2.8663,-2.8106,-2.7622,-2.7244,-2.6791,-2.6485,-2.6262,-2.5964,-2.5686,-2.5504,-2.5602,-2.5533,-2.5212,-2.5368,-2.5071,-2.4285,-2.3999,-2.3531,-2.2828,-2.2472,-2.2104,-2.1627,-2.1061,-2.0623,-2.0372,-2.0093,-1.9837,-1.9565,-1.9146,-1.8694,-1.8317,-1.8057,-1.7799,-1.7545,-1.7362,-1.711,-1.6658,-1.647,-1.6202,-1.572,-1.5497,-1.5235,-1.4795,-1.4588,-1.4291,-1.3863,-1.3631,-1.342,-1.3103,-1.2858,-1.2621,-1.2367,-1.2027,-1.1591,-1.1035,-1.0719,-1.0396,-0.9843,-0.9582,-0.9268,-0.8765,-0.8673,-0.8474,-0.8214,-0.7959,-0.7792,-0.7624,-0.7396,-0.7134,-0.6745,-0.6548,-0.6251,-0.5789,-0.5561,-0.5395,-0.503,-0.4731,-0.4364,-3.2169,-3.2196,-3.1591,-3.1445,-3.1648,-3.1717,-3.1759,-3.1748,-3.1205,-3.0973,-3.1056,-3.0483,-3.0244,-3.0234,-3.0355,-3.0455,-3.0519,-3.0577,-3.0653,-3.0701,-3.0769,-3.0792,-3.0785,-3.08,-3.0797,-3.0776,-3.0709,-3.0671,-3.0653,-3.052,-3.0364,-3.0192,-2.9969,-2.976,-2.958,-2.9375,-2.9185,-2.8968,-2.8663,-2.8233,-2.7654,-2.7307,-2.7298,-2.7618,-2.7243,-2.7167,-2.7328,-2.7121,-2.6741,-2.6286,-2.6085,-2.5716,-2.5233,-2.5028,-2.4791,-2.4461,-2.4081,-2.3459,-2.2392,-2.1587,-2.1097,-2.0784,-2.0549,-2.0309,-2.0156,-1.9862,-1.9422,-1.8839,-1.8356,-1.8111,-1.8014,-1.7601,-1.7306,-1.7166,-1.6744,-1.6355,-1.6249,-1.5749,-1.5381,-1.5323,-1.4883,-1.4469,-1.435,-1.4031,-1.364,-1.3338,-1.3094,-1.2889,-1.2652,-1.2498,-1.2212,-1.1591,-1.1059,-1.0656,-1.0396,-0.9913,-0.9588,-0.9396,-0.9145,-0.8856,-0.8571,-0.8414,-0.8317,-0.7987,-0.7717,-0.7456,-0.7297,-0.7031,-0.6646,-0.6317,-0.602,-0.5756,-0.5425,-0.519,-0.4858,-3.299,-3.304,-3.2389,-3.198,-3.1834,-3.196,-3.2029,-3.2076,-3.1864,-3.1816,-3.1876,-3.1686,-3.1104,-3.0232,-3.0299,-3.0385,-3.045,-3.0554,-3.06,-3.0653,-3.0717,-3.075,-3.0792,-3.0784,-3.08,-3.0797,-3.0774,-3.0756,-3.0719,-3.0602,-3.043,-3.0311,-3.0145,-2.9988,-2.9796,-2.957,-2.9385,-2.9185,-2.895,-2.8869,-2.8877,-2.8461,-2.8187,-2.8168,-2.823,-2.8219,-2.8129,-2.8093,-2.7885,-2.7462,-2.7511,-2.7194,-2.6356,-2.6183,-2.5788,-2.5111,-2.4614,-2.4066,-2.3451,-2.2961,-2.2557,-2.2303,-2.1701,-2.1235,-2.0953,-2.0399,-1.9837,-1.9422,-1.8922,-1.8533,-1.8236,-1.7947,-1.7684,-1.7462,-1.7127,-1.6846,-1.662,-1.6249,-1.5923,-1.57,-1.5294,-1.4981,-1.4784,-1.4369,-1.3941,-1.364,-1.3398,-1.3216,-1.3033,-1.2858,-1.259,-1.222,-1.1778,-1.1279,-1.0839,-1.0428,-1.0072,-0.9817,-0.9524,-0.9204,-0.9017,-0.8765,-0.8576,-0.8344,-0.8079,-0.7847,-0.7624,-0.7461,-0.7171,-0.6843,-0.6453,-0.6156,-0.602,-0.5756,-0.5491,-3.3404,-3.3472,-3.3085,-3.2729,-3.2412,-3.2538,-3.266,-3.2699,-3.2634,-3.2647,-3.2665,-3.26,-3.1949,-3.0947,-3.0714,-3.0548,-3.0404,-3.0493,-3.0564,-3.0591,-3.0657,-3.0698,-3.0767,-3.079,-3.0784,-3.0799,-3.0798,-3.0794,-3.0779,-3.0633,-3.0511,-3.0436,-3.0311,-3.0171,-2.9988,-2.9777,-2.9589,-2.9367,-2.9195,-2.9354,-2.9771,-2.9619,-2.9343,-2.919,-2.935,-2.9331,-2.9154,-2.921,-2.9027,-2.8586,-2.8791,-2.8475,-2.7539,-2.7311,-2.6787,-2.5898,-2.5281,-2.4808,-2.4484,-2.4075,-2.3747,-2.3435,-2.2769,-2.2269,-2.1929,-2.1303,-2.0707,-2.0283,-1.9828,-1.9366,-1.8587,-1.8356,-1.8084,-1.7728,-1.7518,-1.7267,-1.6987,-1.6687,-1.6392,-1.6056,-1.571,-1.542,-1.5088,-1.4704,-1.4339,-1.4031,-1.3821,-1.361,-1.345,-1.3186,-1.295,-1.2744,-1.2436,-1.1903,-1.1178,-1.0839,-1.0586,-1.0301,-0.997,-0.9684,-0.9536,-0.9247,-0.8964,-0.8829,-0.8565,-0.8371,-0.8182,-0.7992,-0.7764,-0.7335,-0.6942,-0.6745,-0.6712,-0.6449,-0.6284,-3.3226,-3.3437,-3.3648,-3.3753,-3.3876,-3.3975,-3.4132,-3.4098,-3.3602,-3.3397,-3.3364,-3.2787,-3.2448,-3.2395,-3.1804,-3.1053,-3.0419,-3.0442,-3.0521,-3.0593,-3.0615,-3.0649,-3.0698,-3.0764,-3.0788,-3.0783,-3.0799,-3.0791,-3.0786,-3.0724,-3.0607,-3.0511,-3.0417,-3.0337,-3.0178,-2.9977,-2.9796,-2.9589,-2.9451,-2.9639,-3.0186,-3.0612,-3.0885,-3.098,-3.0716,-3.0634,-3.0813,-3.0595,-3.0192,-2.9707,-2.9534,-2.9189,-2.867,-2.8354,-2.7856,-2.7113,-2.6484,-2.5896,-2.5383,-2.4767,-2.4267,-2.3931,-2.3556,-2.3253,-2.3161,-2.2644,-2.2062,-2.1459,-2.1106,-2.044,-1.9279,-1.881,-1.8464,-1.8111,-1.7838,-1.7601,-1.7334,-1.7043,-1.6687,-1.6431,-1.6095,-1.571,-1.5264,-1.5068,-1.4813,-1.4538,-1.43,-1.4061,-1.3821,-1.3601,-1.3368,-1.3072,-1.2775,-1.2344,-1.1716,-1.131,-1.1028,-1.08,-1.0548,-1.0206,-1.0015,-0.983,-0.96,-0.9344,-0.9145,-0.8952,-0.877,-0.8576,-0.8317,-0.7987,-0.7661,-0.7461,-0.7428,-0.7265,-0.7101,-3.3253,-3.3534,-3.3726,-3.3842,-3.3947,-3.4105,-3.4215,-3.4274,-3.4206,-3.4172,-3.4179,-3.4055,-3.375,-3.328,-3.3102,-3.2343,-3.1207,-3.1168,-3.092,-3.0548,-3.0564,-3.06,-3.0626,-3.0695,-3.0764,-3.0788,-3.0783,-3.0801,-3.0786,-3.0779,-3.072,-3.0607,-3.0535,-3.0422,-3.0318,-3.0178,-2.9996,-2.9861,-3.0124,-3.0596,-3.1115,-3.1708,-3.2159,-3.2489,-3.198,-3.1636,-3.1543,-3.112,-3.0683,-3.0279,-3.0044,-2.9716,-2.9227,-2.8787,-2.831,-2.777,-2.7485,-2.7126,-2.6605,-2.6224,-2.5848,-2.5455,-2.4775,-2.4303,-2.4049,-2.3485,-2.287,-2.2459,-2.2101,-2.1441,-2.0493,-1.9617,-1.896,-1.861,-1.8383,-1.8166,-1.7849,-1.7573,-1.7267,-1.697,-1.6524,-1.6077,-1.5749,-1.5546,-1.5323,-1.5029,-1.4823,-1.4606,-1.43,-1.4061,-1.3851,-1.3549,-1.3307,-1.3033,-1.259,-1.1926,-1.149,-1.1365,-1.1146,-1.0895,-1.0681,-1.0466,-1.0206,-0.9913,-0.969,-0.953,-0.9376,-0.9087,-0.8829,-0.8732,-0.8404,-0.8236,-0.8149,-0.8042,-0.7912,-3.3298,-3.3591,-3.3698,-3.3788,-3.3926,-3.4074,-3.4161,-3.4221,-3.4409,-3.4547,-3.4634,-3.4771,-3.4557,-3.4167,-3.4226,-3.3592,-3.2352,-3.1834,-3.1302,-3.0804,-3.0625,-3.0564,-3.0591,-3.0653,-3.0711,-3.0747,-3.0803,-3.0798,-3.0793,-3.0783,-3.0762,-3.0724,-3.0611,-3.0516,-3.0428,-3.0324,-3.0159,-3.0117,-3.0381,-3.094,-3.1741,-3.2132,-3.2698,-3.3255,-3.2908,-3.2403,-3.1966,-3.1543,-3.1103,-3.0757,-3.051,-3.0135,-2.9627,-2.9182,-2.8716,-2.8301,-2.8229,-2.8024,-2.7524,-2.728,-2.7008,-2.6602,-2.5887,-2.5327,-2.5112,-2.4471,-2.3944,-2.3514,-2.3219,-2.2697,-2.1746,-2.0822,-1.9932,-1.9218,-1.8919,-1.8694,-1.8317,-1.8084,-1.781,-1.7434,-1.6931,-1.6524,-1.6257,-1.6095,-1.5846,-1.5498,-1.5342,-1.5167,-1.4804,-1.4577,-1.4369,-1.4121,-1.3821,-1.358,-1.3277,-1.2781,-1.2166,-1.195,-1.174,-1.149,-1.131,-1.109,-1.0839,-1.0516,-1.0326,-1.0168,-0.9913,-0.962,-0.9466,-0.9402,-0.9268,-0.9069,-0.8973,-0.8877,-0.8748,-3.3298,-3.3591,-3.3605,-3.3744,-3.3881,-3.3972,-3.4068,-3.4185,-3.4288,-3.4409,-3.4572,-3.4658,-3.4733,-3.4832,-3.4887,-3.4584,-3.3711,-3.2448,-3.1706,-3.1442,-3.081,-3.0543,-3.0593,-3.0591,-3.0634,-3.0704,-3.0773,-3.0791,-3.0801,-3.0792,-3.0786,-3.0801,-3.0727,-3.0634,-3.0501,-3.0428,-3.0324,-3.0223,-3.0174,-3.074,-3.1897,-3.1994,-3.2532,-3.3605,-3.3451,-3.297,-3.2335,-3.1984,-3.1579,-3.1162,-3.0925,-3.0502,-2.9924,-2.9611,-2.9266,-2.8811,-2.8708,-2.847,-2.8057,-2.7735,-2.7499,-2.7178,-2.6654,-2.6236,-2.6169,-2.5792,-2.5284,-2.4706,-2.4434,-2.3986,-2.3031,-2.2351,-2.1316,-1.9779,-1.947,-1.9198,-1.8774,-1.8587,-1.8371,-1.781,-1.7301,-1.6994,-1.6835,-1.6666,-1.64,-1.6056,-1.5912,-1.5739,-1.5313,-1.5117,-1.4931,-1.4686,-1.4389,-1.41,-1.3911,-1.3662,-1.3086,-1.2566,-1.2297,-1.205,-1.1926,-1.174,-1.1522,-1.1264,-1.1083,-1.0919,-1.0706,-1.0446,-1.0326,-1.0231,-1.0066,-0.9932,-0.9837,-0.9735,-0.9671,-3.3298,-3.3573,-3.3605,-3.3666,-3.3834,-3.3913,-3.3985,-3.4074,-3.4185,-3.4316,-3.4473,-3.4591,-3.4728,-3.484,-3.4927,-3.4895,-3.4721,-3.3662,-3.2627,-3.1725,-3.1327,-3.0951,-3.0576,-3.0564,-3.0645,-3.0695,-3.0779,-3.0785,-3.0792,-3.0801,-3.0793,-3.0786,-3.0784,-3.0727,-3.0638,-3.0525,-3.0414,-3.0388,-3.0732,-3.1412,-3.227,-3.2639,-3.3216,-3.3926,-3.3784,-3.3422,-3.3001,-3.2453,-3.2002,-3.1657,-3.1393,-3.0982,-3.0389,-3.0087,-2.9738,-2.9335,-2.9243,-2.902,-2.8527,-2.8222,-2.7993,-2.771,-2.7229,-2.6959,-2.6867,-2.6525,-2.6131,-2.5758,-2.5557,-2.5064,-2.4256,-2.3822,-2.2751,-2.0794,-2.0218,-1.9797,-1.933,-1.896,-1.8625,-1.8356,-1.7826,-1.7507,-1.7396,-1.7228,-1.6909,-1.6637,-1.6524,-1.6353,-1.5912,-1.571,-1.5536,-1.5323,-1.4951,-1.4666,-1.4567,-1.441,-1.3992,-1.345,-1.3086,-1.2758,-1.2605,-1.2421,-1.2228,-1.2011,-1.1864,-1.1677,-1.1459,-1.1303,-1.1178,-1.1021,-1.0888,-1.0787,-1.0692,-1.0661,-1.0654,-3.3268,-3.3549,-3.3591,-3.3657,-3.378,-3.3855,-3.3921,-3.3972,-3.4111,-3.4221,-3.4358,-3.4495,-3.4626,-3.4732,-3.4841,-3.4955,-3.5035,-3.4562,-3.367,-3.2464,-3.1764,-3.1327,-3.0835,-3.0631,-3.0623,-3.068,-3.0736,-3.0767,-3.0789,-3.0792,-3.0801,-3.0793,-3.0786,-3.0769,-3.0739,-3.0645,-3.0539,-3.0557,-3.0829,-3.151,-3.2349,-3.2817,-3.34,-3.4165,-3.4093,-3.3837,-3.3522,-3.305,-3.257,-3.2144,-3.1765,-3.1276,-3.076,-3.0531,-3.0236,-2.9886,-2.9732,-2.9538,-2.9059,-2.8811,-2.8535,-2.8253,-2.786,-2.7585,-2.7433,-2.7111,-2.6837,-2.6709,-2.6443,-2.6034,-2.5466,-2.4998,-2.4128,-2.2763,-2.1549,-2.063,-1.9989,-1.9434,-1.9105,-1.8854,-1.8467,-1.8193,-1.8002,-1.7799,-1.7496,-1.7273,-1.7172,-1.7004,-1.6599,-1.6343,-1.6171,-1.596,-1.5652,-1.5449,-1.5313,-1.5098,-1.4854,-1.441,-1.3962,-1.361,-1.3368,-1.3186,-1.2964,-1.2781,-1.2597,-1.2466,-1.2282,-1.2189,-1.2066,-1.188,-1.1825,-1.1841,-1.1865,-1.1779,-1.1741,-3.3271,-3.3491,-3.3577,-3.3647,-3.3726,-3.3829,-3.3895,-3.3921,-3.4036,-3.4136,-3.4245,-3.4416,-3.4528,-3.4626,-3.4791,-3.4889,-3.4936,-3.5044,-3.4683,-3.367,-3.263,-3.1808,-3.1441,-3.0997,-3.0742,-3.0629,-3.0683,-3.0725,-3.0776,-3.0789,-3.0791,-3.0801,-3.0793,-3.0792,-3.0782,-3.0751,-3.0651,-3.0602,-3.051,-3.1205,-3.2579,-3.2564,-3.3157,-3.4494,-3.442,-3.4197,-3.3934,-3.3625,-3.319,-3.2539,-3.1966,-3.1543,-3.1181,-3.0928,-3.0658,-3.03,-3.0253,-3.0,-2.9649,-2.9403,-2.9159,-2.8834,-2.8496,-2.8255,-2.8052,-2.778,-2.753,-2.7423,-2.7163,-2.6901,-2.6599,-2.615,-2.5475,-2.4803,-2.2988,-2.1545,-2.045,-2.0042,-1.9759,-1.9486,-1.9225,-1.8934,-1.8667,-1.8467,-1.8224,-1.7991,-1.781,-1.7617,-1.7329,-1.7067,-1.6835,-1.6599,-1.6371,-1.6161,-1.6017,-1.5865,-1.5652,-1.5468,-1.503,-1.4647,-1.421,-1.3941,-1.3821,-1.3571,-1.3442,-1.3282,-1.3191,-1.3161,-1.31,-1.3009,-1.3009,-1.307,-1.3009,-1.2909,-1.2879,-3.3238,-3.3491,-3.3577,-3.3647,-3.3712,-3.3775,-3.3855,-3.3908,-3.3967,-3.4086,-3.4209,-3.4305,-3.445,-3.4583,-3.4708,-3.4801,-3.4908,-3.5038,-3.5098,-3.4748,-3.3873,-3.2664,-3.1802,-3.1482,-3.1109,-3.0694,-3.0649,-3.0683,-3.0722,-3.0774,-3.0788,-3.079,-3.0801,-3.0795,-3.08,-3.0786,-3.0742,-3.0672,-3.0575,-3.1279,-3.2525,-3.2699,-3.3372,-3.469,-3.4675,-3.4483,-3.4257,-3.3881,-3.3368,-3.2702,-3.2318,-3.1985,-3.1694,-3.1449,-3.1179,-3.0885,-3.0703,-3.0535,-3.0241,-2.9984,-2.9744,-2.9522,-2.9166,-2.8889,-2.8818,-2.8463,-2.8207,-2.8076,-2.7904,-2.771,-2.7373,-2.7098,-2.6434,-2.505,-2.3631,-2.2203,-2.1278,-2.0759,-2.0447,-2.0169,-1.9837,-1.9526,-1.9265,-1.9054,-1.8869,-1.8614,-1.8464,-1.8317,-1.8061,-1.7788,-1.7579,-1.7368,-1.7134,-1.6927,-1.6729,-1.6609,-1.6495,-1.6467,-1.6171,-1.5816,-1.5264,-1.4765,-1.4656,-1.4508,-1.449,-1.4382,-1.4302,-1.4252,-1.4192,-1.4154,-1.4154,-1.4145,-1.4124,-1.4034,-1.4064,-3.3226,-3.3422,-3.3567,-3.3633,-3.3657,-3.3748,-3.3834,-3.3873,-3.3921,-3.4023,-3.4124,-3.4203,-3.4351,-3.4498,-3.4623,-3.4728,-3.485,-3.4964,-3.5047,-3.5107,-3.4721,-3.3652,-3.243,-3.1884,-3.1441,-3.1115,-3.0756,-3.0641,-3.0685,-3.0731,-3.0772,-3.0788,-3.0791,-3.08,-3.0799,-3.0785,-3.078,-3.0726,-3.0691,-3.1266,-3.2362,-3.2697,-3.3398,-3.4413,-3.4688,-3.4763,-3.4509,-3.4161,-3.363,-3.3063,-3.2718,-3.2437,-3.2162,-3.1966,-3.1675,-3.1376,-3.1242,-3.1083,-3.0784,-3.0559,-3.0351,-3.0135,-2.981,-2.9639,-2.9461,-2.9196,-2.8973,-2.8873,-2.8693,-2.8455,-2.8231,-2.8021,-2.7315,-2.6207,-2.4785,-2.3402,-2.2009,-2.1565,-2.1226,-2.0883,-2.0573,-2.0271,-1.9939,-1.9747,-1.9552,-1.9356,-1.9146,-1.9001,-1.8842,-1.8575,-1.8333,-1.817,-1.7991,-1.7804,-1.7639,-1.7473,-1.7374,-1.7346,-1.729,-1.6944,-1.6407,-1.5796,-1.5604,-1.5546,-1.5517,-1.5478,-1.542,-1.5391,-1.5332,-1.5294,-1.5274,-1.5245,-1.5245,-1.5235,-1.5235,-3.3165,-3.3325,-3.3524,-3.3605,-3.3615,-3.3739,-3.3807,-3.382,-3.3868,-3.3934,-3.4011,-3.4136,-3.4257,-3.4393,-3.4536,-3.4655,-3.4788,-3.487,-3.5001,-3.5119,-3.5021,-3.4408,-3.333,-3.2513,-3.2094,-3.1821,-3.1096,-3.0871,-3.0878,-3.0814,-3.0725,-3.0772,-3.0785,-3.0786,-3.0798,-3.08,-3.0793,-3.0795,-3.0741,-3.115,-3.1942,-3.2479,-3.317,-3.4138,-3.4835,-3.4953,-3.4732,-3.4435,-3.4062,-3.3462,-3.3205,-3.2912,-3.2622,-3.2454,-3.2197,-3.1913,-3.177,-3.1584,-3.13,-3.1203,-3.1024,-3.0723,-3.0617,-3.0468,-3.0182,-2.9951,-2.9821,-2.9667,-2.9393,-2.9234,-2.9097,-2.8842,-2.8295,-2.7419,-2.6535,-2.4987,-2.3281,-2.2477,-2.21,-2.1616,-2.1423,-2.1142,-2.0784,-2.0485,-2.0296,-2.0144,-1.9927,-1.9747,-1.9618,-1.941,-1.92,-1.9042,-1.8869,-1.8709,-1.8536,-1.8402,-1.8321,-1.824,-1.8267,-1.8038,-1.76,-1.709,-1.6754,-1.6595,-1.6613,-1.6574,-1.6546,-1.65,-1.65,-1.65,-1.6489,-1.6489,-1.6489,-1.6489,-1.6489,-3.314,-3.3307,-3.3452,-3.3567,-3.3605,-3.3703,-3.3753,-3.382,-3.3868,-3.3895,-3.3947,-3.4043,-3.4173,-3.4276,-3.4439,-3.458,-3.4676,-3.4821,-3.5001,-3.5164,-3.5208,-3.5141,-3.4569,-3.3848,-3.3237,-3.2665,-3.1899,-3.155,-3.1447,-3.103,-3.0711,-3.0719,-3.0769,-3.0803,-3.0801,-3.0796,-3.0801,-3.0797,-3.0781,-3.1139,-3.1729,-3.2105,-3.287,-3.416,-3.4927,-3.5114,-3.4954,-3.4724,-3.4494,-3.4203,-3.3784,-3.3408,-3.3142,-3.286,-3.2666,-3.2517,-3.23,-3.2144,-3.2038,-3.1859,-3.1674,-3.1452,-3.13,-3.1125,-3.0888,-3.0686,-3.0543,-3.0377,-3.0187,-2.9995,-2.9837,-2.9639,-2.9185,-2.8467,-2.7566,-2.6556,-2.5292,-2.3886,-2.2934,-2.2498,-2.2212,-2.1931,-2.1602,-2.1299,-2.1104,-2.0944,-2.0746,-2.0535,-2.0384,-2.0232,-2.008,-1.9952,-1.9786,-1.9644,-1.9567,-1.9425,-1.9359,-1.9281,-1.9281,-1.9321,-1.8888,-1.8463,-1.8209,-1.7922,-1.7727,-1.7715,-1.7759,-1.7731,-1.7759,-1.7743,-1.7754,-1.7759,-1.7759,-1.7743,-1.777,-3.306,-3.3214,-3.3378,-3.3506,-3.3587,-3.3671,-3.3739,-3.3807,-3.3847,-3.3868,-3.3908,-3.3967,-3.4092,-3.4191,-3.4316,-3.4431,-3.4615,-3.4811,-3.4983,-3.5092,-3.5155,-3.5225,-3.5218,-3.4856,-3.4258,-3.3474,-3.2703,-3.2196,-3.1763,-3.1432,-3.1053,-3.068,-3.0739,-3.0762,-3.0794,-3.0798,-3.0795,-3.0801,-3.0797,-3.1017,-3.1377,-3.1821,-3.2734,-3.4192,-3.5013,-3.5324,-3.517,-3.5032,-3.4908,-3.4723,-3.4394,-3.3999,-3.3675,-3.3404,-3.324,-3.3087,-3.2905,-3.275,-3.2635,-3.252,-3.2317,-3.2127,-3.2021,-3.1841,-3.1658,-3.1452,-3.1338,-3.1184,-3.0988,-3.0747,-3.0543,-3.046,-3.0112,-2.963,-2.8611,-2.7715,-2.6893,-2.5196,-2.3721,-2.3391,-2.3084,-2.2793,-2.2475,-2.2175,-2.1955,-2.1809,-2.1595,-2.1403,-2.1299,-2.1153,-2.1006,-2.0883,-2.0733,-2.0633,-2.0559,-2.0509,-2.0459,-2.0408,-2.037,-2.0496,-2.042,-2.0042,-1.9684,-1.9322,-1.8955,-1.9059,-1.9099,-1.9059,-1.9073,-1.9125,-1.9125,-1.9099,-1.9099,-1.9113,-1.9139,-3.2945,-3.3086,-3.3304,-3.3452,-3.3577,-3.3643,-3.3712,-3.378,-3.3788,-3.3829,-3.3868,-3.3895,-3.4011,-3.4148,-3.4197,-3.4351,-3.4594,-3.4781,-3.4917,-3.4982,-3.5129,-3.5191,-3.5187,-3.51,-3.491,-3.4293,-3.3519,-3.2819,-3.2414,-3.1985,-3.1627,-3.097,-3.0886,-3.0905,-3.083,-3.0788,-3.0796,-3.0793,-3.08,-3.0818,-3.0943,-3.1484,-3.2514,-3.3938,-3.4822,-3.5317,-3.5355,-3.5297,-3.5205,-3.5144,-3.4962,-3.4634,-3.4272,-3.3967,-3.381,-3.3625,-3.3458,-3.3346,-3.3243,-3.3142,-3.2988,-3.275,-3.2734,-3.2603,-3.2403,-3.2248,-3.2127,-3.1986,-3.1771,-3.1531,-3.1338,-3.1302,-3.1227,-3.0842,-2.9768,-2.8928,-2.8177,-2.6467,-2.5302,-2.4333,-2.4023,-2.3728,-2.3405,-2.3121,-2.2891,-2.268,-2.246,-2.23,-2.2212,-2.2133,-2.2002,-2.1931,-2.1795,-2.1758,-2.171,-2.1687,-2.1629,-2.1592,-2.1558,-2.1663,-2.1842,-2.1602,-2.1191,-2.0544,-2.0257,-2.0357,-2.042,-2.0432,-2.0445,-2.0496,-2.0483,-2.0444,-2.0457,-2.0483,-2.0495,-3.2852,-3.2945,-3.3216,-3.3349,-3.3452,-3.3563,-3.3657,-3.3726,-3.378,-3.382,-3.3834,-3.3868,-3.3947,-3.4049,-3.4161,-3.4358,-3.4591,-3.4749,-3.484,-3.4917,-3.5057,-3.5129,-3.5172,-3.5204,-3.5135,-3.4967,-3.4361,-3.3827,-3.35,-3.3122,-3.238,-3.1768,-3.1683,-3.1464,-3.0934,-3.0725,-3.0839,-3.0789,-3.0789,-3.0799,-3.0859,-3.118,-3.1893,-3.3426,-3.4307,-3.4993,-3.5476,-3.5502,-3.5425,-3.5353,-3.525,-3.5133,-3.4906,-3.4494,-3.4265,-3.4148,-3.3986,-3.3858,-3.3818,-3.3698,-3.3578,-3.3419,-3.3357,-3.3255,-3.3075,-3.2952,-3.284,-3.2713,-3.2567,-3.2384,-3.2214,-3.2161,-3.2092,-3.1742,-3.1116,-3.0213,-2.9386,-2.822,-2.6837,-2.5672,-2.5131,-2.4677,-2.4399,-2.4138,-2.3909,-2.3719,-2.3548,-2.3354,-2.3231,-2.3157,-2.3091,-2.3002,-2.2935,-2.2935,-2.2913,-2.2898,-2.2862,-2.2869,-2.2847,-2.2922,-2.304,-2.3069,-2.2719,-2.2209,-2.1759,-2.1635,-2.1697,-2.1767,-2.1801,-2.1834,-2.1824,-2.1801,-2.1857,-2.1876,-2.1867,-3.2771,-3.2916,-3.3122,-3.3274,-3.3408,-3.3509,-3.3605,-3.368,-3.3739,-3.3766,-3.3807,-3.3829,-3.3881,-3.3959,-3.4049,-3.4257,-3.4506,-3.4645,-3.4769,-3.4879,-3.4964,-3.5029,-3.512,-3.5162,-3.5196,-3.5149,-3.4902,-3.4482,-3.4145,-3.3814,-3.3151,-3.2568,-3.2459,-3.21,-3.1491,-3.1375,-3.1109,-3.0932,-3.0804,-3.0805,-3.0857,-3.1151,-3.2014,-3.2697,-3.3858,-3.4736,-3.5063,-3.557,-3.5626,-3.5595,-3.5543,-3.5451,-3.5292,-3.5116,-3.4831,-3.4666,-3.4464,-3.436,-3.4337,-3.4225,-3.4105,-3.4,-3.3931,-3.3841,-3.3697,-3.3602,-3.351,-3.335,-3.3263,-3.3148,-3.2996,-3.2981,-3.2916,-3.2693,-3.2092,-3.1248,-3.0341,-2.944,-2.8219,-2.694,-2.6284,-2.5809,-2.5433,-2.5189,-2.4957,-2.476,-2.4605,-2.444,-2.4277,-2.422,-2.4184,-2.4122,-2.4066,-2.4086,-2.4086,-2.4107,-2.4092,-2.4086,-2.4107,-2.4189,-2.4251,-2.4312,-2.4317,-2.4092,-2.367,-2.3185,-2.304,-2.312,-2.315,-2.3193,-2.3229,-2.3258,-2.3273,-2.3287,-2.3273,-3.269,-3.2868,-3.3011,-3.3165,-3.3349,-3.3452,-3.3567,-3.3647,-3.3671,-3.3712,-3.378,-3.3793,-3.3834,-3.3908,-3.4023,-3.4209,-3.4473,-3.4569,-3.4708,-3.4849,-3.4908,-3.4936,-3.502,-3.5101,-3.5172,-3.5189,-3.5155,-3.494,-3.456,-3.4407,-3.3922,-3.3416,-3.3288,-3.2908,-3.228,-3.2171,-3.1683,-3.1259,-3.1001,-3.1014,-3.1022,-3.1445,-3.195,-3.2123,-3.3479,-3.4202,-3.4727,-3.5132,-3.5593,-3.5709,-3.5741,-3.5688,-3.5586,-3.5549,-3.5432,-3.5163,-3.4942,-3.4841,-3.4803,-3.4725,-3.4615,-3.4513,-3.4481,-3.4375,-3.4292,-3.4169,-3.4092,-3.3944,-3.3893,-3.3854,-3.3732,-3.3697,-3.3683,-3.3533,-3.2985,-3.2173,-3.1232,-3.0321,-2.9465,-2.8393,-2.7522,-2.6931,-2.6538,-2.6216,-2.5991,-2.5812,-2.5651,-2.5538,-2.5373,-2.5314,-2.5295,-2.5223,-2.5204,-2.5223,-2.526,-2.5282,-2.5285,-2.5303,-2.5322,-2.5378,-2.5468,-2.5558,-2.5562,-2.5568,-2.5385,-2.4946,-2.4713,-2.4478,-2.4511,-2.4571,-2.4622,-2.4662,-2.467,-2.4709,-2.4713,-3.2556,-3.2655,-3.2834,-3.3011,-3.3165,-3.3316,-3.3452,-3.3538,-3.3591,-3.3661,-3.3712,-3.3726,-3.3775,-3.3908,-3.4086,-3.4221,-3.4351,-3.4506,-3.4655,-3.4788,-3.4869,-3.4936,-3.5001,-3.5075,-3.5101,-3.5129,-3.5119,-3.5157,-3.5001,-3.5025,-3.4757,-3.4172,-3.402,-3.371,-3.3014,-3.2977,-3.2576,-3.1992,-3.1838,-3.1498,-3.0994,-3.1001,-3.1401,-3.1913,-3.2461,-3.3161,-3.4249,-3.4687,-3.5121,-3.5732,-3.5848,-3.5839,-3.5788,-3.5767,-3.5745,-3.5611,-3.5424,-3.5224,-3.5224,-3.513,-3.5045,-3.4947,-3.4912,-3.4878,-3.4775,-3.4717,-3.4637,-3.4612,-3.4582,-3.4502,-3.437,-3.4364,-3.4349,-3.4274,-3.4015,-3.3089,-3.2121,-3.1381,-3.0502,-2.9565,-2.8633,-2.8072,-2.7632,-2.7328,-2.7039,-2.6865,-2.672,-2.6605,-2.6505,-2.6438,-2.6404,-2.6354,-2.637,-2.6387,-2.6404,-2.6437,-2.6437,-2.6471,-2.6537,-2.657,-2.6635,-2.6732,-2.683,-2.6812,-2.6683,-2.6519,-2.6168,-2.5961,-2.5922,-2.5886,-2.5889,-2.5974,-2.6059,-2.6076,-2.6061,-3.2422,-3.2574,-3.2804,-3.2932,-3.3026,-3.3229,-3.3382,-3.3452,-3.3524,-3.3577,-3.3629,-3.3684,-3.3762,-3.3908,-3.4036,-3.4136,-3.4276,-3.4427,-3.455,-3.4687,-3.479,-3.4869,-3.4946,-3.4992,-3.5029,-3.5038,-3.5075,-3.5138,-3.5196,-3.5215,-3.5021,-3.4882,-3.4831,-3.452,-3.3836,-3.3801,-3.3335,-3.276,-3.2236,-3.1837,-3.1461,-3.1102,-3.0987,-3.1366,-3.1825,-3.2515,-3.3221,-3.4297,-3.4745,-3.5307,-3.5593,-3.5936,-3.5882,-3.5851,-3.5862,-3.5824,-3.5726,-3.5611,-3.5529,-3.5456,-3.5387,-3.5347,-3.5294,-3.524,-3.5189,-3.5151,-3.5105,-3.504,-3.504,-3.4988,-3.4899,-3.4893,-3.4876,-3.4821,-3.4775,-3.4074,-3.3138,-3.242,-3.16,-3.0659,-2.9758,-2.9171,-2.8656,-2.8342,-2.8034,-2.782,-2.7695,-2.7582,-2.7542,-2.7517,-2.7502,-2.7505,-2.7546,-2.7585,-2.7582,-2.7579,-2.7565,-2.7579,-2.767,-2.7715,-2.7779,-2.7869,-2.7906,-2.7978,-2.7906,-2.7725,-2.7501,-2.7228,-2.6985,-2.7035,-2.7132,-2.7145,-2.7159,-2.7222,-2.7217,-3.2266,-3.2456,-3.2705,-3.2852,-3.2916,-3.3155,-3.3292,-3.3382,-3.3441,-3.3509,-3.3591,-3.3675,-3.3766,-3.3842,-3.3934,-3.4049,-3.4185,-3.4335,-3.4461,-3.4594,-3.4737,-3.4848,-3.4898,-3.4946,-3.4964,-3.4964,-3.5011,-3.5057,-3.5092,-3.5107,-3.5166,-3.5269,-3.5231,-3.5042,-3.4732,-3.4551,-3.4254,-3.3476,-3.2737,-3.2259,-3.1871,-3.1418,-3.1057,-3.1094,-3.1379,-3.184,-3.2302,-3.3457,-3.4287,-3.4858,-3.5544,-3.5937,-3.5898,-3.5877,-3.5914,-3.5909,-3.5876,-3.5834,-3.5762,-3.5698,-3.5668,-3.5631,-3.5631,-3.5542,-3.5507,-3.5477,-3.5461,-3.539,-3.539,-3.536,-3.5348,-3.531,-3.529,-3.527,-3.5243,-3.4697,-3.4054,-3.3111,-3.2213,-3.1259,-3.0472,-3.0054,-2.9615,-2.9326,-2.9054,-2.878,-2.8637,-2.8554,-2.85,-2.8458,-2.844,-2.8415,-2.8463,-2.8522,-2.8552,-2.8564,-2.8581,-2.8608,-2.8691,-2.8739,-2.8713,-2.8743,-2.8806,-2.8898,-2.8941,-2.8886,-2.8647,-2.8318,-2.8031,-2.8062,-2.811,-2.8185,-2.8211,-2.8286,-2.8281,-3.2144,-3.2249,-3.2506,-3.2721,-3.29,-3.2963,-3.314,-3.3295,-3.3325,-3.3393,-3.352,-3.3629,-3.3703,-3.3753,-3.3855,-3.3967,-3.4111,-3.4245,-3.4397,-3.4591,-3.4737,-3.4827,-3.4868,-3.4898,-3.4917,-3.4917,-3.4955,-3.4993,-3.4992,-3.5011,-3.51,-3.5201,-3.5242,-3.5308,-3.5266,-3.5155,-3.4949,-3.4232,-3.3514,-3.277,-3.2349,-3.1914,-3.1573,-3.0917,-3.089,-3.1193,-3.2038,-3.3024,-3.3813,-3.4464,-3.5406,-3.5903,-3.5879,-3.5882,-3.5907,-3.5932,-3.5954,-3.5918,-3.5855,-3.5841,-3.5838,-3.58,-3.5768,-3.5759,-3.5713,-3.568,-3.567,-3.5647,-3.5624,-3.564,-3.5648,-3.5655,-3.5612,-3.5579,-3.5484,-3.5175,-3.4463,-3.349,-3.26,-3.1753,-3.1081,-3.0496,-3.0293,-2.9976,-2.9726,-2.9448,-2.9335,-2.9252,-2.9223,-2.9185,-2.9242,-2.9261,-2.9326,-2.9354,-2.9382,-2.938,-2.9348,-2.9365,-2.9401,-2.9468,-2.9489,-2.9544,-2.9532,-2.9559,-2.9555,-2.9677,-2.9731,-2.9289,-2.9016,-2.9032,-2.9037,-2.8984,-2.8995,-2.9005,-2.9034,-3.2055,-3.2161,-3.2388,-3.2557,-3.2721,-3.2866,-3.3013,-3.3122,-3.3247,-3.3382,-3.3491,-3.3549,-3.3615,-3.3712,-3.3793,-3.3908,-3.4049,-3.4185,-3.4328,-3.4484,-3.4612,-3.4737,-3.4809,-3.4878,-3.4917,-3.4889,-3.4898,-3.4907,-3.4927,-3.4936,-3.4955,-3.5019,-3.5124,-3.5207,-3.5304,-3.5439,-3.5303,-3.5025,-3.4367,-3.3659,-3.3476,-3.2826,-3.2279,-3.1522,-3.1448,-3.1287,-3.1488,-3.2607,-3.3297,-3.4062,-3.5162,-3.5644,-3.5833,-3.5836,-3.5868,-3.5923,-3.5929,-3.5917,-3.5914,-3.5898,-3.5872,-3.5887,-3.5864,-3.5862,-3.5841,-3.5821,-3.5817,-3.5815,-3.5814,-3.5793,-3.5804,-3.5818,-3.5814,-3.5812,-3.5689,-3.5466,-3.491,-3.3968,-3.3161,-3.2396,-3.1459,-3.0636,-3.0575,-3.0545,-3.0309,-3.0083,-3.0011,-2.9926,-2.9874,-2.9829,-2.983,-2.9838,-2.9871,-2.9896,-2.9928,-3.0003,-3.0083,-3.0058,-3.0058,-3.004,-3.0028,-3.0098,-3.009,-3.0129,-3.0123,-3.0146,-3.011,-3.0043,-2.9882,-2.9666,-2.9639,-2.9666,-2.9666,-2.9666,-2.9666,-3.1984,-3.2108,-3.2284,-3.2439,-3.2573,-3.2787,-3.29,-3.2979,-3.3137,-3.3307,-3.3437,-3.3466,-3.3534,-3.3657,-3.3739,-3.3829,-3.3972,-3.4111,-3.4233,-3.4374,-3.4539,-3.4655,-3.4768,-3.4848,-3.4888,-3.4879,-3.4879,-3.4897,-3.4877,-3.4886,-3.4888,-3.4946,-3.5037,-3.5115,-3.525,-3.5361,-3.5488,-3.5355,-3.5078,-3.4471,-3.4293,-3.3773,-3.305,-3.2371,-3.2221,-3.2079,-3.2139,-3.2962,-3.3587,-3.4182,-3.4889,-3.5624,-3.5753,-3.5784,-3.5791,-3.5826,-3.584,-3.5833,-3.5844,-3.588,-3.589,-3.5894,-3.5895,-3.5894,-3.5893,-3.5893,-3.5875,-3.5854,-3.5875,-3.5876,-3.5858,-3.5839,-3.5839,-3.582,-3.582,-3.5625,-3.5273,-3.4531,-3.3808,-3.3065,-3.205,-3.1035,-3.0644,-3.0623,-3.0494,-3.0341,-3.0327,-3.0272,-3.0272,-3.0276,-3.0312,-3.0312,-3.033,-3.0344,-3.0377,-3.0429,-3.0474,-3.0351,-3.0367,-3.0406,-3.0442,-3.0562,-3.0549,-3.0438,-3.0454,-3.0519,-3.0492,-3.0416,-3.0293,-3.0165,-3.0123,-3.0092,-3.0117,-3.0098,-3.0117,-3.1966,-3.2108,-3.2179,-3.2318,-3.2507,-3.2707,-3.282,-3.29,-3.2979,-3.3137,-3.3307,-3.3382,-3.3466,-3.3591,-3.3657,-3.378,-3.3908,-3.4036,-3.4173,-3.4316,-3.4484,-3.4623,-3.4727,-3.4788,-3.4858,-3.4838,-3.4848,-3.4848,-3.4798,-3.4798,-3.4829,-3.4868,-3.4946,-3.5037,-3.5201,-3.527,-3.5372,-3.5474,-3.5404,-3.4963,-3.4564,-3.4332,-3.3815,-3.3205,-3.3023,-3.2908,-3.2866,-3.3509,-3.4056,-3.4332,-3.5053,-3.5605,-3.5679,-3.5698,-3.5708,-3.5713,-3.5713,-3.5698,-3.5688,-3.5833,-3.5853,-3.5862,-3.5843,-3.5841,-3.5875,-3.5873,-3.587,-3.5812,-3.5805,-3.5802,-3.5805,-3.579,-3.5795,-3.5799,-3.5784,-3.5708,-3.5357,-3.485,-3.4053,-3.3407,-3.2502,-3.1577,-3.1012,-3.0618,-3.0576,-3.0527,-3.0588,-3.0594,-3.0594,-3.0599,-3.0604,-3.0865,-3.089,-3.1109,-3.113,-3.0935,-3.0838,-3.0719,-3.0875,-3.1149,-3.1206,-3.1262,-3.1142,-3.0882,-3.1076,-3.1431,-3.1121,-3.0791,-3.101,-3.1209,-3.0577,-3.0443,-3.0466,-3.0582,-3.0718,-3.1893,-3.1984,-3.209,-3.2214,-3.2318,-3.2524,-3.2691,-3.282,-3.2948,-3.3057,-3.3165,-3.3292,-3.3382,-3.3462,-3.3591,-3.3698,-3.3847,-3.3972,-3.4093,-3.4245,-3.4416,-3.4528,-3.4615,-3.4708,-3.4778,-3.4778,-3.4788,-3.4768,-3.4718,-3.4718,-3.4747,-3.4788,-3.4879,-3.501,-3.5168,-3.525,-3.5289,-3.5357,-3.5333,-3.522,-3.5032,-3.4982,-3.4661,-3.3826,-3.3843,-3.3643,-3.3288,-3.406,-3.4388,-3.451,-3.5191,-3.5544,-3.5558,-3.5577,-3.5583,-3.557,-3.557,-3.5562,-3.556,-3.5611,-3.5683,-3.5717,-3.5768,-3.5764,-3.5772,-3.5772,-3.5745,-3.5741,-3.5717,-3.5717,-3.5725,-3.5693,-3.5674,-3.5666,-3.567,-3.5661,-3.5361,-3.474,-3.4072,-3.3574,-3.2815,-3.1693,-3.0905,-3.0901,-3.0889,-3.0788,-3.0825,-3.0737,-3.0705,-3.074,-3.0773,-3.1267,-3.1529,-3.1828,-3.1917,-3.1726,-3.1768,-3.1828,-3.2084,-3.2435,-3.2385,-3.203,-3.2116,-3.2046,-3.2223,-3.2359,-3.2068,-3.1913,-3.2288,-3.2301,-3.1561,-3.1014,-3.1004,-3.1259,-3.1571,-3.1838,-3.1912,-3.1984,-3.2108,-3.2214,-3.2404,-3.2608,-3.274,-3.287,-3.2963,-3.3042,-3.3152,-3.3292,-3.3393,-3.3495,-3.3615,-3.378,-3.3908,-3.4018,-3.4154,-3.4328,-3.4461,-3.455,-3.4636,-3.4716,-3.4727,-3.4727,-3.4687,-3.4666,-3.4666,-3.4676,-3.4728,-3.483,-3.4964,-3.5082,-3.5151,-3.5237,-3.5281,-3.5266,-3.5315,-3.5288,-3.5278,-3.5146,-3.4743,-3.4545,-3.4385,-3.4141,-3.4257,-3.4623,-3.4822,-3.5091,-3.5476,-3.5437,-3.543,-3.5449,-3.5435,-3.5402,-3.539,-3.5385,-3.5411,-3.5438,-3.5482,-3.5585,-3.5623,-3.5643,-3.5623,-3.5607,-3.5596,-3.561,-3.5579,-3.5554,-3.5512,-3.5506,-3.55,-3.5482,-3.547,-3.5316,-3.4693,-3.4295,-3.3789,-3.325,-3.2051,-3.1071,-3.1146,-3.1263,-3.1155,-3.1049,-3.0989,-3.0968,-3.1103,-3.1262,-3.1745,-3.2091,-3.2305,-3.2484,-3.2498,-3.2619,-3.2914,-3.3064,-3.3214,-3.2947,-3.2496,-3.2862,-3.3118,-3.29,-3.2797,-3.3002,-3.309,-3.3057,-3.2817,-3.2304,-3.188,-3.1613,-3.1929,-3.2397,-3.1838,-3.1894,-3.1894,-3.202,-3.2197,-3.237,-3.2523,-3.2606,-3.274,-3.282,-3.2916,-3.2963,-3.3137,-3.3367,-3.3411,-3.352,-3.368,-3.3829,-3.3972,-3.4111,-3.4281,-3.4386,-3.4506,-3.4612,-3.4645,-3.4645,-3.4645,-3.4645,-3.4612,-3.4602,-3.4615,-3.4697,-3.4809,-3.4888,-3.4974,-3.5056,-3.5162,-3.5174,-3.5242,-3.5266,-3.5297,-3.5281,-3.5265,-3.5108,-3.5076,-3.5069,-3.4973,-3.51,-3.515,-3.5227,-3.5277,-3.5289,-3.5289,-3.5289,-3.5304,-3.5266,-3.5226,-3.5198,-3.5198,-3.5198,-3.5198,-3.5232,-3.5357,-3.5444,-3.5483,-3.5444,-3.5398,-3.5383,-3.5369,-3.5333,-3.5311,-3.5304,-3.5277,-3.5255,-3.5232,-3.5189,-3.5146,-3.4808,-3.4519,-3.4088,-3.3667,-3.2791,-3.1909,-3.1731,-3.1562,-3.1524,-3.15,-3.1661,-3.1691,-3.1872,-3.207,-3.2389,-3.2668,-3.2735,-3.2919,-3.3168,-3.3331,-3.3564,-3.3367,-3.3388,-3.3127,-3.3154,-3.3506,-3.3606,-3.3238,-3.3247,-3.3685,-3.3633,-3.3362,-3.3136,-3.3161,-3.2773,-3.2527,-3.2875,-3.329,-3.1801,-3.1838,-3.1875,-3.193,-3.2002,-3.2214,-3.237,-3.2523,-3.2623,-3.2722,-3.2839,-3.2884,-3.3026,-3.3196,-3.3334,-3.3495,-3.3633,-3.3748,-3.3895,-3.4049,-3.4197,-3.4316,-3.4427,-3.4517,-3.455,-3.4583,-3.4594,-3.4583,-3.4539,-3.4528,-3.455,-3.4634,-3.4737,-3.479,-3.4869,-3.4974,-3.5038,-3.5108,-3.5179,-3.5212,-3.5237,-3.5269,-3.5285,-3.5281,-3.5278,-3.5289,-3.5273,-3.5293,-3.5266,-3.5223,-3.5223,-3.5215,-3.5155,-3.5155,-3.5149,-3.5072,-3.5028,-3.4992,-3.4992,-3.4973,-3.4973,-3.4963,-3.5034,-3.5075,-3.5152,-3.5184,-3.5168,-3.5136,-3.513,-3.5105,-3.5088,-3.507,-3.5025,-3.4999,-3.4954,-3.487,-3.4813,-3.469,-3.4404,-3.4191,-3.3769,-3.3147,-3.2333,-3.1987,-3.1835,-3.1837,-3.1929,-3.2151,-3.2353,-3.2504,-3.2694,-3.3006,-3.3166,-3.3204,-3.3658,-3.3979,-3.4084,-3.4159,-3.3875,-3.3806,-3.3982,-3.409,-3.4247,-3.4181,-3.3911,-3.4128,-3.458,-3.435,-3.3921,-3.433,-3.4393,-3.3864,-3.3527,-3.3781,-3.3989,-3.18,-3.1783,-3.1856,-3.1875,-3.193,-3.2073,-3.2267,-3.2405,-3.2506,-3.2607,-3.2691,-3.2821,-3.2934,-3.3039,-3.3196,-3.336,-3.352,-3.3684,-3.3829,-3.3972,-3.4124,-3.4245,-3.437,-3.445,-3.4495,-3.4528,-3.4528,-3.4536,-3.4473,-3.4473,-3.4495,-3.4569,-3.4634,-3.4727,-3.4798,-3.4868,-3.4927,-3.5011,-3.5103,-3.5138,-3.5181,-3.5206,-3.5204,-3.522,-3.5215,-3.5218,-3.522,-3.522,-3.5196,-3.5134,-3.5107,-3.5089,-3.5027,-3.5,-3.4963,-3.4898,-3.4879,-3.4821,-3.4801,-3.4772,-3.4772,-3.4752,-3.4722,-3.4733,-3.4793,-3.486,-3.487,-3.4879,-3.487,-3.486,-3.4851,-3.4821,-3.4782,-3.4742,-3.4641,-3.4537,-3.4483,-3.4428,-3.4269,-3.4122,-3.3673,-3.3111,-3.2616,-3.23,-3.2221,-3.2392,-3.2498,-3.263,-3.2829,-3.3,-3.3173,-3.3429,-3.3552,-3.3645,-3.4093,-3.4253,-3.4192,-3.4136,-3.4139,-3.4186,-3.4599,-3.4586,-3.4354,-3.448,-3.4661,-3.4727,-3.4651,-3.4746,-3.4575,-3.4869,-3.485,-3.434,-3.4037,-3.4342,-3.4525,-3.18,-3.18,-3.18,-3.182,-3.1912,-3.202,-3.2126,-3.2214,-3.2387,-3.2473,-3.2558,-3.2707,-3.282,-3.2948,-3.3088,-3.3241,-3.3433,-3.3619,-3.3766,-3.3895,-3.4074,-3.4197,-3.4305,-3.4397,-3.4439,-3.4431,-3.4431,-3.4461,-3.4416,-3.4404,-3.4427,-3.4484,-3.4558,-3.4623,-3.4697,-3.4739,-3.48,-3.4898,-3.4983,-3.5048,-3.5103,-3.5092,-3.5092,-3.5101,-3.5101,-3.5111,-3.5092,-3.5075,-3.5057,-3.5001,-3.4974,-3.4936,-3.4898,-3.4812,-3.4781,-3.473,-3.4697,-3.4626,-3.4583,-3.4572,-3.4542,-3.452,-3.4487,-3.4424,-3.4461,-3.458,-3.463,-3.4609,-3.4599,-3.4588,-3.4567,-3.4534,-3.4502,-3.4446,-3.4367,-3.425,-3.413,-3.4055,-3.3897,-3.3747,-3.3534,-3.3021,-3.2842,-3.2538,-3.2393,-3.2793,-3.2824,-3.2842,-3.2928,-3.3132,-3.3319,-3.3515,-3.3545,-3.3535,-3.3658,-3.3813,-3.3884,-3.3935,-3.4005,-3.4086,-3.4166,-3.4227,-3.4293,-3.4337,-3.4379,-3.4431,-3.4405,-3.4434,-3.4434,-3.4434,-3.4434,-3.4434,-3.449,-3.4567,-3.4694,-3.18,-3.18,-3.18,-3.1838,-3.1894,-3.1948,-3.202,-3.2126,-3.2214,-3.2353,-3.2489,-3.2607,-3.2737,-3.2884,-3.3026,-3.3214,-3.3393,-3.3534,-3.3684,-3.3834,-3.3985,-3.4111,-3.4221,-3.4305,-3.4351,-3.4386,-3.4416,-3.4393,-3.4328,-3.4316,-3.4328,-3.4351,-3.4427,-3.4506,-3.4594,-3.4636,-3.4697,-3.4798,-3.4849,-3.4946,-3.502,-3.5075,-3.5092,-3.5075,-3.5066,-3.5011,-3.4964,-3.4908,-3.487,-3.484,-3.484,-3.48,-3.474,-3.4647,-3.4594,-3.4569,-3.4473,-3.4397,-3.4351,-3.4316,-3.4293,-3.4257,-3.4209,-3.4148,-3.4173,-3.4309,-3.4356,-3.4321,-3.4316,-3.4305,-3.4293,-3.4269,-3.4233,-3.4161,-3.4086,-3.3934,-3.378,-3.3643,-3.3502,-3.3386,-3.3268,-3.3099,-3.2928,-3.2816,-3.2719,-3.2603,-3.2485,-3.2452,-3.2451,-3.2577,-3.2798,-3.2988,-3.3178,-3.3222,-3.3306,-3.3379,-3.3451,-3.3508,-3.3546,-3.3634,-3.3739,-3.3802,-3.3876,-3.3895,-3.3915,-3.3948,-3.3968,-3.3961,-3.3961,-3.3974,-3.3986,-3.3981,-3.3955,-3.4023,-3.4282,-3.13,-3.1351,-3.1662,-3.1837,-3.1856,-3.1857,-3.1929,-3.2002,-3.2037,-3.2161,-3.237,-3.2489,-3.2657,-3.2786,-3.293,-3.3104,-3.3289,-3.3437,-3.3587,-3.3753,-3.3873,-3.3985,-3.4099,-3.4197,-3.4233,-3.4269,-3.4305,-3.4281,-3.4257,-3.4257,-3.4269,-3.4293,-3.434,-3.4416,-3.4506,-3.4517,-3.4591,-3.4716,-3.4697,-3.478,-3.4917,-3.4955,-3.4965,-3.4955,-3.4917,-3.4898,-3.4859,-3.4791,-3.474,-3.4697,-3.4655,-3.4623,-3.455,-3.4484,-3.4397,-3.4328,-3.4257,-3.4161,-3.4105,-3.4055,-3.4036,-3.3985,-3.3908,-3.3847,-3.3802,-3.3915,-3.3972,-3.3947,-3.4023,-3.4023,-3.4011,-3.3985,-3.3947,-3.3895,-3.3788,-3.3657,-3.3473,-3.3331,-3.3193,-3.3117,-3.2961,-3.2787,-3.2606,-3.2472,-3.237,-3.2249,-3.2126,-3.2073,-3.2091,-3.2073,-3.2301,-3.2471,-3.2636,-3.2802,-3.2866,-3.2928,-3.2988,-3.3034,-3.3096,-3.3187,-3.3291,-3.3383,-3.3459,-3.3441,-3.3437,-3.3465,-3.348,-3.3465,-3.3484,-3.3494,-3.3494,-3.3498,-3.3484,-3.3451,-3.362,-3.061,-3.0782,-3.1369,-3.1714,-3.18,-3.18,-3.1838,-3.1876,-3.1894,-3.202,-3.2197,-3.2387,-3.2506,-3.2622,-3.2802,-3.2945,-3.3117,-3.3349,-3.352,-3.3629,-3.3753,-3.3873,-3.3972,-3.4086,-3.4111,-3.4117,-3.4142,-3.4173,-3.4161,-3.4173,-3.4185,-3.4257,-3.4281,-3.4305,-3.437,-3.4404,-3.4461,-3.4539,-3.4583,-3.4634,-3.4727,-3.4788,-3.4827,-3.4809,-3.4778,-3.4797,-3.4758,-3.4697,-3.4634,-3.4569,-3.4473,-3.4404,-3.4358,-3.43,-3.424,-3.4148,-3.4061,-3.3959,-3.3868,-3.3802,-3.3762,-3.3726,-3.3633,-3.3563,-3.3534,-3.3516,-3.3559,-3.3601,-3.3666,-3.3721,-3.3726,-3.3712,-3.3671,-3.3615,-3.3506,-3.339,-3.3211,-3.3044,-3.2948,-3.2868,-3.2673,-3.2508,-3.2336,-3.2179,-3.2037,-3.1876,-3.1802,-3.1783,-3.1746,-3.173,-3.1822,-3.1931,-3.2056,-3.2197,-3.237,-3.2506,-3.2571,-3.2638,-3.2702,-3.2766,-3.2846,-3.291,-3.2941,-3.2975,-3.299,-3.2972,-3.2975,-3.2959,-3.2977,-3.2959,-3.291,-3.2876,-3.2876,-3.2842,-3.291,-3.011,-3.0714,-3.0851,-3.1231,-3.1731,-3.1783,-3.1801,-3.1819,-3.1858,-3.1984,-3.2108,-3.2232,-3.2353,-3.2541,-3.2787,-3.2948,-3.3011,-3.3229,-3.3364,-3.3448,-3.3633,-3.3753,-3.3842,-3.3934,-3.3985,-3.4023,-3.4049,-3.4049,-3.4074,-3.4061,-3.4049,-3.4086,-3.4136,-3.4173,-3.4233,-3.4281,-3.4358,-3.4427,-3.445,-3.4484,-3.4539,-3.4645,-3.4778,-3.4768,-3.4687,-3.4655,-3.4594,-3.4517,-3.4473,-3.4416,-3.4305,-3.4233,-3.4161,-3.4111,-3.4036,-3.3965,-3.3855,-3.3766,-3.3671,-3.3573,-3.3534,-3.3462,-3.3393,-3.3352,-3.3289,-3.3208,-3.3238,-3.3238,-3.3327,-3.3433,-3.3448,-3.3462,-3.3433,-3.3331,-3.3229,-3.3119,-3.2963,-3.287,-3.2773,-3.2658,-3.2525,-3.2354,-3.2179,-3.1983,-3.1819,-3.1673,-3.156,-3.1521,-3.1428,-3.1428,-3.1391,-3.1468,-3.156,-3.1673,-3.1874,-3.209,-3.2197,-3.2249,-3.2301,-3.2403,-3.242,-3.2403,-3.2454,-3.2505,-3.2471,-3.2454,-3.2438,-3.2437,-3.2369,-3.2335,-3.2248,-3.2196,-3.2214,-3.2265,-3.2334]},{"header":{"parameterUnit":"m.s-1","parameterCategory":1,"la1":31.0,"la2":29.5877,"lo1":-88.7671,"lo2":-86.6584,"dy":0.0162,"dx":0.0185,"nx":115,"ny":88,"refTime":"2023-06-06T00:00:00:Z","depth":0,"parameterNumber":3,"parameterNumberName":"V-component_of_WINDS"},"data":[0.0,0.0,0.0,0.0,0.0,0.0,0.0,0.0,0.0,0.0,0.0,0.0,0.0,0.0,0.0,0.0,0.0,0.0,0.0,0.0,0.0,0.0,0.0,0.0,0.0,0.0,0.0,0.0,0.0,0.0,0.0,0.0,0.0,0.0,0.0,0.0,0.0,0.0,0.0,0.0,0.0,0.0,0.0,0.0,0.0,0.0,0.0,0.0,0.0,0.0,0.0,0.0,0.0,0.0,0.0,0.0,0.0,0.0,0.0,0.0,0.0,0.0,0.0,0.0,0.0,0.0,0.0,0.0,0.0,0.0,0.0,0.0,0.0,0.0,0.0,0.0,0.0,0.0,0.0,0.0,0.0,0.0,0.0,0.0,0.0,0.0,0.0,0.0,0.0,0.0,0.0,0.0,0.0,0.0,0.0,0.0,0.0,0.0,0.0,0.0,0.0,0.0,0.0,0.0,0.0,0.0,0.0,0.0,0.0,0.0,0.0,0.0,0.0,0.0,0.0,0.0,0.0,0.0,0.0,0.0,0.0,0.0,0.0,0.0,0.0,0.0,0.0,0.0,0.0,0.0,0.0,0.0,0.0,0.0,0.0,0.0,0.0,0.0,0.0,0.0,0.0,0.0,0.0,0.0,0.0,0.0,0.0,0.0,0.0,0.0,0.0,0.0,0.0,0.0,0.0,0.0,0.0,0.0,0.0,0.0,0.0,0.0,0.0,0.0,0.0,0.0,0.0,0.0,0.0,0.0,0.0,0.0,0.0,0.0,0.0,0.0,0.0,0.0,0.0,0.0,0.0,0.0,0.0,0.0,0.0,0.0,0.0,0.0,0.0,0.0,0.0,0.0,0.0,0.0,0.0,0.0,0.0,0.0,0.0,0.0,0.0,0.0,0.0,0.0,0.0,0.0,0.0,0.0,0.0,0.0,0.0,0.0,0.0,0.0,0.0,0.0,0.0,0.0,0.0,0.0,0.0,0.0,0.0,0.0,0.0,0.0,0.0,0.0,0.0,0.0,0.0,0.0,0.0,0.0,0.0,0.0,0.0,0.0,0.0,0.0,0.0,0.0,0.0,0.0,0.0,0.0,0.0,0.0,0.0,0.0,0.0,0.0,0.0,0.0,0.0,0.0,0.0,0.0,0.0,0.0,0.0,0.0,0.0,0.0,0.0,0.0,0.0,0.0,0.0,0.0,0.0,0.0,0.0,0.0,0.0,0.0,0.0,0.0,0.0,0.0,0.0,0.0,0.0,0.0,0.0,0.0,0.0,0.0,0.0,0.0,0.0,0.0,0.0,0.0,0.0,0.0,0.0,0.0,0.0,0.0,0.0,0.0,0.0,0.0,0.0,0.0,0.0,0.0,0.0,0.0,0.0,0.0,0.0,0.0,0.0,0.0,0.0,0.0,0.0,0.0,0.0,0.0,0.0,0.0,0.0,0.0,0.0,0.0,0.0,0.0,0.0,0.0,0.0,0.0,0.0,0.0,0.0,0.0,0.0,0.0,0.0,0.0,0.0,0.0,0.0,0.0,0.0,0.0,0.0,0.0,0.0,0.0,0.0,0.0,0.0,0.0,0.0,0.0,0.0,0.0,0.0,0.0,0.0,0.0,0.0,0.0,0.0,0.0,0.0,0.0,0.0,0.0,0.0,0.0,0.0,0.0,0.0,0.0,0.0,0.0,0.0,0.0,0.0,0.0,0.0,0.0,0.0,0.0,0.0,0.0,0.0,0.0,0.0,0.0,0.0,0.0,0.0,0.0,0.0,0.0,0.0,0.0,0.0,0.0,0.0,0.0,0.0,0.0,0.0,0.0,0.0,0.0,0.0,0.0,0.0,0.0,0.0,0.0,0.0,0.0,0.0,0.0,0.0,0.0,0.0,0.0,0.0,0.0,0.0,0.0,0.0,0.0,0.0,0.0,0.0,0.0,0.0,0.0,0.0,0.0,0.0,0.0,0.0,0.0,0.0,0.0,0.0,0.0,0.0,0.0,0.0,0.0,0.0,0.0,0.0,0.0,0.0,0.0,0.0,0.0,0.0,0.0,0.0,0.0,0.0,0.0,0.0,0.0,0.0,0.0,0.0,0.0,0.0,0.0,0.0,0.0,0.0,0.0,0.0,0.0,0.0,0.0,0.0,0.0,0.0,0.0,0.0,0.0,0.0,0.0,0.0,0.0,0.0,0.0,0.0,0.0,0.0,0.0,0.0,0.0,0.0,0.0,0.0,0.0,0.0,0.0,0.0,0.0,0.0,0.0,0.0,0.0,0.0,0.0,0.0,0.0,0.0,0.0,0.0,0.0,0.0,0.0,0.0,0.0,0.0,0.0,0.0,0.0,0.0,0.0,0.0,0.0,0.0,0.0,0.0,0.0,0.0,0.0,0.0,0.0,0.0,0.0,0.0,0.0,0.0,0.0,0.0,0.0,0.0,0.0,0.0,0.0,0.0,0.0,0.0,0.0,0.0,0.0,0.0,0.0,0.0,0.0,0.0,0.0,0.0,0.0,0.0,0.0,0.0,0.0,0.0,0.0,0.0,0.0,0.0,0.0,0.0,0.0,0.0,0.0,0.0,0.0,0.0,0.0,0.0,0.0,0.0,0.0,0.0,0.0,0.0,0.0,0.0,0.0,0.0,0.0,0.0,0.0,0.0,0.0,0.0,0.0,0.0,0.0,0.0,0.0,0.0,0.0,0.0,0.0,0.0,0.0,0.0,0.0,0.0,0.0,0.0,0.0,0.0,0.0,0.0,0.0,0.0,0.0,0.0,0.0,0.0,0.0,0.0,0.0,0.0,0.0,0.0,0.0,0.0,0.0,0.0,0.0,0.0,0.0,0.0,0.0,0.0,0.0,0.0,0.0,0.0,0.0,0.0,0.0,0.0,0.0,0.0,0.0,0.0,0.0,0.0,0.0,0.0,0.0,0.0,0.0,0.0,0.0,0.0,0.0,0.0,0.0,0.0,0.0,0.0,0.0,0.0,0.0,0.0,0.0,0.0,0.0,0.0,0.0,0.0,0.0,0.0,0.0,0.0,0.0,0.0,0.0,0.0,0.0,0.0,0.0,0.0,0.0,0.0,0.0,0.0,0.0,0.0,0.0,0.0,0.0,0.0,0.0,0.0,0.0,0.0,0.0,0.0,0.0,0.0,0.0,0.0,0.0,0.0,0.0,0.0,0.0,0.0,0.0,0.0,0.0,0.0,0.0,0.0,0.0,0.0,0.0,0.0,0.0,0.0,0.0,0.0,0.0,0.0,0.0,0.0,0.0,0.0,0.0,0.0,0.0,0.0,0.0,0.0,0.0,0.0,0.0,0.0,0.0,0.0,0.0,0.0,0.0,0.0,0.0,0.0,0.0,0.0,0.0,0.0,0.0,0.0,0.0,0.0,0.0,0.0,0.0,0.0,0.0,0.0,0.0,0.0,0.0,0.0,0.0,0.0,0.0,0.0,0.0,0.0,0.0,0.0,0.0,0.0,0.0,0.0,0.0,0.0,0.0,0.0,0.0,0.0,0.0,0.0,0.0,0.0,0.0,0.0,0.0,0.0,0.0,0.0,0.0,0.0,0.0,0.0,0.0,0.0,0.0,0.0,0.0,0.0,0.0,0.0,0.0,0.0,0.0,0.0,0.0,0.0,0.0,0.0,0.0,0.0,0.0,0.0,0.0,0.0,0.0,0.0,0.0,0.0,0.0,0.0,0.0,0.0,0.0,0.0,0.0,0.0,0.0,0.0,0.0,0.0,0.0,0.0,0.0,0.0,0.0,0.0,0.0,0.0,0.0,0.0,0.0,0.0,0.0,0.0,0.0,0.0,0.0,0.0,0.0,0.0,0.0,0.0,0.0,0.0,0.0,0.0,0.0,0.0,0.0,0.0,0.0,0.0,0.0,0.0,0.0,0.0,0.0,0.0,0.0,0.0,0.0,0.0,0.0,0.0,0.0,0.0,0.0,0.0,0.0,0.0,0.0,0.0,0.0,0.0,0.0,0.0,0.0,0.0,0.0,0.0,0.0,0.0,0.0,0.0,0.0,0.0,0.0,0.0,0.0,0.0,0.0,0.0,0.0,0.0,0.0,0.0,0.0,0.0,0.0,0.0,0.0,0.0,0.0,0.0,0.0,0.0,0.0,0.0,0.0,0.0,0.0,0.0,0.0,0.0,0.0,0.0,0.0,0.0,0.0,0.0,0.0,0.0,0.0,0.0,0.0,0.0,0.0,0.0,0.0,0.0,0.0,0.0,0.0,0.0,0.0,0.0,0.0,0.0,0.0,0.0,0.0,1.5531,0.0,0.0,0.0,0.0,0.0,0.0,0.0,0.0,0.0,0.0,0.0,0.0,0.0,0.0,0.0,0.0,0.0,0.0,0.0,0.0,0.0,0.0,0.0,0.0,0.0,0.0,0.0,0.0,0.0,0.0,0.0,0.0,0.0,0.0,0.0,0.0,0.0,0.0,0.0,0.0,0.0,0.0,0.0,0.0,0.0,0.0,0.0,0.0,0.0,0.0,0.0,0.0,0.0,0.0,0.0,0.0,0.0,0.0,0.0,0.0,0.0,0.0,0.0,0.0,0.0,0.0,0.0,0.0,0.0,0.0,0.0,0.0,0.0,0.0,0.0,0.0,0.0,0.0,0.0,0.0,0.0,0.0,0.0,0.0,0.0,0.0,0.0,0.0,0.0,0.0,0.0,0.0,0.0,0.0,0.0,0.0,0.0,0.0,0.0,0.0,0.0,0.0,0.0,0.0,0.0,0.0,0.0,0.0,0.0,0.0,1.79,1.817,1.7716,1.7049,1.6178,0.0,0.0,0.0,0.0,0.0,0.0,0.0,0.0,0.0,0.0,0.0,0.0,0.0,0.0,0.0,0.0,0.0,0.0,0.0,0.0,0.0,0.0,0.0,0.0,0.0,0.0,0.0,0.0,0.0,0.0,0.0,0.0,0.0,0.0,0.0,0.0,0.0,0.0,0.0,0.0,0.0,0.0,0.0,0.0,0.0,0.0,0.0,0.0,0.0,0.0,0.0,0.0,0.0,0.0,0.0,0.0,0.0,0.0,0.0,0.0,0.0,0.0,0.0,0.0,0.0,0.0,0.0,0.0,0.0,0.0,0.0,0.0,0.0,0.0,0.0,0.0,0.0,0.0,0.0,0.0,0.0,0.0,0.0,0.0,0.0,0.0,0.0,0.0,0.0,0.0,0.0,0.0,0.0,0.0,0.0,0.0,0.0,0.0,0.0,0.0,0.0,0.0,0.0,0.0,0.0,0.0,0.0,0.0,0.0,0.0,0.0,0.0,1.8614,1.7759,1.6711,0.0,0.0,0.0,0.0,0.0,0.0,0.0,0.0,0.0,0.0,0.0,0.0,0.0,0.0,0.0,0.0,0.0,0.0,0.0,0.0,0.0,0.0,0.0,0.0,0.0,0.0,0.0,0.0,0.0,0.0,0.0,0.0,0.0,0.0,0.0,0.0,0.0,0.0,0.0,0.0,0.0,0.0,0.0,0.0,0.0,0.0,0.0,0.0,0.0,0.0,0.0,0.0,0.0,0.0,0.0,0.0,0.0,0.0,0.0,0.0,0.0,0.0,0.0,0.0,0.0,0.0,0.0,0.0,0.0,0.0,0.0,0.0,0.0,0.0,0.0,0.0,0.0,0.0,0.0,0.0,0.0,0.0,0.0,0.0,0.0,0.0,0.0,0.0,0.0,0.0,0.0,0.0,0.0,0.0,0.0,0.0,0.0,0.0,0.0,0.0,0.0,0.0,0.0,0.0,0.0,0.0,0.0,0.0,0.0,0.0,1.9294,1.929,1.9083,0.0,1.6755,0.0,0.0,0.0,0.0,0.0,0.0,0.0,0.0,0.0,0.0,0.0,0.0,0.0,0.0,0.0,0.0,0.0,0.0,0.0,0.0,0.0,0.0,0.0,0.0,0.0,0.0,0.0,0.0,0.0,0.0,0.0,0.0,0.0,0.0,0.0,0.0,0.0,0.0,0.0,0.0,0.0,0.0,0.0,0.0,0.0,0.0,0.0,0.0,0.0,0.0,0.0,0.0,0.0,0.0,0.0,0.0,0.0,0.0,0.0,0.0,0.0,0.0,0.0,0.0,0.0,0.0,0.0,0.0,0.0,0.0,0.0,0.0,0.0,0.0,0.0,0.0,0.0,0.0,0.0,0.0,0.0,0.0,0.0,0.0,0.0,0.0,0.0,0.0,0.0,0.0,0.0,0.0,0.0,0.0,0.0,0.0,0.0,0.0,0.0,0.0,0.0,0.0,0.0,0.0,0.0,0.0,0.0,0.0,0.0,0.0,1.9311,1.9243,1.8224,1.7368,0.0,0.0,0.0,0.0,0.0,0.0,0.0,0.0,0.0,0.0,0.0,0.0,0.0,0.0,0.0,0.0,0.0,0.0,0.0,0.0,0.0,0.0,0.0,0.0,0.0,0.0,0.0,0.0,0.0,0.0,0.0,0.0,0.0,0.0,0.0,0.0,0.0,0.0,0.0,0.0,0.0,0.0,0.0,0.0,0.0,0.0,0.0,0.0,0.0,0.0,0.0,0.0,0.0,0.0,0.0,0.0,0.0,0.0,0.0,0.0,0.0,0.0,0.0,0.0,0.0,0.0,0.0,0.0,0.0,0.0,0.0,0.0,0.0,0.0,0.0,0.0,0.0,0.0,0.0,0.0,0.0,0.0,0.0,0.0,0.0,0.0,0.0,0.0,0.0,0.0,0.0,0.0,0.0,0.0,0.0,0.0,0.0,0.0,0.0,0.0,0.0,0.0,0.0,0.0,0.0,0.0,0.0,0.0,0.0,0.0,1.9353,1.9246,1.9113,1.7576,1.669,1.6693,0.0,0.0,0.0,0.0,0.0,0.0,0.0,0.0,0.0,0.0,0.0,0.0,0.0,0.0,0.0,0.0,0.0,0.0,0.0,0.0,0.0,0.0,0.0,0.0,0.0,0.0,0.0,0.0,0.0,0.0,0.0,0.0,0.0,0.0,0.0,0.0,0.0,0.0,0.0,0.0,0.0,0.0,0.0,0.0,0.0,0.0,0.0,0.0,0.0,0.0,0.0,0.0,0.0,0.0,0.0,0.0,0.0,0.0,0.0,0.0,0.0,0.0,0.0,0.0,0.0,0.0,0.0,0.0,0.0,0.0,0.0,0.0,0.0,0.0,0.0,0.0,0.0,0.0,0.0,0.0,0.0,0.0,0.0,0.0,0.0,0.0,0.0,0.0,0.0,0.0,0.0,0.0,0.0,0.0,0.0,0.0,0.0,0.0,0.0,0.0,0.0,0.0,0.0,0.0,0.0,0.0,0.0,0.0,1.9368,1.9329,1.9235,1.9086,1.755,1.6693,0.0,0.0,0.0,0.0,0.0,0.0,0.0,0.0,0.0,0.0,0.0,0.0,0.0,0.0,0.0,0.0,0.0,0.0,0.0,0.0,0.0,0.0,0.0,0.0,0.0,0.0,0.0,0.0,0.0,0.0,0.0,0.0,0.0,0.0,0.0,0.0,0.0,0.0,0.0,0.0,0.0,0.0,0.0,0.0,0.0,0.0,0.0,0.0,0.0,0.0,0.0,0.0,0.0,0.0,0.0,0.0,0.0,0.0,0.0,0.0,0.0,0.0,0.0,0.0,0.0,0.0,0.0,0.0,0.0,0.0,0.0,0.0,0.0,0.0,0.0,0.0,0.0,0.0,0.0,0.0,0.0,0.0,0.0,0.0,0.0,0.0,0.0,0.0,0.0,0.0,0.0,0.0,0.0,0.0,0.0,0.0,0.0,0.0,0.0,0.0,0.0,0.0,0.0,0.0,0.0,0.0,0.0,0.0,0.0,1.857,1.8948,1.9152,1.9041,1.7542,1.6718,0.0,0.0,0.0,0.0,0.0,0.0,0.0,0.0,0.0,0.0,0.0,0.0,0.0,0.0,0.0,0.0,0.0,0.0,0.0,0.0,0.0,0.0,0.0,0.0,0.0,0.0,0.0,0.0,0.0,0.0,0.0,0.0,0.0,0.0,0.0,0.0,0.0,0.0,0.0,0.0,0.0,0.0,0.0,0.0,0.0,0.0,0.0,0.0,0.0,0.0,0.0,0.0,0.0,0.0,0.0,0.0,0.0,0.0,0.0,0.0,0.0,0.0,0.0,0.0,0.0,0.0,0.0,0.0,0.0,0.0,0.0,0.0,0.0,0.0,0.0,0.0,0.0,0.0,0.0,0.0,0.0,0.0,0.0,0.0,0.0,0.0,0.0,0.0,0.0,0.0,0.0,0.0,0.0,0.0,0.0,0.0,0.0,0.0,0.0,0.0,0.0,0.0,0.0,0.0,0.0,0.0,0.0,0.0,0.0,1.84,0.0,1.9102,1.9034,1.7804,1.7013,0.0,0.0,0.0,0.0,0.0,0.0,0.0,0.0,0.0,0.0,0.0,0.0,0.0,0.0,0.0,0.0,0.0,0.0,0.0,0.0,0.0,0.0,0.0,0.0,0.0,0.0,0.0,0.0,0.0,0.0,0.0,0.0,0.0,0.0,0.0,0.0,0.0,0.0,0.0,0.0,0.0,0.0,0.0,0.0,0.0,0.0,0.0,0.0,0.0,0.0,0.0,0.0,0.0,0.0,0.0,0.0,0.0,0.0,0.0,0.0,0.0,0.0,0.0,0.0,0.0,0.0,0.0,0.0,0.0,0.0,0.0,0.0,0.0,0.0,0.0,0.0,0.0,0.0,0.0,0.0,0.0,0.0,0.0,0.0,0.0,0.0,0.0,0.0,0.0,0.0,0.0,0.0,0.0,0.0,0.0,0.0,0.0,0.0,0.0,0.0,0.0,0.0,0.0,0.0,0.0,0.0,0.0,0.0,1.7636,1.9005,1.9087,1.907,1.9001,1.8328,1.7607,0.0,0.0,0.0,0.0,0.0,0.0,0.0,0.0,0.0,0.0,0.0,0.0,0.0,0.0,0.0,0.0,0.0,0.0,0.0,0.0,0.0,0.0,0.0,0.0,0.0,0.0,0.0,0.0,0.0,0.0,0.0,0.0,0.0,0.0,0.0,0.0,0.0,0.0,0.0,0.0,0.0,0.0,0.0,0.0,0.0,0.0,0.0,0.0,0.0,0.0,0.0,0.0,0.0,0.0,0.0,0.0,0.0,0.0,0.0,0.0,0.0,0.0,0.0,0.0,0.0,0.0,0.0,0.0,0.0,0.0,0.0,0.0,0.0,0.0,0.0,0.0,0.0,0.0,0.0,0.0,0.0,0.0,0.0,0.0,0.0,0.0,0.0,0.0,0.0,0.0,0.0,0.0,0.0,0.0,0.0,0.0,0.0,0.0,0.0,0.0,0.0,0.0,0.0,0.0,0.0,0.0,0.0,0.0,0.0,1.893,1.8948,1.8984,1.8956,1.8306,1.7577,0.0,0.0,0.0,0.0,0.0,0.0,0.0,0.0,0.0,0.0,0.0,0.0,0.0,0.0,0.0,0.0,0.0,0.0,0.0,0.0,0.0,0.0,0.0,0.0,0.0,0.0,0.0,0.0,0.0,0.0,0.0,0.0,0.0,0.0,0.0,0.0,0.0,0.0,0.0,0.0,0.0,0.0,0.0,0.0,0.0,0.0,0.0,0.0,0.0,0.0,0.0,0.0,0.0,0.0,0.0,0.0,0.0,0.0,0.0,0.0,0.0,0.0,0.0,0.0,0.0,0.0,0.0,0.0,0.0,0.0,0.0,0.0,0.0,0.0,0.0,0.0,0.0,0.0,0.0,0.0,0.0,0.0,0.0,0.0,0.0,0.0,0.0,0.0,0.0,0.0,0.0,0.0,0.0,0.0,0.0,0.0,0.0,0.0,0.0,0.0,0.0,0.0,0.0,0.0,0.0,0.0,0.0,0.0,0.0,1.9163,1.9254,1.93,1.9345,1.8973,1.8278,1.7249,0.0,0.0,0.0,0.0,0.0,0.0,0.0,0.0,0.0,0.0,0.0,0.0,0.0,0.0,0.0,0.0,0.0,0.0,0.0,0.0,0.0,0.0,0.0,0.0,0.0,0.0,0.0,0.0,0.0,0.0,0.0,0.0,0.0,0.0,0.0,0.0,0.0,0.0,0.0,0.0,0.0,0.0,0.0,0.0,0.0,0.0,0.0,0.0,0.0,0.0,0.0,0.0,0.0,0.0,0.0,0.0,0.0,0.0,0.0,0.0,0.0,0.0,0.0,0.0,0.0,0.0,0.0,0.0,0.0,0.0,0.0,0.0,0.0,0.0,0.0,0.0,0.0,0.0,0.0,0.0,0.0,0.0,0.0,0.0,0.0,0.0,0.0,0.0,0.0,0.0,0.0,0.0,0.0,0.0,0.0,0.0,0.0,0.0,0.0,0.0,0.0,0.0,0.0,0.0,0.0,0.0,0.0,0.0,1.9728,1.9926,1.9998,1.9964,2.0099,1.9478,0.0,0.0,0.0,0.0,0.0,0.0,0.0,0.0,0.0,0.0,0.0,0.0,0.0,0.0,0.0,0.0,0.0,0.0,0.0,0.0,0.0,0.0,0.0,0.0,0.0,0.0,0.0,0.0,0.0,0.0,0.0,0.0,0.0,0.0,0.0,0.0,0.0,0.0,0.0,0.0,0.0,0.0,0.0,0.0,0.0,0.0,0.0,0.0,0.0,0.0,0.0,0.0,0.0,0.0,0.0,0.0,0.0,0.0,0.0,0.0,0.0,0.0,0.0,0.0,0.0,0.0,0.0,0.0,0.0,0.0,0.0,0.0,0.0,0.0,0.0,0.0,0.0,0.0,0.0,0.0,0.0,0.0,0.0,0.0,0.0,0.0,0.0,0.0,0.0,0.0,0.0,0.0,0.0,0.0,0.0,0.0,0.0,0.0,0.0,0.0,0.0,0.0,0.0,0.0,0.0,0.0,0.0,0.0,0.0,2.0341,2.098,2.111,2.071,2.0338,1.9705,0.0,0.0,0.0,0.0,0.0,0.0,0.0,0.0,0.0,0.0,0.0,0.0,0.0,0.0,0.0,0.0,0.0,0.0,0.0,0.0,0.0,0.0,0.0,0.0,0.0,0.0,0.0,0.0,0.0,0.0,0.0,0.0,0.0,0.0,0.0,0.0,0.0,0.0,0.0,0.0,0.0,0.0,0.0,0.0,0.0,0.0,0.0,0.0,0.0,0.0,0.0,0.0,0.0,0.0,0.0,0.0,0.0,0.0,0.0,0.0,0.0,0.0,0.0,0.0,0.0,0.0,0.0,0.0,0.0,0.0,0.0,0.0,0.0,0.0,0.0,0.0,0.0,0.0,0.0,0.0,0.0,0.0,0.0,0.0,0.0,0.0,0.0,0.0,0.0,0.0,0.0,0.0,0.0,0.0,0.0,0.0,0.0,0.0,0.0,0.0,0.0,0.0,0.0,0.0,0.0,0.0,0.0,0.0,2.0349,2.0963,2.1747,2.2012,2.1756,2.0902,2.015,0.0,0.0,0.0,0.0,0.0,0.0,0.0,0.0,0.0,0.0,0.0,0.0,0.0,0.0,0.0,0.0,0.0,0.0,0.0,0.0,0.0,0.0,0.0,0.0,0.0,0.0,0.0,0.0,0.0,0.0,0.0,0.0,0.0,0.0,0.0,0.0,0.0,0.0,0.0,0.0,0.0,0.0,0.0,0.0,0.0,0.0,0.0,0.0,0.0,0.0,0.0,0.0,0.0,0.0,0.0,0.0,0.0,0.0,0.0,0.0,0.0,0.0,0.0,0.0,0.0,0.0,0.0,0.0,0.0,0.0,0.0,0.0,0.0,0.0,0.0,0.0,0.0,0.0,0.0,0.0,0.0,0.0,0.0,0.0,0.0,0.0,0.0,0.0,0.0,0.0,0.0,0.0,0.0,0.0,0.0,0.0,0.0,0.0,0.0,0.0,0.0,0.0,0.0,0.0,0.0,0.0,0.0,0.0,2.0804,2.1446,2.2198,2.2646,2.2725,2.1534,2.0667,0.0,0.0,0.0,0.0,0.0,0.0,0.0,0.0,0.0,0.0,0.0,0.0,0.0,0.0,0.0,0.0,0.0,0.0,0.0,0.0,0.0,0.0,0.0,0.0,0.0,0.0,0.0,0.0,0.0,0.0,0.0,0.0,0.0,0.0,0.0,0.0,0.0,0.0,0.0,0.0,0.0,0.0,0.0,0.0,0.0,0.0,0.0,0.0,0.0,0.0,0.0,0.0,0.0,0.0,0.0,0.0,0.0,0.0,0.0,0.0,0.0,0.0,0.0,0.0,0.0,0.0,0.0,0.0,0.0,0.0,0.0,0.0,0.0,0.0,0.0,0.0,0.0,0.0,0.0,0.0,0.0,0.0,0.0,0.0,0.0,0.0,0.0,0.0,0.0,0.0,0.0,0.0,0.0,0.0,0.0,0.0,0.0,0.0,0.0,0.0,0.0,0.0,0.0,0.0,0.0,0.0,0.0,0.0,2.0609,2.1166,2.1997,2.247,2.2552,2.1429,2.0877,0.0,0.0,0.0,0.0,0.0,0.0,0.0,0.0,0.0,0.0,0.0,0.0,0.0,0.0,0.0,0.0,0.0,0.0,0.0,0.0,0.0,0.0,0.0,0.0,0.0,0.0,0.0,0.0,0.0,0.0,0.0,0.0,0.0,0.0,0.0,0.0,0.0,0.0,0.0,0.0,0.0,0.0,0.0,0.0,0.0,0.0,0.0,0.0,1.7347,0.0,0.0,0.0,0.0,0.0,0.0,0.0,0.0,0.0,0.0,0.0,0.0,0.0,0.0,0.0,0.0,0.0,0.0,0.0,0.0,0.0,0.0,0.0,0.0,0.0,0.0,0.0,0.0,0.0,0.0,0.0,0.0,0.0,0.0,0.0,0.0,0.0,0.0,0.0,0.0,0.0,0.0,0.0,0.0,0.0,0.0,0.0,0.0,0.0,0.0,0.0,0.0,0.0,0.0,0.0,0.0,0.0,0.0,0.0,2.0633,2.1565,2.2018,2.2276,2.2354,2.1569,2.1124,0.0,0.0,0.0,0.0,0.0,0.0,0.0,0.0,0.0,0.0,0.0,0.0,0.0,0.0,0.0,0.0,0.0,0.0,0.0,0.0,0.0,0.0,0.0,0.0,0.0,0.0,0.0,0.0,0.0,0.0,0.0,0.0,0.0,0.0,0.0,0.0,0.0,0.0,0.0,0.0,0.0,0.0,0.0,0.0,0.0,0.0,0.0,0.0,0.0,0.0,0.0,0.0,0.0,0.0,0.0,0.0,0.0,0.0,0.0,0.0,0.0,0.0,0.0,0.0,0.0,0.0,0.0,0.0,0.0,0.0,0.0,0.0,0.0,0.0,0.0,0.0,0.0,0.0,0.0,0.0,0.0,0.0,0.0,0.0,0.0,0.0,0.0,0.0,0.0,0.0,0.0,0.0,0.0,0.0,0.0,0.0,0.0,0.0,0.0,0.0,0.0,0.0,0.0,0.0,0.0,0.0,0.0,2.0171,2.083,2.2236,2.2197,2.2243,2.2434,2.2032,2.1578,2.1047,0.0,0.0,0.0,0.0,0.0,0.0,0.0,0.0,0.0,0.0,0.0,0.0,0.0,0.0,0.0,0.0,0.0,0.0,0.0,0.0,0.0,0.0,0.0,0.0,0.0,0.0,0.0,0.0,0.0,0.0,0.0,0.0,0.0,0.0,0.0,0.0,0.0,0.0,1.5597,1.6241,0.0,0.0,0.0,0.0,0.0,0.0,0.0,0.0,1.8371,0.0,0.0,0.0,0.0,0.0,0.0,0.0,0.0,0.0,0.0,0.0,0.0,0.0,0.0,0.0,0.0,0.0,0.0,0.0,0.0,0.0,0.0,0.0,0.0,0.0,0.0,0.0,0.0,0.0,0.0,0.0,0.0,0.0,0.0,0.0,0.0,0.0,0.0,0.0,0.0,0.0,0.0,0.0,0.0,0.0,0.0,0.0,0.0,0.0,0.0,0.0,0.0,0.0,0.0,0.0,0.0,1.9951,2.0425,2.1349,2.2737,2.277,2.283,2.3055,2.3184,2.2474,2.0885,0.0,0.0,0.0,0.0,0.0,0.0,0.0,0.0,0.0,0.0,0.0,0.0,0.0,0.0,0.0,0.0,0.0,0.0,0.0,0.0,0.0,0.0,0.0,0.0,0.0,0.0,0.0,0.0,0.0,0.0,0.0,0.0,0.0,0.0,0.0,0.0,0.0,0.0,0.0,1.661,1.702,0.0,0.0,0.0,0.0,0.0,0.0,0.0,0.0,2.0109,0.0,0.0,0.0,0.0,0.0,0.0,0.0,0.0,0.0,0.0,0.0,0.0,0.0,0.0,0.0,0.0,0.0,0.0,0.0,0.0,0.0,0.0,0.0,0.0,0.0,0.0,0.0,0.0,0.0,0.0,0.0,0.0,0.0,0.0,0.0,0.0,0.0,0.0,0.0,0.0,0.0,0.0,0.0,0.0,0.0,0.0,0.0,0.0,0.0,0.0,0.0,0.0,0.0,0.0,0.0,1.9813,2.0732,2.1723,2.2716,2.3159,2.3287,2.3091,2.3391,2.2832,0.0,0.0,0.0,0.0,0.0,0.0,0.0,0.0,0.0,0.0,0.0,0.0,0.0,0.0,0.0,0.0,0.0,0.0,0.0,0.0,0.0,0.0,0.0,0.0,0.0,0.0,0.0,0.0,0.0,0.0,0.0,0.0,0.0,0.0,0.0,0.0,0.0,0.0,0.0,0.0,1.7762,1.8366,1.9224,0.0,0.0,0.0,0.0,0.0,0.0,2.051,2.0511,0.0,0.0,0.0,0.0,0.0,0.0,0.0,0.0,0.0,0.0,0.0,0.0,0.0,0.0,0.0,0.0,0.0,0.0,0.0,0.0,0.0,0.0,0.0,0.0,0.0,0.0,0.0,0.0,0.0,0.0,0.0,0.0,0.0,0.0,0.0,0.0,0.0,0.0,0.0,0.0,0.0,0.0,0.0,0.0,0.0,0.0,0.0,0.0,0.0,0.0,0.0,0.0,0.0,0.0,0.0,1.9644,2.1041,2.2098,2.2785,2.3588,2.3819,2.3451,2.3592,2.313,0.0,0.0,0.0,0.0,0.0,0.0,0.0,0.0,0.0,0.0,0.0,0.0,0.0,0.0,0.0,0.0,0.0,0.0,0.0,0.0,0.0,0.0,0.0,0.0,0.0,0.0,0.0,0.0,0.0,0.0,0.0,0.0,0.0,0.0,0.0,0.0,0.0,0.0,0.0,0.0,0.0,1.9632,2.0469,2.0604,0.0,0.0,0.0,0.0,2.0524,2.0638,0.0,0.0,0.0,0.0,0.0,0.0,0.0,0.0,0.0,0.0,0.0,0.0,0.0,0.0,0.0,0.0,0.0,0.0,0.0,0.0,0.0,0.0,0.0,0.0,0.0,0.0,0.0,0.0,0.0,0.0,0.0,0.0,0.0,0.0,0.0,0.0,0.0,0.0,0.0,0.0,0.0,0.0,0.0,0.0,0.0,0.0,0.0,0.0,0.0,0.0,0.0,0.0,0.0,0.0,0.0,0.0,1.9423,2.1289,2.2686,2.3384,2.4239,2.474,2.4845,2.4443,2.3674,0.0,0.0,0.0,0.0,0.0,0.0,0.0,0.0,0.0,0.0,0.0,0.0,0.0,0.0,0.0,0.0,0.0,0.0,0.0,0.0,0.0,0.0,0.0,0.0,0.0,0.0,0.0,0.0,0.0,0.0,0.0,0.0,0.0,0.0,0.0,0.0,0.0,0.0,0.0,0.0,0.0,1.9609,2.0488,2.0542,2.0516,0.0,0.0,2.1395,2.0617,2.1143,0.0,0.0,0.0,0.0,0.0,0.0,0.0,0.0,0.0,0.0,0.0,0.0,0.0,0.0,0.0,0.0,0.0,0.0,0.0,0.0,0.0,0.0,0.0,0.0,0.0,0.0,0.0,0.0,0.0,0.0,0.0,0.0,0.0,0.0,0.0,0.0,0.0,0.0,0.0,0.0,0.0,0.0,0.0,0.0,0.0,0.0,0.0,0.0,0.0,0.0,0.0,0.0,0.0,0.0,0.0,1.9274,1.9287,2.1601,2.3019,2.3393,2.4618,2.5154,2.5008,2.4496,2.3922,0.0,0.0,0.0,0.0,0.0,0.0,0.0,0.0,0.0,0.0,0.0,0.0,0.0,0.0,0.0,0.0,0.0,0.0,0.0,0.0,0.0,0.0,0.0,0.0,0.0,0.0,0.0,0.0,0.0,0.0,0.0,0.0,0.0,0.0,0.0,0.0,0.0,0.0,0.0,0.0,0.0,0.0,2.1221,2.1659,0.0,0.0,0.0,2.2405,2.2035,0.0,0.0,0.0,0.0,0.0,0.0,0.0,0.0,0.0,0.0,0.0,0.0,0.0,0.0,0.0,0.0,0.0,0.0,0.0,0.0,0.0,0.0,0.0,0.0,0.0,0.0,0.0,0.0,0.0,0.0,0.0,0.0,0.0,0.0,0.0,0.0,0.0,0.0,0.0,0.0,0.0,0.0,0.0,0.0,0.0,0.0,0.0,0.0,0.0,0.0,0.0,0.0,0.0,0.0,0.0,0.0,0.0,1.9036,2.1677,2.3131,2.3234,2.4726,2.5362,2.5062,2.4448,0.0,0.0,0.0,0.0,0.0,0.0,0.0,0.0,0.0,0.0,0.0,0.0,0.0,0.0,0.0,0.0,0.0,0.0,0.0,0.0,0.0,0.0,0.0,0.0,0.0,0.0,0.0,1.6928,0.0,0.0,0.0,0.0,0.0,0.0,0.0,0.0,0.0,0.0,0.0,0.0,0.0,0.0,2.1795,2.1792,2.2541,2.3097,0.0,0.0,2.3322,2.3127,2.273,2.2273,0.0,0.0,0.0,0.0,0.0,0.0,0.0,0.0,0.0,0.0,0.0,0.0,0.0,0.0,0.0,0.0,0.0,0.0,0.0,0.0,0.0,0.0,0.0,0.0,0.0,0.0,0.0,0.0,0.0,0.0,0.0,0.0,0.0,0.0,0.0,0.0,0.0,0.0,0.0,0.0,0.0,0.0,0.0,0.0,0.0,0.0,0.0,0.0,0.0,0.0,0.0,0.0,0.0,0.0,0.0,1.8818,2.1374,2.2794,2.2982,2.4483,2.5378,2.5538,2.4439,2.395,0.0,0.0,0.0,0.0,0.0,0.0,0.0,0.0,0.0,0.0,0.0,0.0,0.0,0.0,0.0,0.0,0.0,0.0,0.0,0.0,0.0,0.0,0.0,0.0,0.0,0.0,0.0,0.0,0.0,0.0,0.0,0.0,0.0,0.0,0.0,0.0,0.0,0.0,0.0,0.0,0.0,2.1792,2.179,2.2545,2.3121,0.0,0.0,2.3964,2.3225,2.3692,2.3601,2.2059,0.0,0.0,0.0,0.0,0.0,0.0,0.0,0.0,0.0,0.0,0.0,0.0,0.0,0.0,0.0,0.0,0.0,0.0,0.0,0.0,0.0,0.0,0.0,0.0,0.0,0.0,0.0,0.0,0.0,0.0,0.0,0.0,0.0,0.0,0.0,0.0,0.0,0.0,0.0,0.0,0.0,0.0,0.0,0.0,0.0,0.0,0.0,0.0,0.0,0.0,0.0,0.0,0.0,1.8825,1.917,2.1352,2.2574,2.2763,2.4123,2.5045,2.5391,2.4209,2.3719,0.0,0.0,0.0,0.0,0.0,0.0,0.0,0.0,0.0,0.0,0.0,0.0,0.0,0.0,0.0,0.0,0.0,0.0,0.0,0.0,0.0,0.0,0.0,0.0,0.0,0.0,0.0,0.0,1.911,1.9563,1.989,0.0,0.0,0.0,0.0,0.0,0.0,0.0,0.0,0.0,0.0,2.3337,2.3349,2.4085,0.0,0.0,2.4835,2.4945,2.4615,2.4416,2.4099,2.3444,2.292,0.0,0.0,0.0,0.0,0.0,0.0,0.0,0.0,0.0,0.0,0.0,0.0,0.0,0.0,0.0,0.0,0.0,0.0,0.0,0.0,0.0,0.0,0.0,0.0,0.0,0.0,0.0,0.0,0.0,0.0,0.0,0.0,0.0,0.0,0.0,0.0,0.0,0.0,0.0,0.0,0.0,0.0,0.0,0.0,0.0,0.0,0.0,0.0,0.0,0.0,0.0,0.0,1.8827,1.9545,2.1295,2.2378,2.264,2.3823,2.4589,2.4954,2.4018,2.3534,0.0,0.0,0.0,0.0,0.0,0.0,0.0,0.0,0.0,0.0,0.0,0.0,0.0,0.0,0.0,0.0,0.0,0.0,0.0,0.0,0.0,0.0,0.0,0.0,0.0,0.0,0.0,0.0,1.9997,2.038,2.0374,0.0,0.0,0.0,0.0,0.0,0.0,0.0,0.0,0.0,0.0,2.4269,2.4276,2.5001,2.5547,2.5515,2.5502,2.5515,2.5515,2.5027,2.4577,2.4347,0.0,0.0,0.0,0.0,0.0,0.0,0.0,0.0,0.0,0.0,0.0,0.0,0.0,0.0,0.0,0.0,0.0,0.0,0.0,0.0,0.0,0.0,0.0,0.0,0.0,0.0,0.0,0.0,0.0,0.0,1.1522,0.0,0.0,0.0,0.0,0.0,0.0,0.0,0.0,0.0,0.0,0.0,0.0,0.0,0.0,0.0,0.0,0.0,0.0,0.0,0.0,0.0,0.0,1.8705,1.9871,2.1163,2.2124,2.2777,2.3597,2.4109,2.4307,2.39,2.3519,2.3115,0.0,0.0,0.0,0.0,0.0,0.0,0.0,0.0,0.0,0.0,0.0,0.0,0.0,0.0,0.0,0.0,0.0,0.0,0.0,0.0,0.0,0.0,0.0,0.0,0.0,0.0,2.0169,2.0252,2.0286,0.0,0.0,0.0,0.0,0.0,0.0,0.0,0.0,0.0,0.0,2.3626,2.4205,2.4225,2.4939,2.5492,2.5515,2.5515,2.5511,2.5492,2.5457,2.5231,0.0,0.0,0.0,0.0,0.0,0.0,0.0,0.0,0.0,0.0,0.0,0.0,0.0,0.0,0.0,0.0,0.0,0.0,0.0,0.0,0.0,0.0,0.0,0.0,0.0,0.0,0.0,0.836,0.8757,0.0,0.0,0.0,0.0,0.0,0.0,0.0,0.0,0.0,0.0,0.0,1.3937,1.4005,0.0,0.0,0.0,0.0,0.0,0.0,0.0,0.0,0.0,0.0,0.0,0.0,1.8448,2.0045,2.0946,2.1715,2.233,2.3109,2.3631,2.3831,2.3493,2.2994,2.2391,0.0,0.0,0.0,0.0,0.0,0.0,0.0,0.0,0.0,0.0,0.0,0.0,0.0,0.0,0.0,0.0,0.0,0.0,0.0,0.0,0.0,0.0,0.0,0.0,0.0,2.0889,0.0,0.0,0.0,0.0,0.0,0.0,0.0,0.0,0.0,0.0,0.0,2.3324,2.3653,2.4458,2.4996,2.4996,2.5228,2.543,0.0,0.0,0.0,0.0,0.0,0.0,0.0,0.0,0.0,0.0,0.0,0.0,0.0,0.0,2.6598,2.5786,2.5405,2.5198,2.5251,0.0,0.0,0.0,0.0,0.0,0.0,0.0,0.0,0.0,0.0,0.0,0.0,0.0,0.0,0.615,0.0,0.6966,0.0,0.0,0.0,0.0,0.0,0.0,0.0,0.0,1.1447,1.1986,1.2804,1.2969,1.3541,0.0,1.4114,1.4557,0.0,0.0,0.0,0.0,0.0,0.0,0.0,0.0,1.8321,2.0091,2.0606,2.1219,2.2053,2.2664,2.3061,2.3246,2.3038,2.2753,2.242,2.1852,2.1146,0.0,0.0,0.0,0.0,0.0,0.0,0.0,0.0,0.0,0.0,0.0,0.0,0.0,0.0,0.0,0.0,0.0,0.0,0.0,0.0,0.0,0.0,0.0,2.1474,0.0,0.0,0.0,0.0,0.0,0.0,0.0,0.0,0.0,2.2379,2.3295,2.4086,2.4423,2.4971,2.5341,2.537,0.0,0.0,0.0,0.0,0.0,0.0,0.0,2.5449,2.5468,2.5708,2.6024,2.6336,2.687,2.7262,2.7251,0.0,0.0,2.6645,2.6481,2.6493,2.6552,2.6578,2.6564,2.6564,2.7022,2.744,0.0,0.0,0.0,0.0,0.0,0.0,0.0,0.0,0.3142,0.3274,0.0,0.421,0.0,0.0,0.0,0.0,0.0,0.8957,0.0,0.0,0.9923,1.0331,1.0861,1.1444,1.2229,1.3131,1.3339,1.3882,1.465,1.4812,0.0,0.0,0.0,0.0,0.0,0.0,1.8338,1.9982,2.0079,2.0698,2.1903,2.2217,2.244,2.2623,2.2621,2.2806,2.3105,2.2306,2.1604,2.1087,2.0109,0.0,0.0,0.0,0.0,0.0,0.0,0.0,0.0,0.0,0.0,0.0,0.0,0.0,0.0,0.0,0.0,0.0,0.0,0.0,0.0,2.1673,0.0,0.0,0.0,0.0,0.0,0.0,0.0,0.0,0.0,0.0,2.3936,2.3965,2.4249,2.5105,0.0,0.0,0.0,0.0,2.5394,2.5394,2.5447,2.5485,2.549,2.5484,2.5507,2.5507,0.0,0.0,2.7919,2.8102,2.8136,2.8121,2.8198,2.8194,2.8171,2.8052,2.8034,2.812,2.8087,2.8175,2.8178,2.8133,2.8262,-0.3683,0.0,0.0,0.0,0.0,0.0981,0.0979,0.0948,0.1113,0.1356,0.1671,0.2359,0.0,0.0,0.0,0.0,0.0,0.0,0.7583,0.7826,0.8253,0.8803,0.9419,1.001,1.0861,1.192,1.2355,1.303,1.3831,1.4105,1.4574,1.5198,0.0,0.0,0.0,0.0,1.7839,1.9181,1.9707,2.0375,2.1272,2.165,2.2091,2.2578,2.2819,2.2918,2.2786,2.2755,2.2112,2.0758,2.056,0.0,0.0,0.0,0.0,0.0,0.0,0.0,0.0,0.0,0.0,0.0,0.0,0.0,0.0,0.0,0.0,0.0,0.0,0.0,2.2133,2.2557,2.2693,0.0,0.0,0.0,0.0,0.0,0.0,0.0,0.0,0.0,2.5322,2.4907,2.4943,0.0,0.0,2.6219,2.6854,2.6924,2.6949,2.6949,2.7002,0.0,2.7037,2.7099,2.7122,2.7186,2.7403,2.7667,2.7974,2.8539,2.8949,2.8971,2.9474,2.989,2.9803,2.8873,2.8177,2.8113,2.8123,2.8137,2.8231,2.8678,2.9119,-0.6314,-0.4137,-0.2802,-0.1956,-0.1485,-0.1258,-0.1225,-0.1339,-0.1093,-0.0796,-0.0428,0.021,0.0949,0.1895,0.3076,0.0,0.0,0.0,0.583,0.6163,0.6693,0.7393,0.8242,0.8979,0.9899,1.1027,1.1546,1.223,1.3064,1.3387,1.3907,1.4522,0.0,0.0,1.6052,1.6504,1.735,1.861,1.911,1.9753,2.0595,2.1166,2.1736,2.2347,2.2655,2.2819,2.2801,2.2808,2.2278,2.1106,2.0794,2.0083,0.0,0.0,0.0,0.0,0.0,0.0,0.0,0.0,0.0,0.0,0.0,1.9208,1.9519,0.0,0.0,0.0,2.0922,2.1635,2.2903,2.3163,0.0,0.0,0.0,0.0,0.0,0.0,0.0,2.4186,2.5416,2.6264,2.6253,2.5916,2.5947,2.66,2.669,2.689,2.7454,0.0,2.7525,2.7551,2.7612,2.7631,2.7663,2.7725,2.7904,2.8329,2.8364,2.8544,2.8932,2.9429,2.9772,2.9825,3.024,3.0602,3.0616,2.9758,2.9105,2.9131,2.9123,2.9156,2.9177,2.9624,2.9993,-0.8196,-0.742,-0.5245,-0.4083,-0.3653,-0.3258,-0.3204,-0.3397,-0.3283,-0.3003,-0.2537,-0.2067,-0.1292,-0.0276,0.1409,0.0,0.3048,0.3508,0.4094,0.4693,0.5237,0.6149,0.7284,0.8183,0.9212,1.0382,1.0889,1.1569,1.2359,1.2679,1.315,1.3755,1.4401,1.515,1.5912,1.6185,1.6942,1.8181,1.8395,1.8981,1.9978,2.0772,2.1399,2.1912,2.2208,2.2601,2.3024,2.2657,2.2259,2.1851,2.0941,2.0189,1.9688,0.0,0.0,0.0,0.0,0.0,0.0,0.0,0.0,0.0,0.0,0.0,0.0,0.0,0.0,0.0,2.1773,0.0,2.3383,2.3551,0.0,0.0,0.0,2.302,2.3198,2.3887,2.4659,2.5445,0.0,0.0,2.6861,2.6986,2.7168,2.7407,2.7401,2.7423,2.7585,2.7638,2.7616,2.7759,2.7716,2.7733,2.7958,2.7994,2.8325,2.9029,2.9212,2.9503,3.0188,3.0413,3.0462,3.0433,3.0554,3.0593,3.0574,3.052,3.0616,3.0607,3.0599,3.0649,3.0591,3.0591,3.0631,-0.8939,-0.8409,-0.757,-0.6502,-0.5377,-0.497,-0.4877,-0.4977,-0.4599,-0.4273,-0.4037,-0.3334,-0.2321,-0.1076,-0.0031,0.0809,0.1527,0.2005,0.2713,0.361,0.4273,0.5176,0.6264,0.7251,0.8291,0.939,1.0266,1.1112,1.1936,1.2169,1.2571,1.3096,1.3276,1.4046,1.5375,1.6196,1.6807,1.7216,1.7976,1.8831,1.9811,2.0434,2.0945,2.1385,2.1855,2.224,2.2555,2.2714,2.238,2.1489,2.1448,2.0789,1.9412,1.9484,0.0,0.0,0.0,0.0,0.0,0.0,0.0,0.0,0.0,1.9321,1.9439,0.0,2.0599,0.0,2.2158,2.2949,2.3694,2.3944,0.0,0.0,2.4925,2.507,2.5116,2.5436,2.5737,2.5939,2.6808,2.7446,2.7479,2.8121,2.8598,2.8716,2.8352,2.8315,2.9014,2.9142,2.9149,2.9147,2.9187,2.9328,2.93,2.9496,2.9632,2.9889,2.9979,3.0125,3.0377,3.0433,3.0431,3.0479,3.051,3.0525,3.0525,3.0564,3.0597,3.0621,3.0633,3.0645,3.069,3.0711,3.0704,-0.9332,-0.9081,-0.8533,-0.7847,-0.7058,-0.6354,-0.6023,-0.5914,-0.5554,-0.5226,-0.4888,-0.4058,-0.3085,-0.2082,-0.128,-0.0517,0.023,0.0821,0.1587,0.2515,0.3251,0.4251,0.5441,0.6367,0.7381,0.8458,0.9384,1.0243,1.0993,1.1417,1.1903,1.2519,1.2805,1.3498,1.4567,1.5492,1.6228,1.6776,1.7711,1.8617,1.9434,1.9978,2.0459,2.0921,2.1385,2.1807,2.2137,2.2426,2.2254,2.1475,2.1456,2.0963,1.9854,1.9854,1.9671,0.0,0.0,0.0,0.0,0.0,0.0,0.0,0.0,0.0,0.0,0.0,2.1084,2.2157,2.2999,2.3656,2.4078,2.4301,2.4629,2.5108,2.5388,2.5592,2.5681,2.6122,2.6455,2.6531,2.7374,2.8009,2.8094,2.8584,2.8964,2.9055,2.8801,2.8847,2.939,2.9551,2.9589,2.9654,2.9756,2.9825,2.9899,2.9996,3.0098,3.015,3.0206,3.026,3.0311,3.0374,3.0416,3.0436,3.0474,3.0486,3.0496,3.0525,3.0559,3.0589,3.0602,3.0622,3.0683,3.0704,3.0695,-0.9556,-0.9454,-0.8861,-0.8576,-0.842,-0.7503,-0.6881,-0.6519,-0.6313,-0.5918,-0.5326,-0.4461,-0.3725,-0.309,-0.235,-0.1644,-0.0941,-0.0168,0.0605,0.1479,0.2251,0.332,0.4683,0.5543,0.6498,0.7577,0.8431,0.9198,0.9894,1.0534,1.1209,1.1856,1.2497,1.3078,1.3662,1.4419,1.5379,1.6531,1.7501,1.8278,1.8881,1.9422,1.9952,2.0485,2.0896,2.1288,2.1674,2.1973,2.1949,2.1522,2.1297,2.0965,2.0568,2.0354,2.01,0.0,2.0002,0.0,0.0,0.0,0.0,0.0,0.0,0.0,0.0,2.1184,2.1821,2.3152,2.387,2.4305,2.4485,2.4689,2.4891,2.5092,2.532,2.5537,2.5817,2.6466,2.6965,2.717,2.7888,2.8406,2.8505,2.8625,2.8737,2.8858,2.8899,2.9012,2.9289,2.9361,2.9433,2.9559,2.9636,2.9756,2.9841,2.988,2.9956,3.0064,3.0142,3.0185,3.0226,3.0299,3.0361,3.0379,3.0444,3.0493,3.0476,3.0486,3.0516,3.058,3.0617,3.0618,3.068,3.0701,3.0711,-0.9754,-0.948,-0.9242,-0.8894,-0.8484,-0.8284,-0.7857,-0.7232,-0.6646,-0.5987,-0.5395,-0.4864,-0.4328,-0.3794,-0.3088,-0.2487,-0.1884,-0.1008,-0.0134,0.0739,0.1648,0.2753,0.399,0.4716,0.5675,0.6868,0.7614,0.8361,0.921,0.9741,1.0383,1.1021,1.1545,1.2104,1.2758,0.0,0.0,0.0,1.7028,1.7667,1.8267,1.8842,1.9408,1.9927,2.0346,0.0,2.1144,2.1506,2.1494,2.1074,2.1336,0.0,0.0,0.0,0.0,0.0,0.0,0.0,0.0,0.0,0.0,0.0,2.2469,2.2232,2.158,2.2519,2.3293,2.3589,2.3885,2.4314,2.4913,2.5244,2.5691,2.6299,2.664,2.6845,2.6922,2.7285,2.7546,2.7592,2.7978,2.8237,2.8291,2.8432,2.8574,2.865,2.8712,2.8815,2.8987,2.9178,2.9318,2.9382,2.955,2.9692,2.9729,2.9823,2.9888,2.9956,3.0046,3.0121,3.0178,3.0206,3.0253,3.0299,3.0361,3.0408,3.0414,3.0469,3.052,3.0583,3.0619,3.0637,3.0683,3.0694,3.0697,-1.0079,0.0,-0.9492,-0.9177,0.0,-0.8608,-0.8247,-0.7814,-0.7199,-0.6515,-0.5789,-0.5296,-0.4794,-0.4259,-0.3658,-0.3058,-0.2388,-0.158,-0.0706,0.0134,0.0974,0.1982,0.3119,0.392,0.4851,0.5914,0.6704,0.7456,0.8236,0.8877,0.9454,1.0072,1.0643,1.1178,1.1771,1.2734,1.4085,1.5738,1.6361,1.6955,1.7556,1.8213,1.883,1.9396,1.9773,0.0,0.0,0.0,0.0,0.0,0.0,0.0,0.0,2.0953,0.0,2.1216,2.159,2.187,2.2041,2.2305,2.2512,2.2645,2.3106,2.3108,2.2393,2.34,2.4035,2.4088,2.4537,2.5036,2.5486,2.5779,2.6101,2.6573,2.6842,2.7021,2.7181,2.7353,2.7504,2.7686,2.7868,2.8011,2.8168,2.8291,2.8393,2.8484,2.8562,2.8632,2.8761,2.8994,2.9167,2.9291,2.9404,2.955,2.9673,2.9737,2.9834,2.9893,2.9967,3.003,3.0091,3.0135,3.0159,3.0233,3.0279,3.0324,3.0379,3.0444,3.0493,3.0583,3.0616,3.0608,3.0653,3.0656,3.0694,-1.0475,-1.0149,-0.974,-0.946,-0.9274,-0.8802,-0.8409,-0.8139,0.0,0.0,0.0,-0.5653,-0.516,-0.4691,-0.4159,-0.3525,-0.2854,-0.2084,-0.1277,-0.047,0.0302,0.1208,0.2216,0.3119,0.4023,0.4888,0.5752,0.6548,0.7228,0.7939,0.8554,0.9081,0.9722,1.0364,1.1045,1.2182,1.3463,1.4737,1.5517,1.6189,1.6814,1.749,1.8174,1.8762,1.9172,1.9578,2.0003,2.0409,2.0709,2.0896,2.0901,2.0946,2.0978,2.0876,2.0869,2.1026,2.1399,2.1654,2.178,2.2124,2.2363,2.2524,2.3289,2.3629,2.3281,2.4033,2.4544,2.4638,2.5267,2.5738,2.5917,2.6097,2.6292,2.652,2.6624,2.6825,2.7069,2.7164,2.7305,2.7567,2.7672,2.7789,2.8053,2.8154,2.8241,2.8358,2.8414,2.851,2.8612,2.8864,2.9067,2.9195,2.9291,2.9394,2.9569,2.9673,2.9729,2.9844,2.9857,2.9916,2.9972,3.0026,3.0087,3.0176,3.0173,3.0241,3.033,3.0373,3.0439,3.053,3.0588,3.0607,3.0608,3.0653,3.068,-1.0929,-1.0778,-1.0052,-0.9658,-0.9422,-0.9081,-0.8598,-0.7982,-0.7302,-0.6749,-0.6354,-0.5818,-0.5455,-0.5263,-0.4531,-0.3997,-0.3589,-0.2718,-0.188,-0.1143,-0.0302,0.0605,0.1479,0.2249,0.3086,0.399,0.4855,0.5547,0.617,0.6961,0.7657,0.8209,0.8856,0.9779,1.0958,1.1639,1.2343,1.313,1.4403,1.5381,1.6036,1.6652,1.7268,1.7859,1.8267,1.8762,1.9305,1.9734,2.0118,2.0459,2.0805,2.107,2.1311,2.1515,2.1685,2.1839,2.223,2.2449,2.2547,2.2915,2.3298,2.3694,2.3937,2.3977,2.3841,2.4531,2.5041,2.5173,2.5441,2.5635,2.5656,2.5968,2.6185,2.6274,2.6521,2.6725,2.6791,2.7021,2.7213,2.7291,2.7537,2.7683,2.7789,2.7982,2.8126,2.8209,2.8304,2.8393,2.8574,2.8822,2.8994,2.9055,2.9203,2.9312,2.9394,2.956,2.9673,2.9729,2.9773,2.9832,2.9907,2.9921,2.998,3.0095,3.0161,3.0192,3.0226,3.0311,3.0379,3.0444,3.0509,3.0588,3.0607,3.0604,3.0637,-1.1438,-1.1196,-1.0495,-1.008,-0.9833,-0.9177,-0.8571,-0.7954,-0.7428,-0.6975,-0.6548,-0.6181,-0.5822,-0.5359,-0.4797,-0.4331,-0.3861,-0.3088,-0.2385,-0.1748,-0.0974,-0.0168,0.0605,0.1411,0.2248,0.3052,0.3954,0.4719,0.5312,0.6108,0.6765,0.733,0.8269,0.923,1.0155,1.0793,1.1413,1.2097,1.3515,1.4579,1.5235,1.595,1.6606,1.7196,1.7611,1.8143,1.8682,1.9412,1.9986,2.0382,2.1094,2.1498,2.1463,2.1699,2.1798,2.1678,2.1996,2.2254,2.2426,2.2836,2.3238,2.3603,2.376,2.3872,2.3952,2.4483,2.491,2.5103,2.524,2.5429,2.5578,2.5766,2.5968,2.6168,2.6346,2.6487,2.6674,2.6825,2.7005,2.7165,2.7338,2.7489,2.7669,2.7821,2.7936,2.8053,2.8182,2.8286,2.8401,2.8637,2.8852,2.8982,2.9089,2.9174,2.9272,2.9394,2.954,2.9664,2.9719,2.9764,2.9823,2.9857,2.9907,2.9991,3.0034,3.0113,3.0183,3.0233,3.0305,3.0385,3.0439,3.0513,3.053,3.0578,3.0619,-1.2019,-1.1682,-1.0987,-1.0535,-1.0175,-0.9379,-0.8733,-0.8261,-0.7852,-0.7395,-0.6933,-0.6568,-0.609,-0.5557,-0.5126,-0.4661,-0.4128,-0.3527,-0.2922,-0.2354,-0.1681,-0.0941,-0.0202,0.0605,0.1377,0.2147,0.3052,0.382,0.4483,0.5246,0.5976,0.6675,0.7744,0.8587,0.9256,0.9939,1.0604,1.1327,1.2551,1.3584,1.441,1.5196,1.5914,1.661,1.7144,1.7695,1.836,1.9249,1.9949,2.0416,2.124,2.165,2.1628,2.1799,2.1847,2.1711,2.1939,2.2201,2.2395,2.2635,2.2904,2.3127,2.337,2.3588,2.3839,2.4177,2.4528,2.4811,2.5025,2.5185,2.541,2.5559,2.5728,2.6023,2.6166,2.631,2.6555,2.6641,2.6791,2.7037,2.7149,2.7307,2.7504,2.7642,2.7745,2.794,2.8053,2.8182,2.8273,2.8419,2.86,2.884,2.8959,2.9055,2.9206,2.9272,2.9394,2.9589,2.9636,2.9673,2.9746,2.9835,2.9859,2.9883,2.994,3.0003,3.0113,3.0157,3.0219,3.0311,3.0374,3.0404,3.0466,3.0514,3.0569,-1.2712,-1.2319,-1.1654,-1.102,-1.036,-0.9886,-0.9483,-0.9104,-0.8507,-0.801,-0.7599,-0.6793,-0.6325,-0.6083,-0.5557,-0.5096,-0.4697,-0.4161,-0.356,-0.2922,-0.2354,-0.1715,-0.0974,-0.0235,0.0504,0.1243,0.2114,0.2818,0.3391,0.4289,0.5286,0.6383,0.7195,0.7939,0.8587,0.9262,0.9907,1.0579,1.1327,1.2313,1.3563,1.4291,1.5131,1.6147,1.6735,1.7516,1.8477,1.9256,1.9878,2.0445,2.0889,2.1341,2.179,2.1997,2.2175,2.2365,2.2802,2.3053,2.2986,2.2649,2.2575,2.2731,2.3023,2.326,2.3393,2.3566,2.3931,2.4441,2.4806,2.4985,2.508,2.5371,2.5597,2.5691,2.5968,2.6238,2.6258,2.6538,2.6708,2.6741,2.6989,2.7213,2.7276,2.7463,2.7659,2.7806,2.7922,2.8039,2.8168,2.8237,2.834,2.86,2.881,2.8982,2.9055,2.9203,2.9291,2.9353,2.9453,2.9541,2.9645,2.971,2.9738,2.9808,2.9839,2.9905,2.9964,3.0007,3.0135,3.0206,3.0266,3.0318,3.0379,3.04,3.0455,-1.3078,-1.2683,-1.2029,-1.1207,-1.042,-0.9962,-0.9602,-0.9235,-0.8762,-0.8339,-0.7947,-0.7315,-0.6789,-0.6288,-0.5752,-0.5392,-0.513,-0.4464,-0.3995,-0.356,-0.2958,-0.2353,-0.1715,-0.1008,-0.0269,0.047,0.1276,0.1982,0.2721,0.3825,0.4888,0.5789,0.6511,0.7199,0.7879,0.8549,0.923,0.9907,1.0573,1.1445,1.2594,1.369,1.4673,1.5494,1.6299,1.7124,1.8006,1.8949,1.9799,2.0414,2.1063,2.1534,2.1823,2.197,2.2074,2.2168,2.2604,2.2988,2.3146,2.3111,2.3206,2.3451,2.3374,2.343,2.3631,2.3518,2.3588,2.3931,2.4328,2.465,2.4871,2.5103,2.5314,2.5467,2.5694,2.5879,2.6025,2.6258,2.6434,2.6521,2.6758,2.6957,2.7087,2.731,2.7509,2.7659,2.7777,2.7864,2.795,2.8053,2.8196,2.8358,2.8523,2.8724,2.8893,2.9044,2.9149,2.9235,2.9312,2.9414,2.9492,2.9589,2.9664,2.971,2.9763,2.9805,2.9883,2.9924,3.0014,3.0091,3.0197,3.0259,3.0266,3.0318,3.0367,-1.3411,-1.2974,-1.2288,-1.155,-1.0727,-1.0337,-0.9946,-0.9608,-0.9127,-0.871,-0.8334,-0.7864,-0.7303,-0.6684,-0.6074,-0.5696,-0.5395,-0.4864,-0.4398,-0.4061,-0.3527,-0.2956,-0.2388,-0.1748,-0.1008,-0.0302,0.0437,0.1277,0.222,0.3389,0.4356,0.5093,0.5789,0.6482,0.7199,0.7874,0.8554,0.9224,0.9875,1.072,1.1765,1.2994,1.4153,1.5115,1.6019,1.6892,1.7691,1.8744,1.9625,2.0296,2.1014,2.1506,2.1759,2.1919,2.213,2.2365,2.2564,2.2882,2.3286,2.3401,2.354,2.3796,2.3681,2.3725,2.3827,2.3763,2.3664,2.3696,2.4053,2.4401,2.4609,2.4806,2.5005,2.5259,2.5429,2.56,2.5787,2.6005,2.6169,2.633,2.6538,2.6708,2.6942,2.7153,2.7326,2.7463,2.7569,2.7674,2.773,2.7879,2.8011,2.8126,2.8264,2.8471,2.8743,2.8893,2.8987,2.9089,2.9163,2.9259,2.9349,2.9441,2.9549,2.9569,2.9626,2.9682,2.9755,2.9827,2.9887,2.9975,3.0068,3.0113,3.0121,3.0178,3.0213,-1.3848,-1.3382,-1.2622,-1.1994,-1.1582,-1.1162,-1.0803,-1.0384,-0.9794,-0.9301,-0.8901,-0.8327,-0.7828,-0.7367,-0.6688,-0.6071,-0.5638,-0.5402,-0.4937,-0.4334,-0.403,-0.3594,-0.2956,-0.2421,-0.1782,-0.1041,-0.0302,0.0773,0.2119,0.2891,0.3623,0.4356,0.509,0.576,0.6449,0.7162,0.7879,0.8554,0.9215,1.0025,1.1061,1.2136,1.351,1.4985,1.5905,1.6806,1.788,1.8703,1.942,2.0085,2.0441,2.0965,2.1604,2.1954,2.2457,2.3259,2.2972,2.2961,2.3412,2.3299,2.323,2.3465,2.3814,2.3974,2.4036,2.423,2.4235,2.3938,2.412,2.4306,2.4346,2.4513,2.4726,2.4985,2.5182,2.5371,2.5578,2.5749,2.6005,2.6168,2.6329,2.6538,2.6842,2.6975,2.7071,2.7198,2.7324,2.7448,2.7569,2.7657,2.7792,2.7954,2.8112,2.8304,2.8549,2.8712,2.8822,2.8887,2.898,2.9123,2.9189,2.9272,2.9328,2.9411,2.9453,2.9512,2.9607,2.9664,2.9738,2.9808,2.9893,2.9924,2.9932,2.9972,3.0011,-1.3731,-1.3083,-1.2526,-1.215,-1.1855,-1.1329,-1.0993,-1.0807,-1.0092,-0.9718,-0.9479,-0.8807,-0.8259,-0.7875,-0.7339,-0.669,-0.5995,-0.5671,-0.5278,-0.477,-0.4398,-0.3995,-0.3625,-0.2989,-0.2421,-0.1782,-0.1041,0.0067,0.1445,0.222,0.2924,0.3623,0.4325,0.5057,0.5756,0.6449,0.7167,0.7862,0.8673,0.961,1.06,1.1619,1.279,1.4084,1.5339,1.6381,1.726,1.8012,1.871,1.9429,1.9791,2.028,2.0944,2.1545,2.2168,2.2841,2.2758,2.2913,2.3486,2.3561,2.3685,2.405,2.4082,2.4144,2.426,2.4266,2.4205,2.4243,2.4438,2.4502,2.4261,2.4225,2.4323,2.4641,2.4786,2.4946,2.5197,2.5391,2.56,2.5821,2.6063,2.6364,2.6538,2.6657,2.6809,2.6975,2.7088,2.7184,2.7324,2.7448,2.7554,2.7704,2.7821,2.795,2.8196,2.844,2.8619,2.8669,2.8755,2.8851,2.8952,2.9051,2.9123,2.9203,2.9278,2.933,2.9401,2.9491,2.9569,2.9598,2.9673,2.9699,2.9764,2.9753,2.9787,-1.3622,-1.2936,-1.2599,-1.2298,-1.1972,-1.1484,-1.1223,-1.1037,-1.0438,-1.011,-0.9809,-0.9236,-0.8736,-0.8282,-0.7862,-0.7294,-0.6545,-0.6044,-0.559,-0.5259,-0.4782,-0.4398,-0.4061,-0.356,-0.3025,-0.2386,-0.1513,-0.0437,0.0706,0.1512,0.2185,0.2891,0.3589,0.4323,0.5024,0.5723,0.6445,0.7161,0.8034,0.8945,1.0008,1.0946,1.1982,1.31,1.4394,1.5542,1.6508,1.726,1.8003,1.8664,1.9065,1.9616,2.041,2.1008,2.1639,2.2211,2.2304,2.2592,2.3198,2.3454,2.3738,2.4163,2.4246,2.4298,2.4463,2.4418,2.4419,2.4509,2.4628,2.4607,2.4311,2.4005,2.3966,2.4269,2.438,2.4528,2.4811,2.5005,2.5201,2.5486,2.5824,2.6063,2.6207,2.6329,2.6503,2.6708,2.6775,2.6875,2.7054,2.72,2.731,2.7417,2.7569,2.7689,2.7836,2.8045,2.8317,2.8409,2.8518,2.8619,2.8712,2.8798,2.8893,2.8991,2.906,2.9115,2.9203,2.928,2.9351,2.9372,2.9394,2.9435,2.9465,2.9494,2.9532,-1.3622,-1.2936,-1.29,-1.2532,-1.204,-1.1781,-1.144,-1.1149,-1.0893,-1.0438,-0.9954,-0.9652,-0.9226,-0.8685,-0.8295,-0.7786,-0.7204,-0.6565,-0.5984,-0.5579,-0.5225,-0.4803,-0.4334,-0.4061,-0.3558,-0.2889,-0.1714,-0.0773,0.0,0.0739,0.1445,0.2188,0.2857,0.3558,0.4287,0.5024,0.5723,0.6424,0.7175,0.8129,0.9222,1.0049,1.1043,1.2231,1.3135,1.425,1.5683,1.6473,1.7235,1.7901,1.8307,1.8967,1.9901,2.0399,2.0924,2.1514,2.1683,2.1994,2.2519,2.2914,2.3228,2.3573,2.4105,2.4359,2.4403,2.4744,2.4847,2.4598,2.4648,2.4623,2.4376,2.3969,2.3778,2.3941,2.4043,2.4135,2.4467,2.4609,2.4771,2.5201,2.553,2.5735,2.5862,2.5972,2.6118,2.633,2.6418,2.6521,2.6792,2.6925,2.7006,2.7119,2.7277,2.745,2.7524,2.7627,2.7904,2.8142,2.8282,2.8388,2.844,2.8518,2.8607,2.8688,2.8779,2.8821,2.8922,2.8996,2.906,2.9093,2.913,2.9155,2.9188,2.9201,2.9222,-1.3622,-1.2929,-1.29,-1.2629,-1.2231,-1.2009,-1.1744,-1.1484,-1.1149,-1.0738,-1.0293,-0.996,-0.9468,-0.897,-0.8627,-0.8176,-0.7618,-0.7155,-0.6564,-0.588,-0.5559,-0.5214,-0.4843,-0.4398,-0.3797,-0.2989,-0.222,-0.1479,-0.0739,-0.0034,0.0706,0.1445,0.2153,0.2857,0.3525,0.4256,0.4987,0.5701,0.6567,0.7541,0.8534,0.9398,1.0394,1.1434,1.2254,1.3208,1.4178,1.5436,1.6394,1.701,1.7491,1.825,1.922,1.9726,2.0248,2.0828,2.0955,2.123,2.1889,2.2249,2.2567,2.2944,2.3514,2.3852,2.3927,2.4305,2.4528,2.4497,2.4734,2.4792,2.4522,2.4401,2.4237,2.4133,2.3777,2.3698,2.403,2.4323,2.4605,2.4806,2.5166,2.5413,2.5489,2.5602,2.5791,2.599,2.6063,2.617,2.6418,2.6538,2.664,2.6741,2.6973,2.7152,2.7182,2.7244,2.7461,2.773,2.7904,2.8077,2.8146,2.8228,2.8291,2.8383,2.8466,2.8543,2.8632,2.8694,2.8743,2.8803,2.8833,2.885,2.8885,2.8897,2.8879,-1.3695,-1.3046,-1.2936,-1.2709,-1.2378,-1.2114,-1.1929,-1.1781,-1.1372,-1.1037,-1.0669,-1.0218,-0.9765,-0.9306,-0.8889,-0.8513,-0.8089,-0.7702,-0.7118,-0.6384,-0.5887,-0.5559,-0.5195,-0.4612,-0.3964,-0.3326,-0.2757,-0.2118,-0.1378,-0.0739,-0.0034,0.0706,0.1445,0.2084,0.2723,0.3458,0.4156,0.484,0.5679,0.6662,0.7654,0.8602,0.9577,1.0568,1.1366,1.2107,1.2952,1.4114,1.5188,1.6114,1.689,1.774,1.862,1.9031,1.9495,2.0064,2.0291,2.0539,2.121,2.1514,2.1846,2.2273,2.2763,2.3095,2.3275,2.3619,2.3901,2.4102,2.4337,2.449,2.4378,2.4245,2.4181,2.4145,2.3672,2.3472,2.3664,2.3946,2.4234,2.4405,2.4675,2.4926,2.5064,2.5185,2.5397,2.5549,2.564,2.5752,2.5992,2.6154,2.626,2.6366,2.6572,2.6691,2.6792,2.6891,2.7005,2.7244,2.7476,2.7674,2.7792,2.7879,2.7961,2.8045,2.8128,2.8165,2.8246,2.8286,2.8339,2.8417,2.8461,2.8412,2.8381,2.8438,2.8433,-1.3739,-1.3193,-1.2973,-1.279,-1.2526,-1.2187,-1.2003,-1.1929,-1.1595,-1.1298,-1.0962,-1.0481,-1.0105,-0.9765,-0.916,-0.878,-0.8589,-0.805,-0.761,-0.7118,-0.6453,-0.5859,-0.5473,-0.4805,-0.4252,-0.3761,-0.3293,-0.2654,-0.1983,-0.1378,-0.0773,-0.0034,0.0672,0.1311,0.1883,0.2589,0.3222,0.3825,0.4628,0.5573,0.6702,0.7593,0.8614,0.9728,1.04,1.1111,1.1892,1.2739,1.3833,1.5346,1.6508,1.726,1.7867,1.8263,1.8787,1.9396,1.9506,1.9857,2.0377,2.0732,2.104,2.1482,2.1865,2.2175,2.2463,2.2798,2.31,2.3318,2.356,2.38,2.3845,2.3701,2.36,2.3744,2.3495,2.3358,2.3267,2.3414,2.3653,2.3903,2.4114,2.4343,2.4549,2.4675,2.4855,2.5048,2.5201,2.5336,2.5511,2.5663,2.5862,2.5992,2.6136,2.6243,2.6331,2.6469,2.6572,2.6657,2.6907,2.7117,2.7371,2.7509,2.7569,2.7672,2.7713,2.7768,2.7811,2.7826,2.7855,2.7897,2.7897,2.7869,2.7897,2.7922,2.7936,-1.3768,-1.3193,-1.2973,-1.279,-1.2562,-1.2335,-1.2114,-1.1966,-1.1737,-1.1446,-1.1074,-1.0775,-1.0368,-0.9916,-0.9544,-0.9122,-0.8703,-0.825,-0.7902,-0.7584,-0.7007,-0.6275,-0.5679,-0.5233,-0.4719,-0.4177,-0.3763,-0.3293,-0.2688,-0.2017,-0.1412,-0.0806,-0.0067,0.0571,0.1109,0.1816,0.2453,0.3021,0.372,0.464,0.5625,0.6504,0.7475,0.8529,0.9291,1.0051,1.0925,1.204,1.3397,1.4903,1.5762,1.6385,1.6941,1.7432,1.791,1.8375,1.8677,1.8988,1.9452,1.9846,2.0204,2.0528,2.0996,2.1376,2.1471,2.1939,2.2237,2.2433,2.2647,2.2944,2.3225,2.3246,2.3029,2.2704,2.2821,2.2842,2.2619,2.2754,2.3061,2.3304,2.3588,2.3846,2.4057,2.4224,2.4369,2.4589,2.4726,2.4811,2.4974,2.5169,2.5339,2.5508,2.5642,2.5756,2.5885,2.6008,2.6081,2.6099,2.626,2.6453,2.6775,2.7053,2.7135,2.7214,2.718,2.7192,2.7257,2.7305,2.7336,2.7334,2.7334,2.7317,2.735,2.7396,2.738,-1.3848,-1.3419,-1.3053,-1.2826,-1.2709,-1.2409,-1.2231,-1.212,-1.1929,-1.1632,-1.1335,-1.1031,-1.0625,-1.0137,-0.9846,-0.9468,-0.8932,-0.8556,-0.8212,-0.7863,-0.7341,-0.6618,-0.5937,-0.555,-0.5121,-0.4546,-0.4152,-0.3661,-0.309,-0.2587,-0.2051,-0.1412,-0.0773,-0.0202,0.0336,0.0974,0.1579,0.2149,0.282,0.3701,0.4656,0.5545,0.6492,0.7472,0.8288,0.9112,1.0099,1.1223,1.2615,1.4034,1.4867,1.5471,1.6079,1.6508,1.6975,1.7482,1.7721,1.8037,1.8543,1.8911,1.9243,1.9616,2.0107,2.0323,2.0581,2.0921,2.1195,2.1365,2.1671,2.1982,2.2206,2.2439,2.2318,2.1942,2.1976,2.2014,2.177,2.1992,2.2319,2.264,2.2949,2.3216,2.3501,2.3638,2.3824,2.4009,2.4177,2.4266,2.439,2.4594,2.4775,2.4895,2.5048,2.5134,2.525,2.5365,2.5457,2.5476,2.5513,2.5721,2.6067,2.6419,2.6556,2.659,2.6607,2.6607,2.664,2.6657,2.6691,2.6691,2.6724,2.6741,2.6741,2.6724,2.6724,-1.3992,-1.3761,-1.3163,-1.29,-1.282,-1.2489,-1.2305,-1.2268,-1.2077,-1.1892,-1.1669,-1.1298,-1.0925,-1.0556,-1.0148,-0.9733,-0.9322,-0.8856,-0.8403,-0.7987,-0.7524,-0.6922,-0.6328,-0.5916,-0.5479,-0.4969,-0.4543,-0.403,-0.3484,-0.3171,-0.2654,-0.2051,-0.1479,-0.0941,-0.037,0.0134,0.0672,0.1244,0.1914,0.2725,0.3639,0.4528,0.5439,0.6366,0.7365,0.8271,0.9306,1.0282,1.1397,1.3055,1.3796,1.4482,1.5169,1.548,1.5965,1.6524,1.6715,1.7104,1.7619,1.7789,1.8138,1.8643,1.8854,1.9131,1.9507,1.9824,2.002,2.0247,2.0677,2.0901,2.1092,2.1439,2.1419,2.1087,2.0919,2.0874,2.0963,2.1144,2.1482,2.1996,2.2184,2.2426,2.2731,2.3001,2.3194,2.3275,2.3486,2.3638,2.3745,2.3915,2.4084,2.4209,2.4369,2.4492,2.4599,2.4699,2.4759,2.4819,2.4799,2.4942,2.5253,2.5577,2.5799,2.5924,2.589,2.5892,2.591,2.5962,2.5962,2.5962,2.5946,2.5946,2.5946,2.5946,2.5946,-1.4152,-1.3754,-1.3346,-1.3053,-1.29,-1.2643,-1.2452,-1.2268,-1.2077,-1.2003,-1.1855,-1.1515,-1.1186,-1.0931,-1.0406,-0.9997,-0.9657,-0.9046,-0.8403,-0.7876,-0.7765,-0.7429,-0.6915,-0.6426,-0.5973,-0.5503,-0.4981,-0.4539,-0.414,-0.3535,-0.3025,-0.2721,-0.2084,-0.1513,-0.1076,-0.0538,-0.0034,0.0504,0.1109,0.1802,0.2602,0.341,0.4255,0.5181,0.6395,0.7464,0.8351,0.9183,1.0013,1.1031,1.2254,1.3244,1.3897,1.4502,1.4887,1.5163,1.571,1.607,1.628,1.6629,1.7019,1.7345,1.7619,1.7925,1.8331,1.8667,1.89,1.9166,1.9464,1.9759,2.0031,2.0323,2.0293,2.0025,1.9708,1.9472,1.9495,1.9998,2.056,2.0979,2.131,2.1599,2.1983,2.2249,2.2434,2.2558,2.274,2.2957,2.3091,2.3224,2.3355,2.3465,2.358,2.3672,2.3736,2.3828,2.3906,2.397,2.397,2.3912,2.423,2.4556,2.4721,2.4953,2.5141,2.5125,2.507,2.5089,2.507,2.5105,2.5121,2.507,2.507,2.5105,2.5086,-1.4289,-1.3928,-1.3528,-1.3156,-1.2893,-1.2673,-1.2489,-1.2305,-1.2194,-1.2077,-1.1966,-1.1737,-1.149,-1.1068,-1.0738,-1.0363,-0.9803,-0.9084,-0.8479,-0.8102,-0.7915,-0.7688,-0.7446,-0.6973,-0.6465,-0.5978,-0.5509,-0.5099,-0.457,-0.4103,-0.3675,-0.3326,-0.2723,-0.2185,-0.1681,-0.1176,-0.0605,-0.0067,0.047,0.1049,0.1747,0.2435,0.3404,0.4388,0.5545,0.6507,0.7195,0.7927,0.8542,0.9263,1.0351,1.1583,1.2549,1.32,1.3557,1.3875,1.435,1.4796,1.5002,1.5294,1.5675,1.6062,1.6271,1.662,1.6966,1.7345,1.755,1.7823,1.8162,1.8566,1.89,1.9034,1.9,1.8922,1.8448,1.8214,1.8353,1.8944,1.9554,1.9978,2.0333,2.0658,2.1004,2.1321,2.1575,2.1667,2.188,2.2067,2.2249,2.2388,2.2526,2.264,2.2725,2.2815,2.2883,2.2928,2.2972,2.3017,2.3024,2.2913,2.2929,2.326,2.3563,2.3861,2.4153,2.4122,2.4065,2.4122,2.4085,2.4044,2.4044,2.4065,2.4065,2.4028,2.4008,-1.4453,-1.4129,-1.371,-1.3346,-1.2973,-1.2746,-1.2562,-1.2378,-1.2298,-1.2187,-1.2077,-1.2003,-1.1669,-1.126,-1.1111,-1.0625,-0.9879,-0.9198,-0.8665,-0.8399,-0.803,-0.7842,-0.768,-0.7341,-0.6904,-0.6279,-0.5948,-0.5529,-0.5098,-0.4673,-0.4269,-0.3871,-0.3417,-0.284,-0.2325,-0.1782,-0.121,-0.0706,-0.0168,0.037,0.0945,0.1581,0.2595,0.3717,0.4546,0.5239,0.5877,0.6542,0.7122,0.751,0.8232,0.9442,1.0683,1.1737,1.2181,1.2572,1.3011,1.3346,1.36,1.3897,1.4258,1.4796,1.4832,1.5117,1.5542,1.5816,1.6018,1.6298,1.6671,1.712,1.755,1.7575,1.7668,1.7673,1.723,1.704,1.7267,1.7727,1.8006,1.8756,1.9151,1.9516,1.9902,2.0232,2.0521,2.0782,2.0991,2.1161,2.131,2.142,2.1527,2.1599,2.1653,2.1663,2.171,2.1734,2.1819,2.1828,2.1889,2.1758,2.1605,2.1791,2.2136,2.2817,2.3098,2.301,2.2929,2.2892,2.2906,2.2913,2.2898,2.2855,2.2869,2.2898,2.2862,-1.4713,-1.4453,-1.3971,-1.3601,-1.3346,-1.301,-1.2709,-1.2526,-1.2378,-1.2268,-1.2231,-1.2077,-1.1855,-1.1558,-1.1223,-1.0669,-0.996,-0.9392,-0.897,-0.8665,-0.8255,-0.803,-0.7838,-0.7603,-0.7268,-0.6916,-0.6446,-0.6003,-0.5719,-0.5246,-0.4803,-0.4394,-0.3995,-0.3515,-0.2945,-0.2418,-0.192,-0.1378,-0.084,-0.0336,0.0202,0.0851,0.1602,0.2704,0.3379,0.3948,0.4513,0.5187,0.5809,0.6234,0.6892,0.7468,0.83,0.9728,1.064,1.1136,1.162,1.199,1.21,1.2432,1.2806,1.3164,1.3266,1.352,1.3954,1.4243,1.445,1.4736,1.5057,1.549,1.5886,1.5904,1.6044,1.6086,1.594,1.5602,1.5666,1.5763,1.6086,1.6912,1.7638,1.8301,1.8638,1.8943,1.9232,1.9465,1.9672,1.9902,2.0105,2.0219,2.0295,2.0395,2.0471,2.0471,2.0496,2.0483,2.0495,2.0457,2.0481,2.0369,2.0294,2.032,2.0682,2.103,2.1523,2.173,2.1697,2.1625,2.1564,2.1503,2.154,2.1564,2.1479,2.1404,2.1441,-1.4892,-1.4569,-1.4145,-1.3783,-1.3455,-1.32,-1.29,-1.2592,-1.2489,-1.2415,-1.2305,-1.2187,-1.204,-1.1818,-1.1558,-1.0925,-1.018,-0.9771,-0.9316,-0.8899,-0.8556,-0.8289,-0.8068,-0.7795,-0.7642,-0.7391,-0.6942,-0.6547,-0.6328,-0.5848,-0.5436,-0.5122,-0.467,-0.4119,-0.3623,-0.3056,-0.2517,-0.1993,-0.148,-0.0975,-0.0404,0.0272,0.1048,0.1571,0.2145,0.2734,0.326,0.3699,0.4256,0.4805,0.5312,0.5774,0.6461,0.7264,0.8443,0.9248,1.0045,1.0464,1.0539,1.0832,1.1205,1.1459,1.1601,1.1859,1.2265,1.2522,1.2821,1.3179,1.3397,1.373,1.4091,1.4127,1.4227,1.43,1.4163,1.3994,1.3867,1.3767,1.4224,1.4971,1.5793,1.6522,1.7235,1.7556,1.7884,1.8155,1.8332,1.8584,1.8797,1.8838,1.8852,1.8931,1.8972,1.8946,1.8946,1.8919,1.8907,1.8946,1.8919,1.8814,1.8735,1.8655,1.8617,1.878,1.9339,1.9889,2.0205,2.0054,2.0079,2.0029,1.9927,1.9864,1.9877,1.9889,1.9877,-1.507,-1.4677,-1.4353,-1.3992,-1.3601,-1.3346,-1.3053,-1.279,-1.2673,-1.2562,-1.2378,-1.2342,-1.2231,-1.1966,-1.1632,-1.1074,-1.0293,-1.0035,-0.9544,-0.9094,-0.8784,-0.8589,-0.8327,-0.8063,-0.7838,-0.7761,-0.7553,-0.7148,-0.6757,-0.6416,-0.6134,-0.5742,-0.5198,-0.4698,-0.425,-0.3701,-0.312,-0.2597,-0.2134,-0.1591,-0.0914,-0.0172,0.0418,0.0631,0.1059,0.1568,0.201,0.2418,0.2801,0.3281,0.3756,0.4224,0.4724,0.4996,0.577,0.7034,0.8147,0.8647,0.8879,0.9102,0.9437,0.9734,0.9847,1.0142,1.0484,1.0815,1.1118,1.1564,1.1712,1.1822,1.2111,1.2265,1.2301,1.2371,1.2332,1.227,1.2106,1.202,1.2055,1.2865,1.3872,1.4622,1.5245,1.5869,1.6123,1.6444,1.6658,1.6903,1.7114,1.7236,1.7263,1.7335,1.7363,1.7335,1.728,1.7214,1.7175,1.7148,1.712,1.7037,1.6937,1.6837,1.6759,1.6644,1.6922,1.7427,1.7955,1.8404,1.8262,1.8182,1.8178,1.8124,1.8047,1.7993,1.7955,-1.5311,-1.5098,-1.4705,-1.4353,-1.3992,-1.363,-1.3346,-1.3127,-1.2936,-1.2753,-1.2562,-1.2526,-1.2335,-1.1966,-1.1446,-1.1037,-1.0625,-1.018,-0.9733,-0.9322,-0.8937,-0.867,-0.8403,-0.8178,-0.8063,-0.803,-0.7987,-0.7633,-0.724,-0.6927,-0.656,-0.6179,-0.5922,-0.5528,-0.4787,-0.4342,-0.3928,-0.3362,-0.2926,-0.2306,-0.159,-0.0947,-0.0548,-0.0278,0.0071,0.0434,0.0785,0.1173,0.1572,0.1873,0.2232,0.2663,0.3052,0.3287,0.3521,0.4373,0.5571,0.6927,0.7126,0.7387,0.7689,0.7948,0.81,0.8333,0.867,0.8978,0.9281,0.9599,0.9631,0.9771,1.0018,1.0179,1.0297,1.0479,1.0521,1.0473,1.0359,1.0234,1.028,1.0361,1.1243,1.2242,1.3069,1.3737,1.4339,1.4662,1.4964,1.5168,1.5341,1.538,1.5437,1.5446,1.534,1.5311,1.5244,1.5225,1.5186,1.5206,1.5129,1.5071,1.4916,1.4742,1.4644,1.4596,1.479,1.5003,1.553,1.5948,1.6198,1.6254,1.6177,1.6151,1.6126,1.6097,1.601,-1.5638,-1.5319,-1.482,-1.4533,-1.4317,-1.3891,-1.3572,-1.3346,-1.3163,-1.2973,-1.2783,-1.2636,-1.2372,-1.1966,-1.1595,-1.1298,-1.0931,-1.0443,-1.003,-0.962,-0.9241,-0.8937,-0.8713,-0.8441,-0.8289,-0.825,-0.8178,-0.7991,-0.7642,-0.7365,-0.7046,-0.6741,-0.6377,-0.6009,-0.5359,-0.4939,-0.4463,-0.3877,-0.3281,-0.2715,-0.2269,-0.1766,-0.1319,-0.113,-0.0833,-0.0568,-0.029,-0.0112,0.0303,0.0616,0.0932,0.1216,0.1606,0.184,0.1997,0.2309,0.3086,0.4215,0.527,0.5616,0.5922,0.6153,0.6342,0.6531,0.68,0.6992,0.7222,0.7528,0.7528,0.7677,0.7897,0.8096,0.8172,0.832,0.8509,0.8496,0.8454,0.8498,0.8467,0.8503,0.8603,0.9514,1.0466,1.1236,1.1936,1.2568,1.2841,1.3082,1.3211,1.3309,1.3339,1.3378,1.3249,1.3121,1.3082,1.3044,1.289,1.286,1.2756,1.2704,1.2659,1.2554,1.2425,1.231,1.2279,1.2635,1.3117,1.3761,1.4273,1.4262,1.4162,1.4093,1.4025,1.3945,1.3868,-1.5956,-1.5611,-1.4991,-1.4713,-1.4569,-1.4116,-1.379,-1.3572,-1.3426,-1.32,-1.2936,-1.2716,-1.2415,-1.215,-1.1892,-1.1558,-1.1149,-1.0743,-1.0331,-0.9879,-0.9511,-0.9175,-0.8903,-0.8632,-0.8475,-0.8475,-0.8365,-0.8255,-0.8102,-0.7863,-0.7595,-0.7296,-0.6888,-0.6416,-0.6046,-0.5588,-0.5081,-0.4444,-0.373,-0.3248,-0.2999,-0.2576,-0.2172,-0.1902,-0.1713,-0.1495,-0.1199,-0.1132,-0.0823,-0.0608,-0.0465,-0.0196,0.0235,0.0352,0.0549,0.0784,0.1253,0.18,0.2893,0.3595,0.4064,0.4375,0.4533,0.4758,0.4872,0.4947,0.5063,0.5408,0.5408,0.56,0.5796,0.5909,0.6024,0.614,0.6294,0.6352,0.6388,0.6436,0.6444,0.6431,0.6477,0.656,0.7487,0.8478,0.937,1.0297,1.0743,1.0961,1.1047,1.1102,1.1095,1.105,1.0926,1.0771,1.0746,1.0715,1.0615,1.0483,1.0372,1.0354,1.0309,1.0284,1.0165,1.0021,0.9895,0.9876,1.0145,1.1298,1.2334,1.2165,1.2005,1.1928,1.1866,1.1789,1.1751,-1.6202,-1.5991,-1.5417,-1.4955,-1.4605,-1.4461,-1.4152,-1.3834,-1.3761,-1.3492,-1.3119,-1.2783,-1.2643,-1.2452,-1.2114,-1.1737,-1.1372,-1.0962,-1.0475,-0.996,-0.9511,-0.9251,-0.9018,-0.8822,-0.8665,-0.8665,-0.8594,-0.8522,-0.8441,-0.8365,-0.7983,-0.7522,-0.733,-0.6903,-0.6496,-0.612,-0.5574,-0.4963,-0.4301,-0.3951,-0.3686,-0.3354,-0.304,-0.2705,-0.2567,-0.2455,-0.2135,-0.202,-0.192,-0.1806,-0.1739,-0.1568,-0.1175,-0.1096,-0.0901,-0.0627,-0.0431,-0.0039,0.0548,0.1643,0.2388,0.266,0.2815,0.2932,0.3007,0.3161,0.3278,0.3315,0.3352,0.3392,0.3511,0.363,0.3861,0.3975,0.4121,0.4241,0.427,0.4335,0.4364,0.4357,0.4368,0.4456,0.4494,0.5454,0.6863,0.7822,0.8377,0.8595,0.8691,0.8749,0.8697,0.8633,0.8478,0.8382,0.8356,0.8217,0.7967,0.7903,0.7844,0.7896,0.797,0.7916,0.7809,0.7782,0.7643,0.7399,0.7344,0.8468,0.9358,0.9749,0.9857,0.9768,0.9737,0.9705,0.968,-1.6377,-1.6167,-1.5753,-1.5355,-1.4955,-1.4633,-1.4397,-1.4145,-1.3899,-1.3572,-1.3193,-1.3046,-1.282,-1.2562,-1.2342,-1.1966,-1.1558,-1.1149,-1.07,-1.0255,-0.9884,-0.9511,-0.9246,-0.898,-0.8827,-0.878,-0.8822,-0.8865,-0.8789,-0.8751,-0.8594,-0.8246,-0.7787,-0.7403,-0.7022,-0.6528,-0.5947,-0.5469,-0.4983,-0.4693,-0.4444,-0.414,-0.3785,-0.3348,-0.3305,-0.315,-0.2893,-0.2889,-0.284,-0.283,-0.2806,-0.2649,-0.2466,-0.2427,-0.2233,-0.1961,-0.1844,-0.1686,-0.1293,-0.0196,0.0704,0.0901,0.1017,0.1096,0.1134,0.1173,0.129,0.1329,0.1368,0.1406,0.1602,0.172,0.1799,0.1838,0.1948,0.2092,0.2212,0.2264,0.2319,0.2336,0.2303,0.231,0.2339,0.2471,0.3957,0.5304,0.58,0.6225,0.6282,0.6306,0.6205,0.6071,0.5908,0.5777,0.5716,0.5527,0.5304,0.5334,0.5334,0.5432,0.5498,0.5443,0.5373,0.538,0.5413,0.5282,0.5377,0.584,0.6522,0.7362,0.7631,0.7603,0.7603,0.7603,0.7603,-1.6473,-1.6272,-1.6008,-1.5647,-1.5275,-1.4856,-1.4605,-1.4425,-1.4109,-1.3754,-1.3382,-1.3309,-1.3083,-1.2709,-1.2489,-1.2187,-1.1781,-1.1372,-1.0999,-1.055,-1.0067,-0.9733,-0.9397,-0.9175,-0.8941,-0.8899,-0.8899,-0.8984,-0.9061,-0.9103,-0.8941,-0.8632,-0.8169,-0.7825,-0.7292,-0.6834,-0.6257,-0.5877,-0.5634,-0.5344,-0.5087,-0.4859,-0.4535,-0.4154,-0.4099,-0.3974,-0.3804,-0.3828,-0.3864,-0.3819,-0.3821,-0.3744,-0.364,-0.3524,-0.3446,-0.3292,-0.3136,-0.2978,-0.2585,-0.1645,-0.0783,-0.0548,-0.0509,-0.0548,-0.0627,-0.0627,-0.0509,-0.0587,-0.0548,-0.047,-0.0274,-0.0274,-0.0195,-0.0156,-0.0039,0.0078,0.0115,0.0188,0.0258,0.0289,0.0245,0.0169,0.0201,0.0301,0.1431,0.2788,0.3489,0.3784,0.3784,0.3751,0.3621,0.3454,0.3288,0.3156,0.3025,0.2896,0.2834,0.2889,0.2924,0.2928,0.2965,0.2943,0.3076,0.3199,0.3234,0.3174,0.3239,0.3398,0.4224,0.5285,0.5413,0.5475,0.5446,0.5443,0.5446,-1.6508,-1.6272,-1.6132,-1.585,-1.5505,-1.5078,-1.4784,-1.4605,-1.4425,-1.4109,-1.3754,-1.3572,-1.3309,-1.2936,-1.2709,-1.2378,-1.1966,-1.1595,-1.1186,-1.0738,-1.0255,-0.9846,-0.9549,-0.9322,-0.9137,-0.9213,-0.9175,-0.9175,-0.9284,-0.9284,-0.917,-0.9018,-0.8632,-0.8169,-0.7522,-0.7096,-0.6676,-0.6335,-0.6282,-0.5968,-0.5629,-0.5476,-0.5242,-0.4963,-0.4862,-0.4698,-0.4582,-0.4635,-0.4673,-0.4672,-0.4732,-0.4727,-0.4618,-0.4621,-0.4543,-0.4345,-0.4345,-0.4304,-0.4224,-0.2741,-0.2154,-0.1997,-0.1996,-0.2035,-0.2116,-0.2155,-0.2194,-0.219,-0.2308,-0.2347,-0.2308,-0.2228,-0.215,-0.2072,-0.1993,-0.195,-0.193,-0.1903,-0.1822,-0.1824,-0.1917,-0.2001,-0.1965,-0.1672,-0.0767,0.02,0.1035,0.1369,0.1369,0.1269,0.1136,0.0909,0.0708,0.0509,0.0408,0.0371,0.0336,0.0436,0.0472,0.0442,0.0545,0.0682,0.0815,0.1011,0.1051,0.096,0.0849,0.0773,0.1659,0.249,0.318,0.3334,0.3303,0.3316,0.333,-1.6691,-1.6473,-1.6307,-1.6105,-1.585,-1.547,-1.5114,-1.4784,-1.4497,-1.4245,-1.3992,-1.379,-1.3572,-1.3266,-1.2936,-1.2599,-1.2194,-1.1781,-1.1366,-1.0962,-1.0481,-1.0105,-0.9803,-0.9544,-0.9359,-0.9359,-0.9322,-0.9397,-0.9506,-0.9506,-0.9473,-0.9322,-0.8899,-0.8284,-0.7676,-0.7292,-0.7099,-0.6753,-0.6668,-0.6528,-0.6256,-0.609,-0.5878,-0.5547,-0.5436,-0.5329,-0.5198,-0.5318,-0.537,-0.535,-0.5416,-0.5431,-0.5473,-0.5476,-0.5437,-0.5395,-0.5395,-0.5315,-0.5196,-0.453,-0.4105,-0.3793,-0.3483,-0.3522,-0.3641,-0.3641,-0.3717,-0.3756,-0.3793,-0.3793,-0.3715,-0.383,-0.3828,-0.3906,-0.3867,-0.3945,-0.399,-0.392,-0.392,-0.3974,-0.4066,-0.4067,-0.4069,-0.4102,-0.3383,-0.2829,-0.2122,-0.1241,-0.1039,-0.1141,-0.131,-0.1604,-0.1825,-0.2051,-0.2197,-0.2114,-0.2082,-0.2051,-0.2033,-0.2055,-0.191,-0.1609,-0.1437,-0.1259,-0.1231,-0.1236,-0.119,-0.1149,-0.1022,-0.0458,0.0344,0.1151,0.1388,0.1365,0.1378,-1.6795,-1.6568,-1.6473,-1.6272,-1.6061,-1.5674,-1.5292,-1.5007,-1.4721,-1.4461,-1.4281,-1.4072,-1.379,-1.3492,-1.3236,-1.282,-1.2378,-1.1966,-1.1589,-1.118,-1.07,-1.0331,-1.003,-0.9728,-0.9587,-0.9549,-0.9549,-0.962,-0.9695,-0.9695,-0.9657,-0.9468,-0.9089,-0.8556,-0.8059,-0.7753,-0.745,-0.7138,-0.7015,-0.6865,-0.67,-0.6538,-0.6395,-0.6204,-0.6091,-0.5986,-0.5905,-0.5925,-0.5988,-0.5983,-0.603,-0.6096,-0.6209,-0.6247,-0.6251,-0.6328,-0.6402,-0.636,-0.6279,-0.6244,-0.5851,-0.558,-0.516,-0.4888,-0.489,-0.4888,-0.5004,-0.5082,-0.5124,-0.5198,-0.5234,-0.5386,-0.5425,-0.5464,-0.558,-0.5657,-0.5752,-0.5689,-0.5816,-0.5882,-0.6013,-0.6049,-0.618,-0.6301,-0.6112,-0.5739,-0.5335,-0.4459,-0.3563,-0.3578,-0.3735,-0.3968,-0.4189,-0.4361,-0.4493,-0.4531,-0.4512,-0.4516,-0.4426,-0.4336,-0.4118,-0.3774,-0.3672,-0.3481,-0.3313,-0.3158,-0.3069,-0.2968,-0.2892,-0.2727,-0.2259,-0.1462,-0.0724,-0.0522,-0.0565,-1.6795,-1.6603,-1.6603,-1.6403,-1.6096,-1.5744,-1.5426,-1.5204,-1.5007,-1.4784,-1.4569,-1.4461,-1.4109,-1.3608,-1.3499,-1.3119,-1.2592,-1.2187,-1.1781,-1.1372,-1.085,-1.0513,-1.018,-0.9884,-0.9771,-0.9771,-0.9771,-0.9771,-0.9884,-0.9922,-0.9803,-0.9582,-0.9246,-0.8861,-0.8518,-0.8174,-0.7795,-0.7557,-0.733,-0.7215,-0.7061,-0.6938,-0.6815,-0.6705,-0.6659,-0.6698,-0.6679,-0.6743,-0.6793,-0.6808,-0.6857,-0.6899,-0.6899,-0.6899,-0.7022,-0.7215,-0.7407,-0.7442,-0.7442,-0.7442,-0.7442,-0.7088,-0.6433,-0.6051,-0.5938,-0.6051,-0.6202,-0.6398,-0.6475,-0.6668,-0.6784,-0.6822,-0.6857,-0.6973,-0.7088,-0.7199,-0.731,-0.7399,-0.7534,-0.7674,-0.785,-0.7986,-0.8215,-0.8354,-0.8383,-0.8373,-0.8,-0.7674,-0.6845,-0.6051,-0.6161,-0.6259,-0.6461,-0.6623,-0.6698,-0.6748,-0.663,-0.6562,-0.6448,-0.6339,-0.614,-0.5883,-0.5682,-0.5435,-0.5264,-0.508,-0.4922,-0.4876,-0.4837,-0.462,-0.4439,-0.3589,-0.2667,-0.2479,-0.2437,-1.6864,-1.6795,-1.6682,-1.6533,-1.6438,-1.6061,-1.5744,-1.5426,-1.5213,-1.4999,-1.4836,-1.4641,-1.4317,-1.392,-1.3637,-1.3236,-1.2826,-1.2409,-1.2003,-1.1558,-1.1111,-1.0738,-1.0443,-1.0143,-1.003,-0.9916,-0.9879,-0.9916,-1.0067,-1.0105,-1.003,-0.9809,-0.9511,-0.9241,-0.8937,-0.8599,-0.825,-0.7944,-0.7718,-0.7565,-0.745,-0.7296,-0.7219,-0.7138,-0.7057,-0.7099,-0.7176,-0.718,-0.7215,-0.7326,-0.7326,-0.7365,-0.7553,-0.7553,-0.7672,-0.8016,-0.8208,-0.836,-0.836,-0.8356,-0.8356,-0.8394,-0.8008,-0.7736,-0.7472,-0.7318,-0.7395,-0.7548,-0.7668,-0.7783,-0.7859,-0.7936,-0.8046,-0.8161,-0.8351,-0.8533,-0.868,-0.885,-0.9018,-0.9362,-0.9564,-0.9818,-1.0078,-1.0201,-1.0229,-1.0537,-1.0567,-1.033,-0.9814,-0.8938,-0.8455,-0.8497,-0.85,-0.8587,-0.8783,-0.8867,-0.8696,-0.8556,-0.8407,-0.8194,-0.7963,-0.7753,-0.7592,-0.7343,-0.7015,-0.6827,-0.6761,-0.6716,-0.667,-0.6712,-0.6491,-0.5553,-0.4787,-0.4522,-0.4286,-1.6908,-1.6899,-1.676,-1.6682,-1.6533,-1.6298,-1.6,-1.5718,-1.5461,-1.5248,-1.5114,-1.4828,-1.4577,-1.4238,-1.392,-1.3521,-1.3119,-1.2636,-1.2187,-1.1781,-1.1335,-1.0962,-1.0631,-1.0368,-1.0218,-1.0105,-1.0105,-1.0148,-1.0293,-1.0293,-1.0218,-1.0035,-0.9809,-0.9549,-0.9284,-0.9018,-0.8789,-0.8446,-0.8144,-0.7991,-0.7799,-0.7684,-0.7603,-0.7526,-0.7365,-0.7446,-0.7526,-0.7526,-0.7642,-0.7829,-0.7863,-0.794,-0.8127,-0.8241,-0.8394,-0.8742,-0.8899,-0.9046,-0.9122,-0.9155,-0.9155,-0.9231,-0.9344,-0.9226,-0.8917,-0.8651,-0.8613,-0.8656,-0.8694,-0.8732,-0.8851,-0.8965,-0.9117,-0.9268,-0.9566,-0.9863,-1.0051,-1.0239,-1.0559,-1.0963,-1.1267,-1.1522,-1.175,-1.1876,-1.2087,-1.2353,-1.2515,-1.2444,-1.1908,-1.1122,-1.0659,-1.05,-1.0498,-1.0528,-1.0668,-1.0677,-1.0413,-1.0193,-1.0112,-0.9883,-0.9717,-0.947,-0.9205,-0.8957,-0.8642,-0.8538,-0.8439,-0.8462,-0.8421,-0.8452,-0.8447,-0.7889,-0.708,-0.6442,-0.6204,-1.6908,-1.6908,-1.6908,-1.6786,-1.6612,-1.6403,-1.6237,-1.6061,-1.5709,-1.5532,-1.5399,-1.5078,-1.4784,-1.4497,-1.4173,-1.3811,-1.3339,-1.2863,-1.2415,-1.2003,-1.1484,-1.1111,-1.0775,-1.0475,-1.0406,-1.0363,-1.0363,-1.0331,-1.0481,-1.0519,-1.0443,-1.0255,-1.0073,-0.9846,-0.9582,-0.943,-0.9203,-0.8903,-0.856,-0.8293,-0.8144,-0.8102,-0.8102,-0.8063,-0.8063,-0.8106,-0.8102,-0.8178,-0.8255,-0.8403,-0.8518,-0.8589,-0.8742,-0.9003,-0.9198,-0.9387,-0.9582,-0.9765,-0.9916,-0.9954,-0.9986,-1.0062,-1.0175,-1.0319,-1.0126,-0.9712,-0.9604,-0.9679,-0.9717,-0.9755,-0.983,-0.9943,-1.0056,-1.0244,-1.0507,-1.0881,-1.1254,-1.1477,-1.1879,-1.2241,-1.2538,-1.2841,-1.3186,-1.3312,-1.3459,-1.392,-1.4145,-1.4153,-1.385,-1.3093,-1.2665,-1.2364,-1.2168,-1.2081,-1.2084,-1.2057,-1.1916,-1.1768,-1.1626,-1.1446,-1.1143,-1.0956,-1.0812,-1.0539,-1.0265,-1.0158,-1.011,-1.0078,-1.0078,-1.0078,-1.0078,-1.0078,-0.9524,-0.8699,-0.809,-1.6908,-1.6908,-1.6908,-1.6795,-1.6603,-1.6542,-1.6403,-1.6237,-1.6061,-1.578,-1.5497,-1.5248,-1.4919,-1.4641,-1.4317,-1.3928,-1.3492,-1.3083,-1.2636,-1.2231,-1.1744,-1.1372,-1.1037,-1.0775,-1.0625,-1.0513,-1.0481,-1.0556,-1.07,-1.0738,-1.07,-1.0625,-1.0443,-1.018,-0.9879,-0.9728,-0.9582,-0.9284,-0.9094,-0.8713,-0.8408,-0.8178,-0.8102,-0.8178,-0.8217,-0.8446,-0.8556,-0.8703,-0.8856,-0.9051,-0.9051,-0.9203,-0.9349,-0.969,-0.9879,-1.0035,-1.0293,-1.0475,-1.0625,-1.0738,-1.0812,-1.0925,-1.1074,-1.126,-1.1186,-1.0694,-1.0545,-1.0657,-1.0738,-1.0775,-1.0812,-1.0887,-1.0999,-1.1223,-1.1446,-1.1892,-1.2378,-1.2746,-1.3112,-1.3404,-1.3695,-1.4049,-1.4446,-1.4697,-1.4911,-1.5117,-1.5278,-1.5349,-1.5305,-1.4846,-1.4303,-1.396,-1.3658,-1.3549,-1.3499,-1.3317,-1.3135,-1.2989,-1.2835,-1.2659,-1.2489,-1.2261,-1.1996,-1.2003,-1.1885,-1.1731,-1.1613,-1.1694,-1.1694,-1.1657,-1.162,-1.1576,-1.165,-1.1014,-1.0318,-1.6642,-1.667,-1.6835,-1.6839,-1.676,-1.6716,-1.6621,-1.6438,-1.6368,-1.6123,-1.5744,-1.5453,-1.5141,-1.4812,-1.4489,-1.4137,-1.3746,-1.3382,-1.2893,-1.2452,-1.212,-1.1744,-1.1409,-1.1111,-1.0999,-1.0887,-1.0775,-1.085,-1.0925,-1.0925,-1.0887,-1.0812,-1.0663,-1.0481,-1.018,-1.0143,-0.996,-0.9587,-0.9582,-0.9279,-0.8827,-0.8675,-0.8637,-0.8675,-0.8746,-0.8903,-0.8975,-0.916,-0.9349,-0.9582,-0.9733,-0.9846,-1.003,-1.0255,-1.0475,-1.07,-1.0925,-1.1223,-1.1329,-1.1477,-1.1595,-1.1744,-1.1966,-1.2194,-1.2261,-1.1885,-1.1781,-1.1855,-1.1632,-1.1632,-1.1669,-1.1744,-1.1855,-1.2003,-1.2298,-1.2709,-1.3185,-1.3593,-1.3876,-1.4057,-1.4418,-1.4856,-1.5204,-1.5488,-1.57,-1.5903,-1.6149,-1.6254,-1.6263,-1.6254,-1.5798,-1.5444,-1.5046,-1.4776,-1.4633,-1.4446,-1.4258,-1.415,-1.4006,-1.3789,-1.3535,-1.3361,-1.3222,-1.3215,-1.3171,-1.3098,-1.3062,-1.3098,-1.3105,-1.3025,-1.3025,-1.3069,-1.3105,-1.3135,-1.2528,-1.6276,-1.6367,-1.6679,-1.6862,-1.6908,-1.6908,-1.6795,-1.6638,-1.6603,-1.6403,-1.6096,-1.5709,-1.5461,-1.5169,-1.4776,-1.4453,-1.4057,-1.3601,-1.3119,-1.2783,-1.2452,-1.212,-1.1781,-1.1446,-1.1372,-1.1292,-1.1217,-1.1186,-1.1223,-1.1186,-1.1149,-1.0925,-1.085,-1.0775,-1.0631,-1.0519,-1.0331,-1.0067,-0.9916,-0.9809,-0.9549,-0.9322,-0.9251,-0.9246,-0.9359,-0.9365,-0.9435,-0.9582,-0.9809,-1.0035,-1.0293,-1.0519,-1.0669,-1.0856,-1.1043,-1.126,-1.1521,-1.1818,-1.2077,-1.2261,-1.2372,-1.2526,-1.2826,-1.301,-1.3083,-1.3076,-1.2966,-1.2856,-1.2629,-1.2482,-1.2526,-1.2562,-1.2673,-1.282,-1.3156,-1.3448,-1.3884,-1.4325,-1.4497,-1.4677,-1.5106,-1.5549,-1.5859,-1.6132,-1.6412,-1.6638,-1.6821,-1.6899,-1.6968,-1.6915,-1.6698,-1.649,-1.6245,-1.6009,-1.5744,-1.5461,-1.5232,-1.5089,-1.4903,-1.476,-1.4581,-1.4438,-1.4366,-1.4338,-1.4302,-1.4294,-1.4338,-1.4374,-1.4382,-1.4374,-1.4438,-1.4466,-1.4466,-1.4494,-1.4438,-1.601,-1.6288,-1.6404,-1.6606,-1.6872,-1.6899,-1.6864,-1.683,-1.6673,-1.6473,-1.6272,-1.607,-1.5823,-1.5434,-1.4856,-1.4497,-1.4353,-1.3891,-1.3564,-1.3302,-1.2826,-1.2452,-1.215,-1.1892,-1.1744,-1.1632,-1.1558,-1.1558,-1.1484,-1.1521,-1.1558,-1.1446,-1.1298,-1.1186,-1.0999,-1.085,-1.0669,-1.0443,-1.0368,-1.0255,-1.0067,-0.9771,-0.9359,-0.9397,-0.962,-0.9733,-0.9879,-1.0143,-1.0293,-1.0481,-1.0775,-1.0999,-1.1223,-1.1372,-1.1595,-1.1861,-1.2114,-1.2415,-1.2673,-1.2929,-1.3083,-1.3266,-1.3492,-1.3645,-1.3746,-1.384,-1.3768,-1.3768,-1.355,-1.3339,-1.3302,-1.3266,-1.3339,-1.3593,-1.3891,-1.4101,-1.4461,-1.4721,-1.4935,-1.5185,-1.5513,-1.5867,-1.6175,-1.6517,-1.683,-1.7063,-1.727,-1.7382,-1.751,-1.751,-1.7535,-1.7398,-1.727,-1.7063,-1.6726,-1.6307,-1.6053,-1.5947,-1.5798,-1.5586,-1.5507,-1.5542,-1.548,-1.5374,-1.5444,-1.548,-1.5559,-1.5515,-1.5657,-1.5683,-1.5816,-1.5877,-1.5842,-1.5737,-1.564]}]]